﻿<?xml version="1.0" encoding="utf-8"?><gpx creator="Garmin Desktop App" version="1.1" xsi:schemaLocation="http://www.topografix.com/GPX/1/1 http://www.topografix.com/GPX/1/1/gpx.xsd http://www.garmin.com/xmlschemas/WaypointExtension/v1 http://www8.garmin.com/xmlschemas/WaypointExtensionv1.xsd http://www.garmin.com/xmlschemas/TrackPointExtension/v1 http://www.garmin.com/xmlschemas/TrackPointExtensionv1.xsd http://www.garmin.com/xmlschemas/GpxExtensions/v3 http://www8.garmin.com/xmlschemas/GpxExtensionsv3.xsd http://www.garmin.com/xmlschemas/ActivityExtension/v1 http://www8.garmin.com/xmlschemas/ActivityExtensionv1.xsd http://www.garmin.com/xmlschemas/AdventuresExtensions/v1 http://www8.garmin.com/xmlschemas/AdventuresExtensionv1.xsd http://www.garmin.com/xmlschemas/PressureExtension/v1 http://www.garmin.com/xmlschemas/PressureExtensionv1.xsd http://www.garmin.com/xmlschemas/TripExtensions/v1 http://www.garmin.com/xmlschemas/TripExtensionsv1.xsd http://www.garmin.com/xmlschemas/TripMetaDataExtensions/v1 http://www.garmin.com/xmlschemas/TripMetaDataExtensionsv1.xsd http://www.garmin.com/xmlschemas/ViaPointTransportationModeExtensions/v1 http://www.garmin.com/xmlschemas/ViaPointTransportationModeExtensionsv1.xsd http://www.garmin.com/xmlschemas/CreationTimeExtension/v1 http://www.garmin.com/xmlschemas/CreationTimeExtensionsv1.xsd http://www.garmin.com/xmlschemas/AccelerationExtension/v1 http://www.garmin.com/xmlschemas/AccelerationExtensionv1.xsd http://www.garmin.com/xmlschemas/PowerExtension/v1 http://www.garmin.com/xmlschemas/PowerExtensionv1.xsd http://www.garmin.com/xmlschemas/VideoExtension/v1 http://www.garmin.com/xmlschemas/VideoExtensionv1.xsd" xmlns="http://www.topografix.com/GPX/1/1" xmlns:xsi="http://www.w3.org/2001/XMLSchema-instance" xmlns:wptx1="http://www.garmin.com/xmlschemas/WaypointExtension/v1" xmlns:gpxtrx="http://www.garmin.com/xmlschemas/GpxExtensions/v3" xmlns:gpxtpx="http://www.garmin.com/xmlschemas/TrackPointExtension/v1" xmlns:gpxx="http://www.garmin.com/xmlschemas/GpxExtensions/v3" xmlns:trp="http://www.garmin.com/xmlschemas/TripExtensions/v1" xmlns:adv="http://www.garmin.com/xmlschemas/AdventuresExtensions/v1" xmlns:prs="http://www.garmin.com/xmlschemas/PressureExtension/v1" xmlns:tmd="http://www.garmin.com/xmlschemas/TripMetaDataExtensions/v1" xmlns:vptm="http://www.garmin.com/xmlschemas/ViaPointTransportationModeExtensions/v1" xmlns:ctx="http://www.garmin.com/xmlschemas/CreationTimeExtension/v1" xmlns:gpxacc="http://www.garmin.com/xmlschemas/AccelerationExtension/v1" xmlns:gpxpx="http://www.garmin.com/xmlschemas/PowerExtension/v1" xmlns:vidx1="http://www.garmin.com/xmlschemas/VideoExtension/v1">

  <metadata>
    <link href="http://www.garmin.com">
      <text>Garmin International</text>
    </link>
    <time>2021-01-23T07:46:14Z</time>
    <bounds maxlat="45.910888658836484" maxlon="7.413013838231564" minlat="45.87023600935936" minlon="7.365874936804175" />
  </metadata>

  <trk>
    <name>col-de-chardoney</name>
    <extensions>
      <gpxx:TrackExtension>
        <gpxx:DisplayColor>Green</gpxx:DisplayColor>
      </gpxx:TrackExtension>
    </extensions>
    <trkseg>
      <trkpt lat="45.882251719012856" lon="7.398630157113075">
        <ele>2383.5999999999999</ele>
        <time>2012-07-25T07:04:28Z</time>
      </trkpt>
      <trkpt lat="45.882408125326037" lon="7.398439887911081">
        <ele>2390.4000000000001</ele>
        <time>2012-07-25T07:04:28Z</time>
      </trkpt>
      <trkpt lat="45.882518766447902" lon="7.398300161585212">
        <ele>2395.5999999999999</ele>
        <time>2012-07-25T07:04:28Z</time>
      </trkpt>
      <trkpt lat="45.882640806958079" lon="7.398079885169864">
        <ele>2399.0999999999999</ele>
        <time>2012-07-25T07:04:28Z</time>
      </trkpt>
      <trkpt lat="45.882789585739374" lon="7.397900093346834">
        <ele>2403.9000000000001</ele>
        <time>2012-07-25T07:04:28Z</time>
      </trkpt>
      <trkpt lat="45.882999384775758" lon="7.397739915177226">
        <ele>2411</ele>
        <time>2012-07-25T07:04:28Z</time>
      </trkpt>
      <trkpt lat="45.883159646764398" lon="7.397550065070391">
        <ele>2415.6999999999998</ele>
        <time>2012-07-25T07:04:28Z</time>
      </trkpt>
      <trkpt lat="45.883270287886262" lon="7.397280251607299">
        <ele>2416.3000000000002</ele>
        <time>2012-07-25T07:04:28Z</time>
      </trkpt>
      <trkpt lat="45.883460976183414" lon="7.397039858624339">
        <ele>2418.5999999999999</ele>
        <time>2012-07-25T07:04:28Z</time>
      </trkpt>
      <trkpt lat="45.883651748299599" lon="7.396890157833695">
        <ele>2421.9000000000001</ele>
        <time>2012-07-25T07:04:28Z</time>
      </trkpt>
      <trkpt lat="45.883850064128637" lon="7.396659823134542">
        <ele>2424.4000000000001</ele>
        <time>2012-07-25T07:04:28Z</time>
      </trkpt>
      <trkpt lat="45.884040836244822" lon="7.396580195054412">
        <ele>2429.3000000000002</ele>
        <time>2012-07-25T07:04:28Z</time>
      </trkpt>
      <trkpt lat="45.884139994159341" lon="7.396510122343898">
        <ele>2431.4000000000001</ele>
        <time>2012-07-25T07:04:28Z</time>
      </trkpt>
      <trkpt lat="45.884250635281205" lon="7.396470056846738">
        <ele>2433.9000000000001</ele>
        <time>2012-07-25T07:04:28Z</time>
      </trkpt>
      <trkpt lat="45.884418524801731" lon="7.396230250597">
        <ele>2435.9000000000001</ele>
        <time>2012-07-25T07:04:28Z</time>
      </trkpt>
      <trkpt lat="45.884609213098884" lon="7.39606998860836">
        <ele>2439.9000000000001</ele>
        <time>2012-07-25T07:04:28Z</time>
      </trkpt>
      <trkpt lat="45.884811384603381" lon="7.39600989036262">
        <ele>2445.4000000000001</ele>
        <time>2012-07-25T07:04:28Z</time>
      </trkpt>
      <trkpt lat="45.884960163384676" lon="7.395730018615723">
        <ele>2449.1999999999998</ele>
        <time>2012-07-25T07:04:28Z</time>
      </trkpt>
      <trkpt lat="45.88499067351222" lon="7.395639913156629">
        <ele>2450.4000000000001</ele>
        <time>2012-07-25T07:04:28Z</time>
      </trkpt>
      <trkpt lat="45.88499067351222" lon="7.395669920369983">
        <ele>2450.3000000000002</ele>
        <time>2012-07-25T07:04:28Z</time>
      </trkpt>
      <trkpt lat="45.885021183639765" lon="7.395619880408049">
        <ele>2451.8000000000002</ele>
        <time>2012-07-25T07:04:28Z</time>
      </trkpt>
      <trkpt lat="45.884960163384676" lon="7.395619880408049">
        <ele>2449.5999999999999</ele>
        <time>2012-07-25T07:04:28Z</time>
      </trkpt>
      <trkpt lat="45.885059321299195" lon="7.395500186830759">
        <ele>2454.0999999999999</ele>
        <time>2012-07-25T07:04:28Z</time>
      </trkpt>
      <trkpt lat="45.885261576622725" lon="7.395510161295533">
        <ele>2463.8000000000002</ele>
        <time>2012-07-25T07:04:28Z</time>
      </trkpt>
      <trkpt lat="45.885379761457443" lon="7.395239844918251">
        <ele>2470.9000000000001</ele>
        <time>2012-07-25T07:04:28Z</time>
      </trkpt>
      <trkpt lat="45.885471375659108" lon="7.395030045881867">
        <ele>2476.5999999999999</ele>
        <time>2012-07-25T07:04:28Z</time>
      </trkpt>
      <trkpt lat="45.885688802227378" lon="7.394929882138968">
        <ele>2488.0999999999999</ele>
        <time>2012-07-25T07:04:28Z</time>
      </trkpt>
      <trkpt lat="45.885799443349242" lon="7.39458991214633">
        <ele>2494.1999999999998</ele>
        <time>2012-07-25T07:04:28Z</time>
      </trkpt>
      <trkpt lat="45.885978732258081" lon="7.39445018582046">
        <ele>2502.5</ele>
        <time>2012-07-25T07:04:28Z</time>
      </trkpt>
      <trkpt lat="45.886150393635035" lon="7.39454984664917">
        <ele>2510.5999999999999</ele>
        <time>2012-07-25T07:04:28Z</time>
      </trkpt>
      <trkpt lat="45.886230440810323" lon="7.394579853862524">
        <ele>2514.3000000000002</ele>
        <time>2012-07-25T07:04:28Z</time>
      </trkpt>
      <trkpt lat="45.886329682543874" lon="7.39458991214633">
        <ele>2519</ele>
        <time>2012-07-25T07:04:28Z</time>
      </trkpt>
      <trkpt lat="45.886451723054051" lon="7.394700050354004">
        <ele>2524.8000000000002</ele>
        <time>2012-07-25T07:04:28Z</time>
      </trkpt>
      <trkpt lat="45.886398330330849" lon="7.394800214096904">
        <ele>2522.1999999999998</ele>
        <time>2012-07-25T07:04:28Z</time>
      </trkpt>
      <trkpt lat="45.886398330330849" lon="7.394869783893228">
        <ele>2522.1999999999998</ele>
        <time>2012-07-25T07:04:28Z</time>
      </trkpt>
      <trkpt lat="45.886531854048371" lon="7.394989980384708">
        <ele>2528.5</ele>
        <time>2012-07-25T07:04:28Z</time>
      </trkpt>
      <trkpt lat="45.886699659749866" lon="7.395070111379027">
        <ele>2536.8000000000002</ele>
        <time>2012-07-25T07:04:28Z</time>
      </trkpt>
      <trkpt lat="45.88676830753684" lon="7.395100118592382">
        <ele>2540.4000000000001</ele>
        <time>2012-07-25T07:04:28Z</time>
      </trkpt>
      <trkpt lat="45.886878948658705" lon="7.395060053095222">
        <ele>2546</ele>
        <time>2012-07-25T07:04:28Z</time>
      </trkpt>
      <trkpt lat="45.887039210647345" lon="7.394989980384708">
        <ele>2553.8000000000002</ele>
        <time>2012-07-25T07:04:28Z</time>
      </trkpt>
      <trkpt lat="45.887199388816953" lon="7.394989980384708">
        <ele>2561.8000000000002</ele>
        <time>2012-07-25T07:04:28Z</time>
      </trkpt>
      <trkpt lat="45.887348167598248" lon="7.394849751144648">
        <ele>2569.1999999999998</ele>
        <time>2012-07-25T07:04:28Z</time>
      </trkpt>
      <trkpt lat="45.887538939714432" lon="7.39469007588923">
        <ele>2577.6999999999998</ele>
        <time>2012-07-25T07:04:28Z</time>
      </trkpt>
      <trkpt lat="45.887729628011584" lon="7.39450978115201">
        <ele>2582</ele>
        <time>2012-07-25T07:04:28Z</time>
      </trkpt>
      <trkpt lat="45.887889890000224" lon="7.394360080361366">
        <ele>2585.0999999999999</ele>
        <time>2012-07-25T07:04:28Z</time>
      </trkpt>
      <trkpt lat="45.888080578297377" lon="7.394320014864206">
        <ele>2589.0999999999999</ele>
        <time>2012-07-25T07:04:28Z</time>
      </trkpt>
      <trkpt lat="45.888278977945447" lon="7.394219851121306">
        <ele>2592.4000000000001</ele>
        <time>2012-07-25T07:04:28Z</time>
      </trkpt>
      <trkpt lat="45.888500176370144" lon="7.394149778410792">
        <ele>2594.9000000000001</ele>
        <time>2012-07-25T07:04:28Z</time>
      </trkpt>
      <trkpt lat="45.888721458613873" lon="7.394189843907952">
        <ele>2597.5999999999999</ele>
        <time>2012-07-25T07:04:28Z</time>
      </trkpt>
      <trkpt lat="45.888961767777801" lon="7.394199818372726">
        <ele>2600.4000000000001</ele>
        <time>2012-07-25T07:04:28Z</time>
      </trkpt>
      <trkpt lat="45.889171566814184" lon="7.394060175865889">
        <ele>2601.6999999999998</ele>
        <time>2012-07-25T07:04:28Z</time>
      </trkpt>
      <trkpt lat="45.889400476589799" lon="7.393939979374409">
        <ele>2601</ele>
        <time>2012-07-25T07:04:28Z</time>
      </trkpt>
      <trkpt lat="45.889610275626183" lon="7.393809808418155">
        <ele>2600.5</ele>
        <time>2012-07-25T07:04:28Z</time>
      </trkpt>
      <trkpt lat="45.889808675274253" lon="7.393670082092285">
        <ele>2600.1999999999998</ele>
        <time>2012-07-25T07:04:28Z</time>
      </trkpt>
      <trkpt lat="45.89001084677875" lon="7.393469838425517">
        <ele>2600.0999999999999</ele>
        <time>2012-07-25T07:04:28Z</time>
      </trkpt>
      <trkpt lat="45.890239756554365" lon="7.393340086564422">
        <ele>2601.4000000000001</ele>
        <time>2012-07-25T07:04:28Z</time>
      </trkpt>
      <trkpt lat="45.890449555590749" lon="7.393240006640554">
        <ele>2603</ele>
        <time>2012-07-25T07:04:28Z</time>
      </trkpt>
      <trkpt lat="45.890628844499588" lon="7.393040182068944">
        <ele>2605</ele>
        <time>2012-07-25T07:04:28Z</time>
      </trkpt>
      <trkpt lat="45.890800505876541" lon="7.392819905653596">
        <ele>2607.1999999999998</ele>
        <time>2012-07-25T07:04:28Z</time>
      </trkpt>
      <trkpt lat="45.890991194173694" lon="7.392670121043921">
        <ele>2610.1999999999998</ele>
        <time>2012-07-25T07:04:28Z</time>
      </trkpt>
      <trkpt lat="45.891208620741963" lon="7.392600048333406">
        <ele>2613.3000000000002</ele>
        <time>2012-07-25T07:04:28Z</time>
      </trkpt>
      <trkpt lat="45.891418419778347" lon="7.392570041120052">
        <ele>2616.1999999999998</ele>
        <time>2012-07-25T07:04:28Z</time>
      </trkpt>
      <trkpt lat="45.891559571027756" lon="7.392700212076306">
        <ele>2617</ele>
        <time>2012-07-25T07:04:28Z</time>
      </trkpt>
      <trkpt lat="45.891708349809051" lon="7.392529975622892">
        <ele>2620.6999999999998</ele>
        <time>2012-07-25T07:04:28Z</time>
      </trkpt>
      <trkpt lat="45.89186861179769" lon="7.392380274832249">
        <ele>2626.0999999999999</ele>
        <time>2012-07-25T07:04:28Z</time>
      </trkpt>
      <trkpt lat="45.892070783302188" lon="7.392310118302703">
        <ele>2631.4000000000001</ele>
        <time>2012-07-25T07:04:28Z</time>
      </trkpt>
      <trkpt lat="45.892238589003682" lon="7.392109874635935">
        <ele>2637.6999999999998</ele>
        <time>2012-07-25T07:04:28Z</time>
      </trkpt>
      <trkpt lat="45.892280582338572" lon="7.391880042850971">
        <ele>2641.5999999999999</ele>
        <time>2012-07-25T07:04:28Z</time>
      </trkpt>
      <trkpt lat="45.892299693077803" lon="7.391640152782202">
        <ele>2645.5</ele>
        <time>2012-07-25T07:04:28Z</time>
      </trkpt>
      <trkpt lat="45.892429361119866" lon="7.391509981825948">
        <ele>2651.0999999999999</ele>
        <time>2012-07-25T07:04:28Z</time>
      </trkpt>
      <trkpt lat="45.89255902916193" lon="7.391419876366854">
        <ele>2656.4000000000001</ele>
        <time>2012-07-25T07:04:28Z</time>
      </trkpt>
      <trkpt lat="45.892681153491139" lon="7.39121007733047">
        <ele>2664.4000000000001</ele>
        <time>2012-07-25T07:04:28Z</time>
      </trkpt>
      <trkpt lat="45.892780311405659" lon="7.39125014282763">
        <ele>2666.4000000000001</ele>
        <time>2012-07-25T07:04:28Z</time>
      </trkpt>
      <trkpt lat="45.892940489575267" lon="7.39123011007905">
        <ele>2671.3000000000002</ele>
        <time>2012-07-25T07:04:28Z</time>
      </trkpt>
      <trkpt lat="45.893070241436362" lon="7.391009833663702">
        <ele>2678.6999999999998</ele>
        <time>2012-07-25T07:04:28Z</time>
      </trkpt>
      <trkpt lat="45.893280040472746" lon="7.390890140086412">
        <ele>2685.9000000000001</ele>
        <time>2012-07-25T07:04:28Z</time>
      </trkpt>
      <trkpt lat="45.893451701849699" lon="7.390999775379896">
        <ele>2689.3000000000002</ele>
        <time>2012-07-25T07:04:28Z</time>
      </trkpt>
      <trkpt lat="45.893531832844019" lon="7.390930205583572">
        <ele>2692.6999999999998</ele>
        <time>2012-07-25T07:04:28Z</time>
      </trkpt>
      <trkpt lat="45.89360810816288" lon="7.390800034627318">
        <ele>2697.0999999999999</ele>
        <time>2012-07-25T07:04:28Z</time>
      </trkpt>
      <trkpt lat="45.893680611625314" lon="7.390600210055709">
        <ele>2704.0999999999999</ele>
        <time>2012-07-25T07:04:28Z</time>
      </trkpt>
      <trkpt lat="45.893840789794922" lon="7.390459980815649">
        <ele>2711.5</ele>
        <time>2012-07-25T07:04:28Z</time>
      </trkpt>
      <trkpt lat="45.894058216363192" lon="7.390429973602295">
        <ele>2717.5999999999999</ele>
        <time>2012-07-25T07:04:28Z</time>
      </trkpt>
      <trkpt lat="45.894271871075034" lon="7.390480013564229">
        <ele>2720.8000000000002</ele>
        <time>2012-07-25T07:04:28Z</time>
      </trkpt>
      <trkpt lat="45.894401539117098" lon="7.390649830922484">
        <ele>2720.1999999999998</ele>
        <time>2012-07-25T07:04:28Z</time>
      </trkpt>
      <trkpt lat="45.894538918510079" lon="7.390810009092093">
        <ele>2720.8000000000002</ele>
        <time>2012-07-25T07:04:28Z</time>
      </trkpt>
      <trkpt lat="45.894641848281026" lon="7.391119971871376">
        <ele>2722.4000000000001</ele>
        <time>2012-07-25T07:04:28Z</time>
      </trkpt>
      <trkpt lat="45.894618965685368" lon="7.391320215538144">
        <ele>2721.5999999999999</ele>
        <time>2012-07-25T07:04:28Z</time>
      </trkpt>
      <trkpt lat="45.894668586552143" lon="7.391459941864014">
        <ele>2722.8000000000002</ele>
        <time>2012-07-25T07:04:28Z</time>
      </trkpt>
      <trkpt lat="45.894779227674007" lon="7.391439909115434">
        <ele>2725.9000000000001</ele>
        <time>2012-07-25T07:04:28Z</time>
      </trkpt>
      <trkpt lat="45.894889868795872" lon="7.391540072858334">
        <ele>2729.3000000000002</ele>
        <time>2012-07-25T07:04:28Z</time>
      </trkpt>
      <trkpt lat="45.894958516582847" lon="7.391630178317428">
        <ele>2731.5999999999999</ele>
        <time>2012-07-25T07:04:28Z</time>
      </trkpt>
      <trkpt lat="45.89508818462491" lon="7.391590112820268">
        <ele>2734.0999999999999</ele>
        <time>2012-07-25T07:04:28Z</time>
      </trkpt>
      <trkpt lat="45.895328493788838" lon="7.391640152782202">
        <ele>2738.3000000000002</ele>
        <time>2012-07-25T07:04:28Z</time>
      </trkpt>
      <trkpt lat="45.895538292825222" lon="7.391640152782202">
        <ele>2741.8000000000002</ele>
        <time>2012-07-25T07:04:28Z</time>
      </trkpt>
      <trkpt lat="45.895698554813862" lon="7.391640152782202">
        <ele>2744.4000000000001</ele>
        <time>2012-07-25T07:04:28Z</time>
      </trkpt>
      <trkpt lat="45.895900726318359" lon="7.391550047323108">
        <ele>2747.4000000000001</ele>
        <time>2012-07-25T07:04:28Z</time>
      </trkpt>
      <trkpt lat="45.896080015227199" lon="7.39134980365634">
        <ele>2750.4000000000001</ele>
        <time>2012-07-25T07:04:28Z</time>
      </trkpt>
      <trkpt lat="45.896259304136038" lon="7.391119971871376">
        <ele>2753.4000000000001</ele>
        <time>2012-07-25T07:04:28Z</time>
      </trkpt>
      <trkpt lat="45.89641185477376" lon="7.390870107337833">
        <ele>2755.8000000000002</ele>
        <time>2012-07-25T07:04:28Z</time>
      </trkpt>
      <trkpt lat="45.896541606634855" lon="7.390659805387259">
        <ele>2762.1999999999998</ele>
        <time>2012-07-25T07:04:28Z</time>
      </trkpt>
      <trkpt lat="45.896659875288606" lon="7.390629798173904">
        <ele>2766.9000000000001</ele>
        <time>2012-07-25T07:04:28Z</time>
      </trkpt>
      <trkpt lat="45.896801026538014" lon="7.390580177307129">
        <ele>2774.8000000000002</ele>
        <time>2012-07-25T07:04:28Z</time>
      </trkpt>
      <trkpt lat="45.896949805319309" lon="7.390649830922484">
        <ele>2781.0999999999999</ele>
        <time>2012-07-25T07:04:28Z</time>
      </trkpt>
      <trkpt lat="45.897010825574398" lon="7.390709845349193">
        <ele>2782.9000000000001</ele>
        <time>2012-07-25T07:04:28Z</time>
      </trkpt>
      <trkpt lat="45.897121466696262" lon="7.390639772638679">
        <ele>2789.9000000000001</ele>
        <time>2012-07-25T07:04:28Z</time>
      </trkpt>
      <trkpt lat="45.897148121148348" lon="7.390560144558549">
        <ele>2792.9000000000001</ele>
        <time>2012-07-25T07:04:28Z</time>
      </trkpt>
      <trkpt lat="45.89728164486587" lon="7.390459980815649">
        <ele>2802</ele>
        <time>2012-07-25T07:04:28Z</time>
      </trkpt>
      <trkpt lat="45.897430423647165" lon="7.390620242804289">
        <ele>2805.9000000000001</ele>
        <time>2012-07-25T07:04:28Z</time>
      </trkpt>
      <trkpt lat="45.897449534386396" lon="7.390759969130158">
        <ele>2803.4000000000001</ele>
        <time>2012-07-25T07:04:28Z</time>
      </trkpt>
      <trkpt lat="45.897399913519621" lon="7.390729878097773">
        <ele>2801.6999999999998</ele>
        <time>2012-07-25T07:04:28Z</time>
      </trkpt>
      <trkpt lat="45.89754106476903" lon="7.390669863671064">
        <ele>2810.4000000000001</ele>
        <time>2012-07-25T07:04:28Z</time>
      </trkpt>
      <trkpt lat="45.89762119576335" lon="7.390620242804289">
        <ele>2816.0999999999999</ele>
        <time>2012-07-25T07:04:28Z</time>
      </trkpt>
      <trkpt lat="45.897769890725613" lon="7.390540111809969">
        <ele>2826.5</ele>
        <time>2012-07-25T07:04:28Z</time>
      </trkpt>
      <trkpt lat="45.897899642586708" lon="7.390570202842355">
        <ele>2833</ele>
        <time>2012-07-25T07:04:28Z</time>
      </trkpt>
      <trkpt lat="45.898059820756316" lon="7.390649830922484">
        <ele>2839.5999999999999</ele>
        <time>2012-07-25T07:04:28Z</time>
      </trkpt>
      <trkpt lat="45.898090330883861" lon="7.390689812600613">
        <ele>2840.0999999999999</ele>
        <time>2012-07-25T07:04:28Z</time>
      </trkpt>
      <trkpt lat="45.898178089410067" lon="7.390649830922484">
        <ele>2846.0999999999999</ele>
        <time>2012-07-25T07:04:28Z</time>
      </trkpt>
      <trkpt lat="45.898410771042109" lon="7.390679838135839">
        <ele>2855.9000000000001</ele>
        <time>2012-07-25T07:04:28Z</time>
      </trkpt>
      <trkpt lat="45.898639680817723" lon="7.390749910846353">
        <ele>2861.1999999999998</ele>
        <time>2012-07-25T07:04:28Z</time>
      </trkpt>
      <trkpt lat="45.898841852322221" lon="7.390830041840673">
        <ele>2867.3000000000002</ele>
        <time>2012-07-25T07:04:28Z</time>
      </trkpt>
      <trkpt lat="45.899040251970291" lon="7.390900114551187">
        <ele>2873.6999999999998</ele>
        <time>2012-07-25T07:04:28Z</time>
      </trkpt>
      <trkpt lat="45.899028768762946" lon="7.390830041840673">
        <ele>2874</ele>
        <time>2012-07-25T07:04:28Z</time>
      </trkpt>
      <trkpt lat="45.898899100720882" lon="7.390810009092093">
        <ele>2869.4000000000001</ele>
        <time>2012-07-25T07:04:28Z</time>
      </trkpt>
      <trkpt lat="45.899070762097836" lon="7.390930205583572">
        <ele>2874.4000000000001</ele>
        <time>2012-07-25T07:04:28Z</time>
      </trkpt>
      <trkpt lat="45.899189030751586" lon="7.390979742631316">
        <ele>2877.3000000000002</ele>
        <time>2012-07-25T07:04:28Z</time>
      </trkpt>
      <trkpt lat="45.89923856779933" lon="7.390950238332152">
        <ele>2877.4000000000001</ele>
        <time>2012-07-25T07:04:28Z</time>
      </trkpt>
      <trkpt lat="45.899261450394988" lon="7.390950238332152">
        <ele>2877.3000000000002</ele>
        <time>2012-07-25T07:04:28Z</time>
      </trkpt>
      <trkpt lat="45.899261450394988" lon="7.390930205583572">
        <ele>2877.4000000000001</ele>
        <time>2012-07-25T07:04:28Z</time>
      </trkpt>
      <trkpt lat="45.899280561134219" lon="7.390930205583572">
        <ele>2877.3000000000002</ele>
        <time>2012-07-25T07:04:28Z</time>
      </trkpt>
      <trkpt lat="45.899299588054419" lon="7.390950238332152">
        <ele>2877.0999999999999</ele>
        <time>2012-07-25T07:04:28Z</time>
      </trkpt>
      <trkpt lat="45.899299588054419" lon="7.390970271080732">
        <ele>2877</ele>
        <time>2012-07-25T07:04:28Z</time>
      </trkpt>
      <trkpt lat="45.89931869879365" lon="7.390970271080732">
        <ele>2877</ele>
        <time>2012-07-25T07:04:28Z</time>
      </trkpt>
      <trkpt lat="45.899330098181963" lon="7.390989800915122">
        <ele>2876.8000000000002</ele>
        <time>2012-07-25T07:04:28Z</time>
      </trkpt>
      <trkpt lat="45.899349208921194" lon="7.390999775379896">
        <ele>2876.8000000000002</ele>
        <time>2012-07-25T07:04:28Z</time>
      </trkpt>
      <trkpt lat="45.899368319660425" lon="7.391009833663702">
        <ele>2876.6999999999998</ele>
        <time>2012-07-25T07:04:28Z</time>
      </trkpt>
      <trkpt lat="45.899391202256083" lon="7.391009833663702">
        <ele>2876.6999999999998</ele>
        <time>2012-07-25T07:04:28Z</time>
      </trkpt>
      <trkpt lat="45.899410229176283" lon="7.391019808128476">
        <ele>2876.5999999999999</ele>
        <time>2012-07-25T07:04:28Z</time>
      </trkpt>
      <trkpt lat="45.899429339915514" lon="7.391039840877056">
        <ele>2876.5999999999999</ele>
        <time>2012-07-25T07:04:28Z</time>
      </trkpt>
      <trkpt lat="45.899448366835713" lon="7.391039840877056">
        <ele>2876.5999999999999</ele>
        <time>2012-07-25T07:04:28Z</time>
      </trkpt>
      <trkpt lat="45.899471249431372" lon="7.391029866412282">
        <ele>2876.5</ele>
        <time>2012-07-25T07:04:28Z</time>
      </trkpt>
      <trkpt lat="45.899478876963258" lon="7.391049899160862">
        <ele>2876.5999999999999</ele>
        <time>2012-07-25T07:04:28Z</time>
      </trkpt>
      <trkpt lat="45.899501759558916" lon="7.391049899160862">
        <ele>2876.5999999999999</ele>
        <time>2012-07-25T07:04:28Z</time>
      </trkpt>
      <trkpt lat="45.899520870298147" lon="7.391039840877056">
        <ele>2876.5</ele>
        <time>2012-07-25T07:04:28Z</time>
      </trkpt>
      <trkpt lat="45.899539981037378" lon="7.391039840877056">
        <ele>2876.5</ele>
        <time>2012-07-25T07:04:28Z</time>
      </trkpt>
      <trkpt lat="45.899539981037378" lon="7.391039840877056">
        <ele>2876.5</ele>
        <time>2012-07-25T07:04:28Z</time>
      </trkpt>
      <trkpt lat="45.899539981037378" lon="7.391059873625636">
        <ele>2876.5999999999999</ele>
        <time>2012-07-25T07:04:28Z</time>
      </trkpt>
      <trkpt lat="45.899551380425692" lon="7.391079906374216">
        <ele>2876.6999999999998</ele>
        <time>2012-07-25T07:04:28Z</time>
      </trkpt>
      <trkpt lat="45.899551380425692" lon="7.39108988083899">
        <ele>2876.8000000000002</ele>
        <time>2012-07-25T07:04:28Z</time>
      </trkpt>
      <trkpt lat="45.899539981037378" lon="7.39108988083899">
        <ele>2876.8000000000002</ele>
        <time>2012-07-25T11:17:18Z</time>
      </trkpt>
      <trkpt lat="45.899799317121506" lon="7.39123011007905">
        <ele>2879.5</ele>
        <time>2012-07-25T11:17:18Z</time>
      </trkpt>
      <trkpt lat="45.89987182058394" lon="7.39132977090776">
        <ele>2882</ele>
        <time>2012-07-25T11:17:18Z</time>
      </trkpt>
      <trkpt lat="45.899929068982601" lon="7.391300182789564">
        <ele>2882</ele>
        <time>2012-07-25T11:17:18Z</time>
      </trkpt>
      <trkpt lat="45.90002822689712" lon="7.391399843618274">
        <ele>2884.4000000000001</ele>
        <time>2012-07-25T11:17:18Z</time>
      </trkpt>
      <trkpt lat="45.900100730359554" lon="7.391509981825948">
        <ele>2885.3000000000002</ele>
        <time>2012-07-25T11:17:18Z</time>
      </trkpt>
      <trkpt lat="45.900188405066729" lon="7.391620120033622">
        <ele>2886.5999999999999</ele>
        <time>2012-07-25T11:17:18Z</time>
      </trkpt>
      <trkpt lat="45.900260908529162" lon="7.391759846359491">
        <ele>2888.5999999999999</ele>
        <time>2012-07-25T11:17:18Z</time>
      </trkpt>
      <trkpt lat="45.900348667055368" lon="7.391850035637617">
        <ele>2889.4000000000001</ele>
        <time>2012-07-25T11:17:18Z</time>
      </trkpt>
      <trkpt lat="45.900440197438002" lon="7.391940141096711">
        <ele>2891.0999999999999</ele>
        <time>2012-07-25T11:17:18Z</time>
      </trkpt>
      <trkpt lat="45.900531727820635" lon="7.392049776390195">
        <ele>2894.1999999999998</ele>
        <time>2012-07-25T11:17:18Z</time>
      </trkpt>
      <trkpt lat="45.900611858814955" lon="7.392159914597869">
        <ele>2898.3000000000002</ele>
        <time>2012-07-25T11:17:18Z</time>
      </trkpt>
      <trkpt lat="45.900688134133816" lon="7.392270052805543">
        <ele>2903.1999999999998</ele>
        <time>2012-07-25T11:17:18Z</time>
      </trkpt>
      <trkpt lat="45.900749238207936" lon="7.392409779131413">
        <ele>2910.0999999999999</ele>
        <time>2012-07-25T11:17:18Z</time>
      </trkpt>
      <trkpt lat="45.900848396122456" lon="7.392479935660958">
        <ele>2914.6999999999998</ele>
        <time>2012-07-25T11:17:18Z</time>
      </trkpt>
      <trkpt lat="45.900890389457345" lon="7.392620081081986">
        <ele>2916.8000000000002</ele>
        <time>2012-07-25T11:17:18Z</time>
      </trkpt>
      <trkpt lat="45.900981919839978" lon="7.392700212076306">
        <ele>2916.9000000000001</ele>
        <time>2012-07-25T11:17:18Z</time>
      </trkpt>
      <trkpt lat="45.901100188493729" lon="7.392730219289661">
        <ele>2916.0999999999999</ele>
        <time>2012-07-25T11:17:18Z</time>
      </trkpt>
      <trkpt lat="45.901199346408248" lon="7.392839938402176">
        <ele>2917.9000000000001</ele>
        <time>2012-07-25T11:17:18Z</time>
      </trkpt>
      <trkpt lat="45.901279477402568" lon="7.39297010935843">
        <ele>2921.1999999999998</ele>
        <time>2012-07-25T11:17:18Z</time>
      </trkpt>
      <trkpt lat="45.9013900347054" lon="7.393070189282298">
        <ele>2924.3000000000002</ele>
        <time>2012-07-25T11:17:18Z</time>
      </trkpt>
      <trkpt lat="45.901458766311407" lon="7.393229948356748">
        <ele>2930.1999999999998</ele>
        <time>2012-07-25T11:17:18Z</time>
      </trkpt>
      <trkpt lat="45.901569407433271" lon="7.393290046602488">
        <ele>2933.3000000000002</ele>
        <time>2012-07-25T11:17:18Z</time>
      </trkpt>
      <trkpt lat="45.901660937815905" lon="7.393390210345388">
        <ele>2936.5</ele>
        <time>2012-07-25T11:17:18Z</time>
      </trkpt>
      <trkpt lat="45.901760095730424" lon="7.393439747393131">
        <ele>2936.8000000000002</ele>
        <time>2012-07-25T11:17:18Z</time>
      </trkpt>
      <trkpt lat="45.901870736852288" lon="7.393529852852225">
        <ele>2938.1999999999998</ele>
        <time>2012-07-25T11:17:18Z</time>
      </trkpt>
      <trkpt lat="45.901969894766808" lon="7.393620042130351">
        <ele>2940.3000000000002</ele>
        <time>2012-07-25T11:17:18Z</time>
      </trkpt>
      <trkpt lat="45.902069052681327" lon="7.393670082092285">
        <ele>2942.0999999999999</ele>
        <time>2012-07-25T11:17:18Z</time>
      </trkpt>
      <trkpt lat="45.902160666882992" lon="7.393760187551379">
        <ele>2945.3000000000002</ele>
        <time>2012-07-25T11:17:18Z</time>
      </trkpt>
      <trkpt lat="45.902248341590166" lon="7.393809808418155">
        <ele>2947.9000000000001</ele>
        <time>2012-07-25T11:17:18Z</time>
      </trkpt>
      <trkpt lat="45.902351355180144" lon="7.393919946625829">
        <ele>2953.0999999999999</ele>
        <time>2012-07-25T11:17:18Z</time>
      </trkpt>
      <trkpt lat="45.902469623833895" lon="7.393939979374409">
        <ele>2955.9000000000001</ele>
        <time>2012-07-25T11:17:18Z</time>
      </trkpt>
      <trkpt lat="45.902568781748414" lon="7.394060175865889">
        <ele>2962</ele>
        <time>2012-07-25T11:17:18Z</time>
      </trkpt>
      <trkpt lat="45.902671795338392" lon="7.394040143117309">
        <ele>2961.9000000000001</ele>
        <time>2012-07-25T11:17:18Z</time>
      </trkpt>
      <trkpt lat="45.902778664603829" lon="7.394060175865889">
        <ele>2963.5</ele>
        <time>2012-07-25T11:17:18Z</time>
      </trkpt>
      <trkpt lat="45.902828201651573" lon="7.394179785624147">
        <ele>2969</ele>
        <time>2012-07-25T11:17:18Z</time>
      </trkpt>
      <trkpt lat="45.902919732034206" lon="7.394229909405112">
        <ele>2970.6999999999998</ele>
        <time>2012-07-25T11:17:18Z</time>
      </trkpt>
      <trkpt lat="45.902980836108327" lon="7.394380113109946">
        <ele>2974.3000000000002</ele>
        <time>2012-07-25T11:17:18Z</time>
      </trkpt>
      <trkpt lat="45.903011346235871" lon="7.39448974840343">
        <ele>2976.9000000000001</ele>
        <time>2012-07-25T11:17:18Z</time>
      </trkpt>
      <trkpt lat="45.903118131682277" lon="7.394499806687236">
        <ele>2978.5999999999999</ele>
        <time>2012-07-25T11:17:18Z</time>
      </trkpt>
      <trkpt lat="45.903221145272255" lon="7.39456987939775">
        <ele>2981.9000000000001</ele>
        <time>2012-07-25T11:17:18Z</time>
      </trkpt>
      <trkpt lat="45.903339413926005" lon="7.39462997764349">
        <ele>2985.3000000000002</ele>
        <time>2012-07-25T11:17:18Z</time>
      </trkpt>
      <trkpt lat="45.903430944308639" lon="7.394720083102584">
        <ele>2988</ele>
        <time>2012-07-25T11:17:18Z</time>
      </trkpt>
      <trkpt lat="45.903511075302958" lon="7.394849751144648">
        <ele>2991.6999999999998</ele>
        <time>2012-07-25T11:17:18Z</time>
      </trkpt>
      <trkpt lat="45.903480565175414" lon="7.394999954849482">
        <ele>2995.5</ele>
        <time>2012-07-25T11:17:18Z</time>
      </trkpt>
      <trkpt lat="45.903469081968069" lon="7.395160216838121">
        <ele>2997.5</ele>
        <time>2012-07-25T11:17:18Z</time>
      </trkpt>
      <trkpt lat="45.903388950973749" lon="7.395309917628765">
        <ele>2998.8000000000002</ele>
        <time>2012-07-25T11:17:18Z</time>
      </trkpt>
      <trkpt lat="45.903430944308639" lon="7.395440088585019">
        <ele>3000.6999999999998</ele>
        <time>2012-07-25T11:17:18Z</time>
      </trkpt>
      <trkpt lat="45.903469081968069" lon="7.395579814910889">
        <ele>3002.8000000000002</ele>
        <time>2012-07-25T11:17:18Z</time>
      </trkpt>
      <trkpt lat="45.903541585430503" lon="7.395709985867143">
        <ele>3005.3000000000002</ele>
        <time>2012-07-25T11:17:18Z</time>
      </trkpt>
      <trkpt lat="45.903629343956709" lon="7.395810149610043">
        <ele>3007.9000000000001</ele>
        <time>2012-07-25T11:17:18Z</time>
      </trkpt>
      <trkpt lat="45.903720874339342" lon="7.395919784903526">
        <ele>3009.5999999999999</ele>
        <time>2012-07-25T11:17:18Z</time>
      </trkpt>
      <trkpt lat="45.903820032253861" lon="7.395999915897846">
        <ele>3011.0999999999999</ele>
        <time>2012-07-25T11:17:18Z</time>
      </trkpt>
      <trkpt lat="45.903919190168381" lon="7.39609002135694">
        <ele>3012.6999999999998</ele>
        <time>2012-07-25T11:17:18Z</time>
      </trkpt>
      <trkpt lat="45.904010804370046" lon="7.39619018509984">
        <ele>3014.3000000000002</ele>
        <time>2012-07-25T11:17:18Z</time>
      </trkpt>
      <trkpt lat="45.904109962284565" lon="7.396240225061774">
        <ele>3016</ele>
        <time>2012-07-25T11:17:18Z</time>
      </trkpt>
      <trkpt lat="45.904201492667198" lon="7.396379951387644">
        <ele>3017.3000000000002</ele>
        <time>2012-07-25T11:17:18Z</time>
      </trkpt>
      <trkpt lat="45.904281623661518" lon="7.396470056846738">
        <ele>3017.4000000000001</ele>
        <time>2012-07-25T11:17:18Z</time>
      </trkpt>
      <trkpt lat="45.904380781576037" lon="7.396570220589638">
        <ele>3017.5</ele>
        <time>2012-07-25T11:17:18Z</time>
      </trkpt>
      <trkpt lat="45.904449429363012" lon="7.396679855883122">
        <ele>3017.5999999999999</ele>
        <time>2012-07-25T11:17:18Z</time>
      </trkpt>
      <trkpt lat="45.904541043564677" lon="7.396780019626021">
        <ele>3017.5999999999999</ele>
        <time>2012-07-25T11:17:18Z</time>
      </trkpt>
      <trkpt lat="45.904621090739965" lon="7.396870125085115">
        <ele>3017.9000000000001</ele>
        <time>2012-07-25T11:17:18Z</time>
      </trkpt>
      <trkpt lat="45.904678339138627" lon="7.397029884159565">
        <ele>3018.5</ele>
        <time>2012-07-25T11:17:18Z</time>
      </trkpt>
      <trkpt lat="45.90481186285615" lon="7.397069949656725">
        <ele>3019.5999999999999</ele>
        <time>2012-07-25T11:17:18Z</time>
      </trkpt>
      <trkpt lat="45.904861483722925" lon="7.397170029580593">
        <ele>3020.5999999999999</ele>
        <time>2012-07-25T11:17:18Z</time>
      </trkpt>
      <trkpt lat="45.904861483722925" lon="7.397329788655043">
        <ele>3021.6999999999998</ele>
        <time>2012-07-25T11:17:18Z</time>
      </trkpt>
      <trkpt lat="45.904949158430099" lon="7.397419894114137">
        <ele>3023.5</ele>
        <time>2012-07-25T11:17:18Z</time>
      </trkpt>
      <trkpt lat="45.905040772631764" lon="7.397510083392263">
        <ele>3025.1999999999998</ele>
        <time>2012-07-25T11:17:18Z</time>
      </trkpt>
      <trkpt lat="45.905139930546284" lon="7.397459959611297">
        <ele>3025.6999999999998</ele>
        <time>2012-07-25T11:17:18Z</time>
      </trkpt>
      <trkpt lat="45.905239088460803" lon="7.397409919649363">
        <ele>3026.0999999999999</ele>
        <time>2012-07-25T11:17:18Z</time>
      </trkpt>
      <trkpt lat="45.905269598588347" lon="7.397409919649363">
        <ele>3026.4000000000001</ele>
        <time>2012-07-25T11:17:18Z</time>
      </trkpt>
      <trkpt lat="45.905288709327579" lon="7.397419894114137">
        <ele>3026.5999999999999</ele>
        <time>2012-07-25T11:17:18Z</time>
      </trkpt>
      <trkpt lat="45.905208578333259" lon="7.397459959611297">
        <ele>3026.1999999999998</ele>
        <time>2012-07-25T11:17:18Z</time>
      </trkpt>
      <trkpt lat="45.905128447338939" lon="7.397399861365557">
        <ele>3025.0999999999999</ele>
        <time>2012-07-25T11:17:18Z</time>
      </trkpt>
      <trkpt lat="45.905208578333259" lon="7.397449985146523">
        <ele>3026.1999999999998</ele>
        <time>2012-07-25T11:17:18Z</time>
      </trkpt>
      <trkpt lat="45.905311591923237" lon="7.397530116140842">
        <ele>3027.0999999999999</ele>
        <time>2012-07-25T11:17:18Z</time>
      </trkpt>
      <trkpt lat="45.905399350449443" lon="7.397610163316131">
        <ele>3027.5</ele>
        <time>2012-07-25T11:17:18Z</time>
      </trkpt>
      <trkpt lat="45.905540501698852" lon="7.397610163316131">
        <ele>3028.6999999999998</ele>
        <time>2012-07-25T11:17:18Z</time>
      </trkpt>
      <trkpt lat="45.905628176406026" lon="7.39766975864768">
        <ele>3029.5</ele>
        <time>2012-07-25T11:17:18Z</time>
      </trkpt>
      <trkpt lat="45.905719790607691" lon="7.397799929603934">
        <ele>3030.5</ele>
        <time>2012-07-25T11:17:18Z</time>
      </trkpt>
      <trkpt lat="45.905830347910523" lon="7.397880060598254">
        <ele>3031.9000000000001</ele>
        <time>2012-07-25T11:17:18Z</time>
      </trkpt>
      <trkpt lat="45.905929589644074" lon="7.397900093346834">
        <ele>3035.4000000000001</ele>
        <time>2012-07-25T11:17:18Z</time>
      </trkpt>
      <trkpt lat="45.906051630154252" lon="7.397960191592574">
        <ele>3039.6999999999998</ele>
        <time>2012-07-25T11:17:18Z</time>
      </trkpt>
      <trkpt lat="45.906158415600657" lon="7.397970166057348">
        <ele>3043.5</ele>
        <time>2012-07-25T11:17:18Z</time>
      </trkpt>
      <trkpt lat="45.906188925728202" lon="7.398099917918444">
        <ele>3044.4000000000001</ele>
        <time>2012-07-25T11:17:18Z</time>
      </trkpt>
      <trkpt lat="45.906230919063091" lon="7.398290187120438">
        <ele>3045.5</ele>
        <time>2012-07-25T11:17:18Z</time>
      </trkpt>
      <trkpt lat="45.906230919063091" lon="7.398429829627276">
        <ele>3044.3000000000002</ele>
        <time>2012-07-25T11:17:18Z</time>
      </trkpt>
      <trkpt lat="45.906299566850066" lon="7.398550026118755">
        <ele>3044.9000000000001</ele>
        <time>2012-07-25T11:17:18Z</time>
      </trkpt>
      <trkpt lat="45.906318677589297" lon="7.398680197075009">
        <ele>3043.9000000000001</ele>
        <time>2012-07-25T11:17:18Z</time>
      </trkpt>
      <trkpt lat="45.906360587105155" lon="7.398829897865653">
        <ele>3043.3000000000002</ele>
        <time>2012-07-25T11:17:18Z</time>
      </trkpt>
      <trkpt lat="45.906349187716842" lon="7.398980101570487">
        <ele>3041.0999999999999</ele>
        <time>2012-07-25T11:17:18Z</time>
      </trkpt>
      <trkpt lat="45.906341560184956" lon="7.399079762399197">
        <ele>3039.6999999999998</ele>
        <time>2012-07-25T11:17:18Z</time>
      </trkpt>
      <trkpt lat="45.906421691179276" lon="7.399159893393517">
        <ele>3041</ele>
        <time>2012-07-25T11:17:18Z</time>
      </trkpt>
      <trkpt lat="45.906448345631361" lon="7.399290064349771">
        <ele>3039.0999999999999</ele>
        <time>2012-07-25T11:17:18Z</time>
      </trkpt>
      <trkpt lat="45.906551359221339" lon="7.399300122633576">
        <ele>3042.0999999999999</ele>
        <time>2012-07-25T11:17:18Z</time>
      </trkpt>
      <trkpt lat="45.90666962787509" lon="7.399350162595511">
        <ele>3044.9000000000001</ele>
        <time>2012-07-25T11:17:18Z</time>
      </trkpt>
      <trkpt lat="45.906780268996954" lon="7.39942979067564">
        <ele>3049.5</ele>
        <time>2012-07-25T11:17:18Z</time>
      </trkpt>
      <trkpt lat="45.906879426911473" lon="7.399539928883314">
        <ele>3052.8000000000002</ele>
        <time>2012-07-25T11:17:18Z</time>
      </trkpt>
      <trkpt lat="45.906929047778249" lon="7.399670099839568">
        <ele>3052.9000000000001</ele>
        <time>2012-07-25T11:17:18Z</time>
      </trkpt>
      <trkpt lat="45.907028205692768" lon="7.399769760668278">
        <ele>3056.0999999999999</ele>
        <time>2012-07-25T11:17:18Z</time>
      </trkpt>
      <trkpt lat="45.907108336687088" lon="7.399869924411178">
        <ele>3058.0999999999999</ele>
        <time>2012-07-25T11:17:18Z</time>
      </trkpt>
      <trkpt lat="45.907188383862376" lon="7.400000095367432">
        <ele>3059.3000000000002</ele>
        <time>2012-07-25T11:17:18Z</time>
      </trkpt>
      <trkpt lat="45.907291397452354" lon="7.400090200826526">
        <ele>3062.6999999999998</ele>
        <time>2012-07-25T11:17:18Z</time>
      </trkpt>
      <trkpt lat="45.907371528446674" lon="7.400219952687621">
        <ele>3064.0999999999999</ele>
        <time>2012-07-25T11:17:18Z</time>
      </trkpt>
      <trkpt lat="45.907451659440994" lon="7.400299999862909">
        <ele>3066.5</ele>
        <time>2012-07-25T11:17:18Z</time>
      </trkpt>
      <trkpt lat="45.9075584448874" lon="7.400350123643875">
        <ele>3070.8000000000002</ele>
        <time>2012-07-25T11:17:18Z</time>
      </trkpt>
      <trkpt lat="45.907649975270033" lon="7.400410138070583">
        <ele>3074.0999999999999</ele>
        <time>2012-07-25T11:17:18Z</time>
      </trkpt>
      <trkpt lat="45.907688112929463" lon="7.400539889931679">
        <ele>3073.4000000000001</ele>
        <time>2012-07-25T11:17:18Z</time>
      </trkpt>
      <trkpt lat="45.907730106264353" lon="7.400650028139353">
        <ele>3073.3000000000002</ele>
        <time>2012-07-25T11:17:18Z</time>
      </trkpt>
      <trkpt lat="45.907791126519442" lon="7.400730159133673">
        <ele>3074.6999999999998</ele>
        <time>2012-07-25T11:17:18Z</time>
      </trkpt>
      <trkpt lat="45.907871257513762" lon="7.400770224630833">
        <ele>3078</ele>
        <time>2012-07-25T11:17:18Z</time>
      </trkpt>
      <trkpt lat="45.907928505912423" lon="7.400869885459542">
        <ele>3079.4000000000001</ele>
        <time>2012-07-25T11:17:18Z</time>
      </trkpt>
      <trkpt lat="45.908020036295056" lon="7.400899892672896">
        <ele>3083.6999999999998</ele>
        <time>2012-07-25T11:17:18Z</time>
      </trkpt>
      <trkpt lat="45.9080695733428" lon="7.400949932634831">
        <ele>3085.9000000000001</ele>
        <time>2012-07-25T11:17:18Z</time>
      </trkpt>
      <trkpt lat="45.90814970433712" lon="7.40105009637773">
        <ele>3089.0999999999999</ele>
        <time>2012-07-25T11:17:18Z</time>
      </trkpt>
      <trkpt lat="45.908191697672009" lon="7.401140201836824">
        <ele>3090.5</ele>
        <time>2012-07-25T11:17:18Z</time>
      </trkpt>
      <trkpt lat="45.908298483118415" lon="7.40120985545218">
        <ele>3095.0999999999999</ele>
        <time>2012-07-25T11:17:18Z</time>
      </trkpt>
      <trkpt lat="45.90830996632576" lon="7.401360059157014">
        <ele>3094.4000000000001</ele>
        <time>2012-07-25T11:17:18Z</time>
      </trkpt>
      <trkpt lat="45.908290855586529" lon="7.401430131867528">
        <ele>3093</ele>
        <time>2012-07-25T11:17:18Z</time>
      </trkpt>
      <trkpt lat="45.908359503373504" lon="7.401460139080882">
        <ele>3096.0999999999999</ele>
        <time>2012-07-25T11:17:18Z</time>
      </trkpt>
      <trkpt lat="45.908370986580849" lon="7.401519734412432">
        <ele>3096.1999999999998</ele>
        <time>2012-07-25T11:17:18Z</time>
      </trkpt>
      <trkpt lat="45.908378614112735" lon="7.401490230113268">
        <ele>3096.8000000000002</ele>
        <time>2012-07-25T11:17:18Z</time>
      </trkpt>
      <trkpt lat="45.908489255234599" lon="7.401529792696238">
        <ele>3102.0999999999999</ele>
        <time>2012-07-25T11:17:18Z</time>
      </trkpt>
      <trkpt lat="45.908500654622912" lon="7.401589890941978">
        <ele>3102.0999999999999</ele>
        <time>2012-07-25T11:17:18Z</time>
      </trkpt>
      <trkpt lat="45.908561674878001" lon="7.401649989187717">
        <ele>3104.6999999999998</ele>
        <time>2012-07-25T11:17:18Z</time>
      </trkpt>
      <trkpt lat="45.908679943531752" lon="7.401649989187717">
        <ele>3110.5999999999999</ele>
        <time>2012-07-25T11:17:18Z</time>
      </trkpt>
      <trkpt lat="45.908771473914385" lon="7.401689970865846">
        <ele>3115</ele>
        <time>2012-07-25T11:17:18Z</time>
      </trkpt>
      <trkpt lat="45.908710453659296" lon="7.401810167357326">
        <ele>3111.6999999999998</ele>
        <time>2012-07-25T11:17:18Z</time>
      </trkpt>
      <trkpt lat="45.908828722313046" lon="7.401790134608746">
        <ele>3117.1999999999998</ele>
        <time>2012-07-25T11:17:18Z</time>
      </trkpt>
      <trkpt lat="45.908931735903025" lon="7.401770101860166">
        <ele>3122.1999999999998</ele>
        <time>2012-07-25T11:17:18Z</time>
      </trkpt>
      <trkpt lat="45.909050004556775" lon="7.401780160143971">
        <ele>3127.6999999999998</ele>
        <time>2012-07-25T11:17:18Z</time>
      </trkpt>
      <trkpt lat="45.909149162471294" lon="7.4018201418221">
        <ele>3131.8000000000002</ele>
        <time>2012-07-25T11:17:18Z</time>
      </trkpt>
      <trkpt lat="45.909271202981472" lon="7.401909828186035">
        <ele>3135.5</ele>
        <time>2012-07-25T11:17:18Z</time>
      </trkpt>
      <trkpt lat="45.909400954842567" lon="7.401939835399389">
        <ele>3140.4000000000001</ele>
        <time>2012-07-25T11:17:18Z</time>
      </trkpt>
      <trkpt lat="45.909450491890311" lon="7.402030024677515">
        <ele>3140.9000000000001</ele>
        <time>2012-07-25T11:17:18Z</time>
      </trkpt>
      <trkpt lat="45.909549733623862" lon="7.402100097388029">
        <ele>3143.5999999999999</ele>
        <time>2012-07-25T11:17:18Z</time>
      </trkpt>
      <trkpt lat="45.909641264006495" lon="7.402170170098543">
        <ele>3145.9000000000001</ele>
        <time>2012-07-25T11:17:18Z</time>
      </trkpt>
      <trkpt lat="45.909721395000815" lon="7.402299921959639">
        <ele>3146.5999999999999</ele>
        <time>2012-07-25T11:17:18Z</time>
      </trkpt>
      <trkpt lat="45.909778559580445" lon="7.402440067380667">
        <ele>3146</ele>
        <time>2012-07-25T11:17:18Z</time>
      </trkpt>
      <trkpt lat="45.909839663654566" lon="7.402470074594021">
        <ele>3147.5999999999999</ele>
        <time>2012-07-25T11:17:18Z</time>
      </trkpt>
      <trkpt lat="45.909950220957398" lon="7.402460100129247">
        <ele>3152</ele>
        <time>2012-07-25T11:17:18Z</time>
      </trkpt>
      <trkpt lat="45.910041835159063" lon="7.402530172839761">
        <ele>3154.6999999999998</ele>
        <time>2012-07-25T11:17:18Z</time>
      </trkpt>
      <trkpt lat="45.910148620605469" lon="7.402579793706536">
        <ele>3158.5999999999999</ele>
        <time>2012-07-25T11:17:18Z</time>
      </trkpt>
      <trkpt lat="45.910270661115646" lon="7.402619859203696">
        <ele>3162.5</ele>
        <time>2012-07-25T11:17:18Z</time>
      </trkpt>
      <trkpt lat="45.910381302237511" lon="7.402639891952276">
        <ele>3165.9000000000001</ele>
        <time>2012-07-25T11:17:18Z</time>
      </trkpt>
      <trkpt lat="45.910469060763717" lon="7.40264986641705">
        <ele>3168.5</ele>
        <time>2012-07-25T11:17:18Z</time>
      </trkpt>
      <trkpt lat="45.910541564226151" lon="7.402679957449436">
        <ele>3170.1999999999998</ele>
        <time>2012-07-25T11:17:18Z</time>
      </trkpt>
      <trkpt lat="45.91056059114635" lon="7.40268993191421">
        <ele>3170.5999999999999</ele>
        <time>2012-07-25T11:17:18Z</time>
      </trkpt>
      <trkpt lat="45.910568218678236" lon="7.40266989916563">
        <ele>3171.1999999999998</ele>
        <time>2012-07-25T11:17:18Z</time>
      </trkpt>
      <trkpt lat="45.910591101273894" lon="7.40266989916563">
        <ele>3171.9000000000001</ele>
        <time>2012-07-25T11:17:18Z</time>
      </trkpt>
      <trkpt lat="45.910610212013125" lon="7.402659924700856">
        <ele>3172.5999999999999</ele>
        <time>2012-07-25T11:17:18Z</time>
      </trkpt>
      <trkpt lat="45.910629238933325" lon="7.40266989916563">
        <ele>3173</ele>
        <time>2012-07-25T11:17:18Z</time>
      </trkpt>
      <trkpt lat="45.910648349672556" lon="7.402659924700856">
        <ele>3173.8000000000002</ele>
        <time>2012-07-25T11:17:18Z</time>
      </trkpt>
      <trkpt lat="45.910671232268214" lon="7.402659924700856">
        <ele>3174.5</ele>
        <time>2012-07-25T11:17:18Z</time>
      </trkpt>
      <trkpt lat="45.910690343007445" lon="7.402659924700856">
        <ele>3175.0999999999999</ele>
        <time>2012-07-25T11:17:18Z</time>
      </trkpt>
      <trkpt lat="45.910690343007445" lon="7.40266989916563">
        <ele>3174.8000000000002</ele>
        <time>2012-07-25T11:17:18Z</time>
      </trkpt>
      <trkpt lat="45.910709369927645" lon="7.40266989916563">
        <ele>3175.4000000000001</ele>
        <time>2012-07-25T11:17:18Z</time>
      </trkpt>
      <trkpt lat="45.910728480666876" lon="7.40266989916563">
        <ele>3176</ele>
        <time>2012-07-25T11:17:18Z</time>
      </trkpt>
      <trkpt lat="45.910739880055189" lon="7.40268993191421">
        <ele>3175.8000000000002</ele>
        <time>2012-07-25T11:17:18Z</time>
      </trkpt>
      <trkpt lat="45.91075899079442" lon="7.402699906378985">
        <ele>3176.0999999999999</ele>
        <time>2012-07-25T11:17:18Z</time>
      </trkpt>
      <trkpt lat="45.910789500921965" lon="7.40268993191421">
        <ele>3177.3000000000002</ele>
        <time>2012-07-25T11:17:18Z</time>
      </trkpt>
      <trkpt lat="45.910808527842164" lon="7.40270996466279">
        <ele>3177.3000000000002</ele>
        <time>2012-07-25T11:17:18Z</time>
      </trkpt>
      <trkpt lat="45.910831410437822" lon="7.40272999741137">
        <ele>3177.3000000000002</ele>
        <time>2012-07-25T11:17:18Z</time>
      </trkpt>
      <trkpt lat="45.91083912178874" lon="7.40275003015995">
        <ele>3176.9000000000001</ele>
        <time>2012-07-25T11:17:18Z</time>
      </trkpt>
      <trkpt lat="45.91085814870894" lon="7.40275003015995">
        <ele>3177</ele>
        <time>2012-07-25T11:17:18Z</time>
      </trkpt>
      <trkpt lat="45.910869631916285" lon="7.40277006290853">
        <ele>3176.5</ele>
        <time>2012-07-25T11:17:18Z</time>
      </trkpt>
      <trkpt lat="45.91085814870894" lon="7.40279009565711">
        <ele>3175.9000000000001</ele>
        <time>2012-07-25T11:17:18Z</time>
      </trkpt>
      <trkpt lat="45.910881031304598" lon="7.40281012840569">
        <ele>3175.4000000000001</ele>
        <time>2012-07-25T11:17:18Z</time>
      </trkpt>
      <trkpt lat="45.910881031304598" lon="7.40283016115427">
        <ele>3174.8000000000002</ele>
        <time>2012-07-25T11:17:18Z</time>
      </trkpt>
      <trkpt lat="45.910888658836484" lon="7.402820102870464">
        <ele>3175.1999999999998</ele>
        <time>2012-07-25T11:17:18Z</time>
      </trkpt>
      <trkpt lat="45.910888658836484" lon="7.402820102870464">
        <ele>3175.1999999999998</ele>
        <time>2012-07-25T11:17:18Z</time>
      </trkpt>
      <trkpt lat="45.910881031304598" lon="7.40283016115427">
        <ele>3174.8000000000002</ele>
        <time>2012-07-25T11:17:18Z</time>
      </trkpt>
      <trkpt lat="45.910881031304598" lon="7.40281012840569">
        <ele>3175.4000000000001</ele>
        <time>2012-07-25T11:17:18Z</time>
      </trkpt>
      <trkpt lat="45.91085814870894" lon="7.40279009565711">
        <ele>3175.9000000000001</ele>
        <time>2012-07-25T11:17:18Z</time>
      </trkpt>
      <trkpt lat="45.910869631916285" lon="7.40277006290853">
        <ele>3176.5</ele>
        <time>2012-07-25T11:17:18Z</time>
      </trkpt>
      <trkpt lat="45.91085814870894" lon="7.40275003015995">
        <ele>3177</ele>
        <time>2012-07-25T11:17:18Z</time>
      </trkpt>
      <trkpt lat="45.91083912178874" lon="7.40275003015995">
        <ele>3176.9000000000001</ele>
        <time>2012-07-25T11:17:18Z</time>
      </trkpt>
      <trkpt lat="45.910831410437822" lon="7.40272999741137">
        <ele>3177.3000000000002</ele>
        <time>2012-07-25T11:17:18Z</time>
      </trkpt>
      <trkpt lat="45.910808527842164" lon="7.40270996466279">
        <ele>3177.3000000000002</ele>
        <time>2012-07-25T11:17:18Z</time>
      </trkpt>
      <trkpt lat="45.910789500921965" lon="7.40268993191421">
        <ele>3177.3000000000002</ele>
        <time>2012-07-25T11:17:18Z</time>
      </trkpt>
      <trkpt lat="45.91075899079442" lon="7.402699906378985">
        <ele>3176.0999999999999</ele>
        <time>2012-07-25T11:17:18Z</time>
      </trkpt>
      <trkpt lat="45.910739880055189" lon="7.40268993191421">
        <ele>3175.8000000000002</ele>
        <time>2012-07-25T11:17:18Z</time>
      </trkpt>
      <trkpt lat="45.910728480666876" lon="7.40266989916563">
        <ele>3176</ele>
        <time>2012-07-25T11:17:18Z</time>
      </trkpt>
      <trkpt lat="45.910709369927645" lon="7.40266989916563">
        <ele>3175.4000000000001</ele>
        <time>2012-07-25T11:17:18Z</time>
      </trkpt>
      <trkpt lat="45.910690343007445" lon="7.40266989916563">
        <ele>3174.8000000000002</ele>
        <time>2012-07-25T11:17:18Z</time>
      </trkpt>
      <trkpt lat="45.910690343007445" lon="7.402659924700856">
        <ele>3175.0999999999999</ele>
        <time>2012-07-25T11:17:18Z</time>
      </trkpt>
      <trkpt lat="45.910671232268214" lon="7.402659924700856">
        <ele>3174.5</ele>
        <time>2012-07-25T11:17:18Z</time>
      </trkpt>
      <trkpt lat="45.910648349672556" lon="7.402659924700856">
        <ele>3173.8000000000002</ele>
        <time>2012-07-25T11:17:18Z</time>
      </trkpt>
      <trkpt lat="45.910629238933325" lon="7.40266989916563">
        <ele>3173</ele>
        <time>2012-07-25T11:17:18Z</time>
      </trkpt>
      <trkpt lat="45.910610212013125" lon="7.402659924700856">
        <ele>3172.5999999999999</ele>
        <time>2012-07-25T11:17:18Z</time>
      </trkpt>
      <trkpt lat="45.910591101273894" lon="7.40266989916563">
        <ele>3171.9000000000001</ele>
        <time>2012-07-25T11:17:18Z</time>
      </trkpt>
      <trkpt lat="45.910568218678236" lon="7.40266989916563">
        <ele>3171.1999999999998</ele>
        <time>2012-07-25T11:17:18Z</time>
      </trkpt>
      <trkpt lat="45.91056059114635" lon="7.40268993191421">
        <ele>3170.5999999999999</ele>
        <time>2012-07-25T11:17:18Z</time>
      </trkpt>
      <trkpt lat="45.910541564226151" lon="7.402679957449436">
        <ele>3170.1999999999998</ele>
        <time>2012-07-25T11:17:18Z</time>
      </trkpt>
      <trkpt lat="45.910469060763717" lon="7.40264986641705">
        <ele>3168.5</ele>
        <time>2012-07-25T11:17:18Z</time>
      </trkpt>
      <trkpt lat="45.910381302237511" lon="7.402639891952276">
        <ele>3165.9000000000001</ele>
        <time>2012-07-25T11:17:18Z</time>
      </trkpt>
      <trkpt lat="45.910270661115646" lon="7.402619859203696">
        <ele>3162.5</ele>
        <time>2012-07-25T11:17:18Z</time>
      </trkpt>
      <trkpt lat="45.910148620605469" lon="7.402579793706536">
        <ele>3158.5999999999999</ele>
        <time>2012-07-25T11:17:18Z</time>
      </trkpt>
      <trkpt lat="45.910041835159063" lon="7.402530172839761">
        <ele>3154.6999999999998</ele>
        <time>2012-07-25T11:17:18Z</time>
      </trkpt>
      <trkpt lat="45.909950220957398" lon="7.402460100129247">
        <ele>3152</ele>
        <time>2012-07-25T11:17:18Z</time>
      </trkpt>
      <trkpt lat="45.909839663654566" lon="7.402470074594021">
        <ele>3147.5999999999999</ele>
        <time>2012-07-25T11:17:18Z</time>
      </trkpt>
      <trkpt lat="45.909778559580445" lon="7.402440067380667">
        <ele>3146</ele>
        <time>2012-07-25T11:17:18Z</time>
      </trkpt>
      <trkpt lat="45.909721395000815" lon="7.402299921959639">
        <ele>3146.5999999999999</ele>
        <time>2012-07-25T11:17:18Z</time>
      </trkpt>
      <trkpt lat="45.909641264006495" lon="7.402170170098543">
        <ele>3145.9000000000001</ele>
        <time>2012-07-25T11:17:18Z</time>
      </trkpt>
      <trkpt lat="45.909549733623862" lon="7.402100097388029">
        <ele>3143.5999999999999</ele>
        <time>2012-07-25T11:17:18Z</time>
      </trkpt>
      <trkpt lat="45.909450491890311" lon="7.402030024677515">
        <ele>3140.9000000000001</ele>
        <time>2012-07-25T11:17:18Z</time>
      </trkpt>
      <trkpt lat="45.909400954842567" lon="7.401939835399389">
        <ele>3140.4000000000001</ele>
        <time>2012-07-25T11:17:18Z</time>
      </trkpt>
      <trkpt lat="45.909271202981472" lon="7.401909828186035">
        <ele>3135.5</ele>
        <time>2012-07-25T11:17:18Z</time>
      </trkpt>
      <trkpt lat="45.909149162471294" lon="7.4018201418221">
        <ele>3131.8000000000002</ele>
        <time>2012-07-25T11:17:18Z</time>
      </trkpt>
      <trkpt lat="45.909050004556775" lon="7.401780160143971">
        <ele>3127.6999999999998</ele>
        <time>2012-07-25T11:17:18Z</time>
      </trkpt>
      <trkpt lat="45.908931735903025" lon="7.401770101860166">
        <ele>3122.1999999999998</ele>
        <time>2012-07-25T11:17:18Z</time>
      </trkpt>
      <trkpt lat="45.908828722313046" lon="7.401790134608746">
        <ele>3117.1999999999998</ele>
        <time>2012-07-25T11:17:18Z</time>
      </trkpt>
      <trkpt lat="45.908710453659296" lon="7.401810167357326">
        <ele>3111.6999999999998</ele>
        <time>2012-07-25T11:17:18Z</time>
      </trkpt>
      <trkpt lat="45.908771473914385" lon="7.401689970865846">
        <ele>3115</ele>
        <time>2012-07-25T11:17:18Z</time>
      </trkpt>
      <trkpt lat="45.908679943531752" lon="7.401649989187717">
        <ele>3110.5999999999999</ele>
        <time>2012-07-25T11:17:18Z</time>
      </trkpt>
      <trkpt lat="45.908561674878001" lon="7.401649989187717">
        <ele>3104.6999999999998</ele>
        <time>2012-07-25T11:17:18Z</time>
      </trkpt>
      <trkpt lat="45.908500654622912" lon="7.401589890941978">
        <ele>3102.0999999999999</ele>
        <time>2012-07-25T11:17:18Z</time>
      </trkpt>
      <trkpt lat="45.908489255234599" lon="7.401529792696238">
        <ele>3102.0999999999999</ele>
        <time>2012-07-25T11:17:18Z</time>
      </trkpt>
      <trkpt lat="45.908378614112735" lon="7.401490230113268">
        <ele>3096.8000000000002</ele>
        <time>2012-07-25T11:17:18Z</time>
      </trkpt>
      <trkpt lat="45.908370986580849" lon="7.401519734412432">
        <ele>3096.1999999999998</ele>
        <time>2012-07-25T11:17:18Z</time>
      </trkpt>
      <trkpt lat="45.908359503373504" lon="7.401460139080882">
        <ele>3096.0999999999999</ele>
        <time>2012-07-25T11:17:18Z</time>
      </trkpt>
      <trkpt lat="45.908290855586529" lon="7.401430131867528">
        <ele>3093</ele>
        <time>2012-07-25T11:17:18Z</time>
      </trkpt>
      <trkpt lat="45.90830996632576" lon="7.401360059157014">
        <ele>3094.4000000000001</ele>
        <time>2012-07-25T11:17:18Z</time>
      </trkpt>
      <trkpt lat="45.908298483118415" lon="7.40120985545218">
        <ele>3095.0999999999999</ele>
        <time>2012-07-25T11:17:18Z</time>
      </trkpt>
      <trkpt lat="45.908191697672009" lon="7.401140201836824">
        <ele>3090.5</ele>
        <time>2012-07-25T11:17:18Z</time>
      </trkpt>
      <trkpt lat="45.90814970433712" lon="7.40105009637773">
        <ele>3089.0999999999999</ele>
        <time>2012-07-25T11:17:18Z</time>
      </trkpt>
      <trkpt lat="45.9080695733428" lon="7.400949932634831">
        <ele>3085.9000000000001</ele>
        <time>2012-07-25T11:17:18Z</time>
      </trkpt>
      <trkpt lat="45.908020036295056" lon="7.400899892672896">
        <ele>3083.6999999999998</ele>
        <time>2012-07-25T11:17:18Z</time>
      </trkpt>
      <trkpt lat="45.907928505912423" lon="7.400869885459542">
        <ele>3079.4000000000001</ele>
        <time>2012-07-25T11:17:18Z</time>
      </trkpt>
      <trkpt lat="45.907871257513762" lon="7.400770224630833">
        <ele>3078</ele>
        <time>2012-07-25T11:17:18Z</time>
      </trkpt>
      <trkpt lat="45.907791126519442" lon="7.400730159133673">
        <ele>3074.6999999999998</ele>
        <time>2012-07-25T11:17:18Z</time>
      </trkpt>
      <trkpt lat="45.907730106264353" lon="7.400650028139353">
        <ele>3073.3000000000002</ele>
        <time>2012-07-25T11:17:18Z</time>
      </trkpt>
      <trkpt lat="45.907688112929463" lon="7.400539889931679">
        <ele>3073.4000000000001</ele>
        <time>2012-07-25T11:17:18Z</time>
      </trkpt>
      <trkpt lat="45.907649975270033" lon="7.400410138070583">
        <ele>3074.0999999999999</ele>
        <time>2012-07-25T11:17:18Z</time>
      </trkpt>
      <trkpt lat="45.9075584448874" lon="7.400350123643875">
        <ele>3070.8000000000002</ele>
        <time>2012-07-25T11:17:18Z</time>
      </trkpt>
      <trkpt lat="45.907451659440994" lon="7.400299999862909">
        <ele>3066.5</ele>
        <time>2012-07-25T11:17:18Z</time>
      </trkpt>
      <trkpt lat="45.907371528446674" lon="7.400219952687621">
        <ele>3064.0999999999999</ele>
        <time>2012-07-25T11:17:18Z</time>
      </trkpt>
      <trkpt lat="45.907291397452354" lon="7.400090200826526">
        <ele>3062.6999999999998</ele>
        <time>2012-07-25T11:17:18Z</time>
      </trkpt>
      <trkpt lat="45.907188383862376" lon="7.400000095367432">
        <ele>3059.3000000000002</ele>
        <time>2012-07-25T11:17:18Z</time>
      </trkpt>
      <trkpt lat="45.907108336687088" lon="7.399869924411178">
        <ele>3058.0999999999999</ele>
        <time>2012-07-25T11:17:18Z</time>
      </trkpt>
      <trkpt lat="45.907028205692768" lon="7.399769760668278">
        <ele>3056.0999999999999</ele>
        <time>2012-07-25T11:17:18Z</time>
      </trkpt>
      <trkpt lat="45.906929047778249" lon="7.399670099839568">
        <ele>3052.9000000000001</ele>
        <time>2012-07-25T11:17:18Z</time>
      </trkpt>
      <trkpt lat="45.906879426911473" lon="7.399539928883314">
        <ele>3052.8000000000002</ele>
        <time>2012-07-25T11:17:18Z</time>
      </trkpt>
      <trkpt lat="45.906780268996954" lon="7.39942979067564">
        <ele>3049.5</ele>
        <time>2012-07-25T11:17:18Z</time>
      </trkpt>
      <trkpt lat="45.90666962787509" lon="7.399350162595511">
        <ele>3044.9000000000001</ele>
        <time>2012-07-25T11:17:18Z</time>
      </trkpt>
      <trkpt lat="45.906551359221339" lon="7.399300122633576">
        <ele>3042.0999999999999</ele>
        <time>2012-07-25T11:17:18Z</time>
      </trkpt>
      <trkpt lat="45.906448345631361" lon="7.399290064349771">
        <ele>3039.0999999999999</ele>
        <time>2012-07-25T11:17:18Z</time>
      </trkpt>
      <trkpt lat="45.906421691179276" lon="7.399159893393517">
        <ele>3041</ele>
        <time>2012-07-25T11:17:18Z</time>
      </trkpt>
      <trkpt lat="45.906341560184956" lon="7.399079762399197">
        <ele>3039.6999999999998</ele>
        <time>2012-07-25T11:17:18Z</time>
      </trkpt>
      <trkpt lat="45.906349187716842" lon="7.398980101570487">
        <ele>3041.0999999999999</ele>
        <time>2012-07-25T11:17:18Z</time>
      </trkpt>
      <trkpt lat="45.906360587105155" lon="7.398829897865653">
        <ele>3043.3000000000002</ele>
        <time>2012-07-25T11:17:18Z</time>
      </trkpt>
      <trkpt lat="45.906318677589297" lon="7.398680197075009">
        <ele>3043.9000000000001</ele>
        <time>2012-07-25T11:17:18Z</time>
      </trkpt>
      <trkpt lat="45.906299566850066" lon="7.398550026118755">
        <ele>3044.9000000000001</ele>
        <time>2012-07-25T11:17:18Z</time>
      </trkpt>
      <trkpt lat="45.906230919063091" lon="7.398429829627276">
        <ele>3044.3000000000002</ele>
        <time>2012-07-25T11:17:18Z</time>
      </trkpt>
      <trkpt lat="45.906230919063091" lon="7.398290187120438">
        <ele>3045.5</ele>
        <time>2012-07-25T11:17:18Z</time>
      </trkpt>
      <trkpt lat="45.906188925728202" lon="7.398099917918444">
        <ele>3044.4000000000001</ele>
        <time>2012-07-25T11:17:18Z</time>
      </trkpt>
      <trkpt lat="45.906158415600657" lon="7.397970166057348">
        <ele>3043.5</ele>
        <time>2012-07-25T11:17:18Z</time>
      </trkpt>
      <trkpt lat="45.906051630154252" lon="7.397960191592574">
        <ele>3039.6999999999998</ele>
        <time>2012-07-25T11:17:18Z</time>
      </trkpt>
      <trkpt lat="45.905929589644074" lon="7.397900093346834">
        <ele>3035.4000000000001</ele>
        <time>2012-07-25T11:17:18Z</time>
      </trkpt>
      <trkpt lat="45.905830347910523" lon="7.397880060598254">
        <ele>3031.9000000000001</ele>
        <time>2012-07-25T11:17:18Z</time>
      </trkpt>
      <trkpt lat="45.905719790607691" lon="7.397799929603934">
        <ele>3030.5</ele>
        <time>2012-07-25T11:17:18Z</time>
      </trkpt>
      <trkpt lat="45.905628176406026" lon="7.39766975864768">
        <ele>3029.5</ele>
        <time>2012-07-25T11:17:18Z</time>
      </trkpt>
      <trkpt lat="45.905540501698852" lon="7.397610163316131">
        <ele>3028.6999999999998</ele>
        <time>2012-07-25T11:17:18Z</time>
      </trkpt>
      <trkpt lat="45.905399350449443" lon="7.397610163316131">
        <ele>3027.5</ele>
        <time>2012-07-25T11:17:18Z</time>
      </trkpt>
      <trkpt lat="45.905311591923237" lon="7.397530116140842">
        <ele>3027.0999999999999</ele>
        <time>2012-07-25T11:17:18Z</time>
      </trkpt>
      <trkpt lat="45.905208578333259" lon="7.397449985146523">
        <ele>3026.1999999999998</ele>
        <time>2012-07-25T11:17:18Z</time>
      </trkpt>
      <trkpt lat="45.905128447338939" lon="7.397399861365557">
        <ele>3025.0999999999999</ele>
        <time>2012-07-25T11:17:18Z</time>
      </trkpt>
      <trkpt lat="45.905208578333259" lon="7.397459959611297">
        <ele>3026.1999999999998</ele>
        <time>2012-07-25T11:17:18Z</time>
      </trkpt>
      <trkpt lat="45.905288709327579" lon="7.397419894114137">
        <ele>3026.5999999999999</ele>
        <time>2012-07-25T11:17:18Z</time>
      </trkpt>
      <trkpt lat="45.905269598588347" lon="7.397409919649363">
        <ele>3026.4000000000001</ele>
        <time>2012-07-25T11:17:18Z</time>
      </trkpt>
      <trkpt lat="45.905239088460803" lon="7.397409919649363">
        <ele>3026.0999999999999</ele>
        <time>2012-07-25T11:17:18Z</time>
      </trkpt>
      <trkpt lat="45.905139930546284" lon="7.397459959611297">
        <ele>3025.6999999999998</ele>
        <time>2012-07-25T11:17:18Z</time>
      </trkpt>
      <trkpt lat="45.905040772631764" lon="7.397510083392263">
        <ele>3025.1999999999998</ele>
        <time>2012-07-25T11:17:18Z</time>
      </trkpt>
      <trkpt lat="45.904949158430099" lon="7.397419894114137">
        <ele>3023.5</ele>
        <time>2012-07-25T11:17:18Z</time>
      </trkpt>
      <trkpt lat="45.904861483722925" lon="7.397329788655043">
        <ele>3021.6999999999998</ele>
        <time>2012-07-25T11:17:18Z</time>
      </trkpt>
      <trkpt lat="45.904861483722925" lon="7.397170029580593">
        <ele>3020.5999999999999</ele>
        <time>2012-07-25T11:17:18Z</time>
      </trkpt>
      <trkpt lat="45.90481186285615" lon="7.397069949656725">
        <ele>3019.5999999999999</ele>
        <time>2012-07-25T11:17:18Z</time>
      </trkpt>
      <trkpt lat="45.904678339138627" lon="7.397029884159565">
        <ele>3018.5</ele>
        <time>2012-07-25T11:17:18Z</time>
      </trkpt>
      <trkpt lat="45.904621090739965" lon="7.396870125085115">
        <ele>3017.9000000000001</ele>
        <time>2012-07-25T11:17:18Z</time>
      </trkpt>
      <trkpt lat="45.904541043564677" lon="7.396780019626021">
        <ele>3017.5999999999999</ele>
        <time>2012-07-25T11:17:18Z</time>
      </trkpt>
      <trkpt lat="45.904449429363012" lon="7.396679855883122">
        <ele>3017.5999999999999</ele>
        <time>2012-07-25T11:17:18Z</time>
      </trkpt>
      <trkpt lat="45.904380781576037" lon="7.396570220589638">
        <ele>3017.5</ele>
        <time>2012-07-25T11:17:18Z</time>
      </trkpt>
      <trkpt lat="45.904281623661518" lon="7.396470056846738">
        <ele>3017.4000000000001</ele>
        <time>2012-07-25T11:17:18Z</time>
      </trkpt>
      <trkpt lat="45.904201492667198" lon="7.396379951387644">
        <ele>3017.3000000000002</ele>
        <time>2012-07-25T11:17:18Z</time>
      </trkpt>
      <trkpt lat="45.904109962284565" lon="7.396240225061774">
        <ele>3016</ele>
        <time>2012-07-25T11:17:18Z</time>
      </trkpt>
      <trkpt lat="45.904010804370046" lon="7.39619018509984">
        <ele>3014.3000000000002</ele>
        <time>2012-07-25T11:17:18Z</time>
      </trkpt>
      <trkpt lat="45.903919190168381" lon="7.39609002135694">
        <ele>3012.6999999999998</ele>
        <time>2012-07-25T11:17:18Z</time>
      </trkpt>
      <trkpt lat="45.903820032253861" lon="7.395999915897846">
        <ele>3011.0999999999999</ele>
        <time>2012-07-25T11:17:18Z</time>
      </trkpt>
      <trkpt lat="45.903720874339342" lon="7.395919784903526">
        <ele>3009.5999999999999</ele>
        <time>2012-07-25T11:17:18Z</time>
      </trkpt>
      <trkpt lat="45.903629343956709" lon="7.395810149610043">
        <ele>3007.9000000000001</ele>
        <time>2012-07-25T11:17:18Z</time>
      </trkpt>
      <trkpt lat="45.903541585430503" lon="7.395709985867143">
        <ele>3005.3000000000002</ele>
        <time>2012-07-25T11:17:18Z</time>
      </trkpt>
      <trkpt lat="45.903469081968069" lon="7.395579814910889">
        <ele>3002.8000000000002</ele>
        <time>2012-07-25T11:17:18Z</time>
      </trkpt>
      <trkpt lat="45.903430944308639" lon="7.395440088585019">
        <ele>3000.6999999999998</ele>
        <time>2012-07-25T11:17:18Z</time>
      </trkpt>
      <trkpt lat="45.903388950973749" lon="7.395309917628765">
        <ele>2998.8000000000002</ele>
        <time>2012-07-25T11:17:18Z</time>
      </trkpt>
      <trkpt lat="45.903469081968069" lon="7.395160216838121">
        <ele>2997.5</ele>
        <time>2012-07-25T11:17:18Z</time>
      </trkpt>
      <trkpt lat="45.903480565175414" lon="7.394999954849482">
        <ele>2995.5</ele>
        <time>2012-07-25T11:17:18Z</time>
      </trkpt>
      <trkpt lat="45.903511075302958" lon="7.394849751144648">
        <ele>2991.6999999999998</ele>
        <time>2012-07-25T11:17:18Z</time>
      </trkpt>
      <trkpt lat="45.903430944308639" lon="7.394720083102584">
        <ele>2988</ele>
        <time>2012-07-25T11:17:18Z</time>
      </trkpt>
      <trkpt lat="45.903339413926005" lon="7.39462997764349">
        <ele>2985.3000000000002</ele>
        <time>2012-07-25T11:17:18Z</time>
      </trkpt>
      <trkpt lat="45.903221145272255" lon="7.39456987939775">
        <ele>2981.9000000000001</ele>
        <time>2012-07-25T11:17:18Z</time>
      </trkpt>
      <trkpt lat="45.903118131682277" lon="7.394499806687236">
        <ele>2978.5999999999999</ele>
        <time>2012-07-25T11:17:18Z</time>
      </trkpt>
      <trkpt lat="45.903011346235871" lon="7.39448974840343">
        <ele>2976.9000000000001</ele>
        <time>2012-07-25T11:17:18Z</time>
      </trkpt>
      <trkpt lat="45.902980836108327" lon="7.394380113109946">
        <ele>2974.3000000000002</ele>
        <time>2012-07-25T11:17:18Z</time>
      </trkpt>
      <trkpt lat="45.902919732034206" lon="7.394229909405112">
        <ele>2970.6999999999998</ele>
        <time>2012-07-25T11:17:18Z</time>
      </trkpt>
      <trkpt lat="45.902828201651573" lon="7.394179785624147">
        <ele>2969</ele>
        <time>2012-07-25T11:17:18Z</time>
      </trkpt>
      <trkpt lat="45.902778664603829" lon="7.394060175865889">
        <ele>2963.5</ele>
        <time>2012-07-25T11:17:18Z</time>
      </trkpt>
      <trkpt lat="45.902671795338392" lon="7.394040143117309">
        <ele>2961.9000000000001</ele>
        <time>2012-07-25T11:17:18Z</time>
      </trkpt>
      <trkpt lat="45.902568781748414" lon="7.394060175865889">
        <ele>2962</ele>
        <time>2012-07-25T11:17:18Z</time>
      </trkpt>
      <trkpt lat="45.902469623833895" lon="7.393939979374409">
        <ele>2955.9000000000001</ele>
        <time>2012-07-25T11:17:18Z</time>
      </trkpt>
      <trkpt lat="45.902351355180144" lon="7.393919946625829">
        <ele>2953.0999999999999</ele>
        <time>2012-07-25T11:17:18Z</time>
      </trkpt>
      <trkpt lat="45.902248341590166" lon="7.393809808418155">
        <ele>2947.9000000000001</ele>
        <time>2012-07-25T11:17:18Z</time>
      </trkpt>
      <trkpt lat="45.902160666882992" lon="7.393760187551379">
        <ele>2945.3000000000002</ele>
        <time>2012-07-25T11:17:18Z</time>
      </trkpt>
      <trkpt lat="45.902069052681327" lon="7.393670082092285">
        <ele>2942.0999999999999</ele>
        <time>2012-07-25T11:17:18Z</time>
      </trkpt>
      <trkpt lat="45.901969894766808" lon="7.393620042130351">
        <ele>2940.3000000000002</ele>
        <time>2012-07-25T11:17:18Z</time>
      </trkpt>
      <trkpt lat="45.901870736852288" lon="7.393529852852225">
        <ele>2938.1999999999998</ele>
        <time>2012-07-25T11:17:18Z</time>
      </trkpt>
      <trkpt lat="45.901760095730424" lon="7.393439747393131">
        <ele>2936.8000000000002</ele>
        <time>2012-07-25T11:17:18Z</time>
      </trkpt>
      <trkpt lat="45.901660937815905" lon="7.393390210345388">
        <ele>2936.5</ele>
        <time>2012-07-25T11:17:18Z</time>
      </trkpt>
      <trkpt lat="45.901569407433271" lon="7.393290046602488">
        <ele>2933.3000000000002</ele>
        <time>2012-07-25T11:17:18Z</time>
      </trkpt>
      <trkpt lat="45.901458766311407" lon="7.393229948356748">
        <ele>2930.1999999999998</ele>
        <time>2012-07-25T11:17:18Z</time>
      </trkpt>
      <trkpt lat="45.9013900347054" lon="7.393070189282298">
        <ele>2924.3000000000002</ele>
        <time>2012-07-25T11:17:18Z</time>
      </trkpt>
      <trkpt lat="45.901279477402568" lon="7.39297010935843">
        <ele>2921.1999999999998</ele>
        <time>2012-07-25T11:17:18Z</time>
      </trkpt>
      <trkpt lat="45.901199346408248" lon="7.392839938402176">
        <ele>2917.9000000000001</ele>
        <time>2012-07-25T11:17:18Z</time>
      </trkpt>
      <trkpt lat="45.901100188493729" lon="7.392730219289661">
        <ele>2916.0999999999999</ele>
        <time>2012-07-25T11:17:18Z</time>
      </trkpt>
      <trkpt lat="45.900981919839978" lon="7.392700212076306">
        <ele>2916.9000000000001</ele>
        <time>2012-07-25T11:17:18Z</time>
      </trkpt>
      <trkpt lat="45.900890389457345" lon="7.392620081081986">
        <ele>2916.8000000000002</ele>
        <time>2012-07-25T11:17:18Z</time>
      </trkpt>
      <trkpt lat="45.900848396122456" lon="7.392479935660958">
        <ele>2914.6999999999998</ele>
        <time>2012-07-25T11:17:18Z</time>
      </trkpt>
      <trkpt lat="45.900749238207936" lon="7.392409779131413">
        <ele>2910.0999999999999</ele>
        <time>2012-07-25T11:17:18Z</time>
      </trkpt>
      <trkpt lat="45.900688134133816" lon="7.392270052805543">
        <ele>2903.1999999999998</ele>
        <time>2012-07-25T11:17:18Z</time>
      </trkpt>
      <trkpt lat="45.900611858814955" lon="7.392159914597869">
        <ele>2898.3000000000002</ele>
        <time>2012-07-25T11:17:18Z</time>
      </trkpt>
      <trkpt lat="45.900531727820635" lon="7.392049776390195">
        <ele>2894.1999999999998</ele>
        <time>2012-07-25T11:17:18Z</time>
      </trkpt>
      <trkpt lat="45.900440197438002" lon="7.391940141096711">
        <ele>2891.0999999999999</ele>
        <time>2012-07-25T11:17:18Z</time>
      </trkpt>
      <trkpt lat="45.900348667055368" lon="7.391850035637617">
        <ele>2889.4000000000001</ele>
        <time>2012-07-25T11:17:18Z</time>
      </trkpt>
      <trkpt lat="45.900260908529162" lon="7.391759846359491">
        <ele>2888.5999999999999</ele>
        <time>2012-07-25T11:17:18Z</time>
      </trkpt>
      <trkpt lat="45.900188405066729" lon="7.391620120033622">
        <ele>2886.5999999999999</ele>
        <time>2012-07-25T11:17:18Z</time>
      </trkpt>
      <trkpt lat="45.900100730359554" lon="7.391509981825948">
        <ele>2885.3000000000002</ele>
        <time>2012-07-25T11:17:18Z</time>
      </trkpt>
      <trkpt lat="45.90002822689712" lon="7.391399843618274">
        <ele>2884.4000000000001</ele>
        <time>2012-07-25T11:17:18Z</time>
      </trkpt>
      <trkpt lat="45.899929068982601" lon="7.391300182789564">
        <ele>2882</ele>
        <time>2012-07-25T11:17:18Z</time>
      </trkpt>
      <trkpt lat="45.89987182058394" lon="7.39132977090776">
        <ele>2882</ele>
        <time>2012-07-25T11:17:18Z</time>
      </trkpt>
      <trkpt lat="45.899799317121506" lon="7.39123011007905">
        <ele>2879.5</ele>
        <time>2012-07-25T11:17:18Z</time>
      </trkpt>
      <trkpt lat="45.899539981037378" lon="7.39108988083899">
        <ele>2876.8000000000002</ele>
        <time>2012-07-25T11:17:18Z</time>
      </trkpt>
      <trkpt lat="45.899551380425692" lon="7.39108988083899">
        <ele>2876.8000000000002</ele>
        <time>2012-07-25T07:04:28Z</time>
      </trkpt>
      <trkpt lat="45.899551380425692" lon="7.391079906374216">
        <ele>2876.6999999999998</ele>
        <time>2012-07-25T07:04:28Z</time>
      </trkpt>
      <trkpt lat="45.899539981037378" lon="7.391059873625636">
        <ele>2876.5999999999999</ele>
        <time>2012-07-25T07:04:28Z</time>
      </trkpt>
      <trkpt lat="45.899539981037378" lon="7.391039840877056">
        <ele>2876.5</ele>
        <time>2012-07-25T07:04:28Z</time>
      </trkpt>
      <trkpt lat="45.899539981037378" lon="7.391039840877056">
        <ele>2876.5</ele>
        <time>2012-07-25T07:04:28Z</time>
      </trkpt>
      <trkpt lat="45.899520870298147" lon="7.391039840877056">
        <ele>2876.5</ele>
        <time>2012-07-25T07:04:28Z</time>
      </trkpt>
      <trkpt lat="45.899501759558916" lon="7.391049899160862">
        <ele>2876.5999999999999</ele>
        <time>2012-07-25T07:04:28Z</time>
      </trkpt>
      <trkpt lat="45.899478876963258" lon="7.391049899160862">
        <ele>2876.5999999999999</ele>
        <time>2012-07-25T07:04:28Z</time>
      </trkpt>
      <trkpt lat="45.899471249431372" lon="7.391029866412282">
        <ele>2876.5</ele>
        <time>2012-07-25T07:04:28Z</time>
      </trkpt>
      <trkpt lat="45.899448366835713" lon="7.391039840877056">
        <ele>2876.5999999999999</ele>
        <time>2012-07-25T07:04:28Z</time>
      </trkpt>
      <trkpt lat="45.899429339915514" lon="7.391039840877056">
        <ele>2876.5999999999999</ele>
        <time>2012-07-25T07:04:28Z</time>
      </trkpt>
      <trkpt lat="45.899410229176283" lon="7.391019808128476">
        <ele>2876.5999999999999</ele>
        <time>2012-07-25T07:04:28Z</time>
      </trkpt>
      <trkpt lat="45.899391202256083" lon="7.391009833663702">
        <ele>2876.6999999999998</ele>
        <time>2012-07-25T07:04:28Z</time>
      </trkpt>
      <trkpt lat="45.899368319660425" lon="7.391009833663702">
        <ele>2876.6999999999998</ele>
        <time>2012-07-25T07:04:28Z</time>
      </trkpt>
      <trkpt lat="45.899349208921194" lon="7.390999775379896">
        <ele>2876.8000000000002</ele>
        <time>2012-07-25T07:04:28Z</time>
      </trkpt>
      <trkpt lat="45.899330098181963" lon="7.390989800915122">
        <ele>2876.8000000000002</ele>
        <time>2012-07-25T07:04:28Z</time>
      </trkpt>
      <trkpt lat="45.89931869879365" lon="7.390970271080732">
        <ele>2877</ele>
        <time>2012-07-25T07:04:28Z</time>
      </trkpt>
      <trkpt lat="45.899299588054419" lon="7.390970271080732">
        <ele>2877</ele>
        <time>2012-07-25T07:04:28Z</time>
      </trkpt>
      <trkpt lat="45.899299588054419" lon="7.390950238332152">
        <ele>2877.0999999999999</ele>
        <time>2012-07-25T07:04:28Z</time>
      </trkpt>
      <trkpt lat="45.899280561134219" lon="7.390930205583572">
        <ele>2877.3000000000002</ele>
        <time>2012-07-25T07:04:28Z</time>
      </trkpt>
      <trkpt lat="45.899261450394988" lon="7.390930205583572">
        <ele>2877.4000000000001</ele>
        <time>2012-07-25T07:04:28Z</time>
      </trkpt>
      <trkpt lat="45.899261450394988" lon="7.390950238332152">
        <ele>2877.3000000000002</ele>
        <time>2012-07-25T07:04:28Z</time>
      </trkpt>
      <trkpt lat="45.89923856779933" lon="7.390950238332152">
        <ele>2877.4000000000001</ele>
        <time>2012-07-25T07:04:28Z</time>
      </trkpt>
      <trkpt lat="45.899189030751586" lon="7.390979742631316">
        <ele>2877.3000000000002</ele>
        <time>2012-07-25T07:04:28Z</time>
      </trkpt>
      <trkpt lat="45.899070762097836" lon="7.390930205583572">
        <ele>2874.4000000000001</ele>
        <time>2012-07-25T07:04:28Z</time>
      </trkpt>
      <trkpt lat="45.898899100720882" lon="7.390810009092093">
        <ele>2869.4000000000001</ele>
        <time>2012-07-25T07:04:28Z</time>
      </trkpt>
      <trkpt lat="45.899028768762946" lon="7.390830041840673">
        <ele>2874</ele>
        <time>2012-07-25T07:04:28Z</time>
      </trkpt>
      <trkpt lat="45.899040251970291" lon="7.390900114551187">
        <ele>2873.6999999999998</ele>
        <time>2012-07-25T07:04:28Z</time>
      </trkpt>
      <trkpt lat="45.898841852322221" lon="7.390830041840673">
        <ele>2867.3000000000002</ele>
        <time>2012-07-25T07:04:28Z</time>
      </trkpt>
      <trkpt lat="45.898639680817723" lon="7.390749910846353">
        <ele>2861.1999999999998</ele>
        <time>2012-07-25T07:04:28Z</time>
      </trkpt>
      <trkpt lat="45.898410771042109" lon="7.390679838135839">
        <ele>2855.9000000000001</ele>
        <time>2012-07-25T07:04:28Z</time>
      </trkpt>
      <trkpt lat="45.898178089410067" lon="7.390649830922484">
        <ele>2846.0999999999999</ele>
        <time>2012-07-25T07:04:28Z</time>
      </trkpt>
      <trkpt lat="45.898090330883861" lon="7.390689812600613">
        <ele>2840.0999999999999</ele>
        <time>2012-07-25T07:04:28Z</time>
      </trkpt>
      <trkpt lat="45.898059820756316" lon="7.390649830922484">
        <ele>2839.5999999999999</ele>
        <time>2012-07-25T07:04:28Z</time>
      </trkpt>
      <trkpt lat="45.897899642586708" lon="7.390570202842355">
        <ele>2833</ele>
        <time>2012-07-25T07:04:28Z</time>
      </trkpt>
      <trkpt lat="45.897769890725613" lon="7.390540111809969">
        <ele>2826.5</ele>
        <time>2012-07-25T07:04:28Z</time>
      </trkpt>
      <trkpt lat="45.89762119576335" lon="7.390620242804289">
        <ele>2816.0999999999999</ele>
        <time>2012-07-25T07:04:28Z</time>
      </trkpt>
      <trkpt lat="45.89754106476903" lon="7.390669863671064">
        <ele>2810.4000000000001</ele>
        <time>2012-07-25T07:04:28Z</time>
      </trkpt>
      <trkpt lat="45.897399913519621" lon="7.390729878097773">
        <ele>2801.6999999999998</ele>
        <time>2012-07-25T07:04:28Z</time>
      </trkpt>
      <trkpt lat="45.897449534386396" lon="7.390759969130158">
        <ele>2803.4000000000001</ele>
        <time>2012-07-25T07:04:28Z</time>
      </trkpt>
      <trkpt lat="45.897430423647165" lon="7.390620242804289">
        <ele>2805.9000000000001</ele>
        <time>2012-07-25T07:04:28Z</time>
      </trkpt>
      <trkpt lat="45.89728164486587" lon="7.390459980815649">
        <ele>2802</ele>
        <time>2012-07-25T07:04:28Z</time>
      </trkpt>
      <trkpt lat="45.897148121148348" lon="7.390560144558549">
        <ele>2792.9000000000001</ele>
        <time>2012-07-25T07:04:28Z</time>
      </trkpt>
      <trkpt lat="45.897121466696262" lon="7.390639772638679">
        <ele>2789.9000000000001</ele>
        <time>2012-07-25T07:04:28Z</time>
      </trkpt>
      <trkpt lat="45.897010825574398" lon="7.390709845349193">
        <ele>2782.9000000000001</ele>
        <time>2012-07-25T07:04:28Z</time>
      </trkpt>
      <trkpt lat="45.896949805319309" lon="7.390649830922484">
        <ele>2781.0999999999999</ele>
        <time>2012-07-25T07:04:28Z</time>
      </trkpt>
      <trkpt lat="45.896801026538014" lon="7.390580177307129">
        <ele>2774.8000000000002</ele>
        <time>2012-07-25T07:04:28Z</time>
      </trkpt>
      <trkpt lat="45.896659875288606" lon="7.390629798173904">
        <ele>2766.9000000000001</ele>
        <time>2012-07-25T07:04:28Z</time>
      </trkpt>
      <trkpt lat="45.896541606634855" lon="7.390659805387259">
        <ele>2762.1999999999998</ele>
        <time>2012-07-25T07:04:28Z</time>
      </trkpt>
      <trkpt lat="45.89641185477376" lon="7.390870107337833">
        <ele>2755.8000000000002</ele>
        <time>2012-07-25T07:04:28Z</time>
      </trkpt>
      <trkpt lat="45.896259304136038" lon="7.391119971871376">
        <ele>2753.4000000000001</ele>
        <time>2012-07-25T07:04:28Z</time>
      </trkpt>
      <trkpt lat="45.896080015227199" lon="7.39134980365634">
        <ele>2750.4000000000001</ele>
        <time>2012-07-25T07:04:28Z</time>
      </trkpt>
      <trkpt lat="45.895900726318359" lon="7.391550047323108">
        <ele>2747.4000000000001</ele>
        <time>2012-07-25T07:04:28Z</time>
      </trkpt>
      <trkpt lat="45.895698554813862" lon="7.391640152782202">
        <ele>2744.4000000000001</ele>
        <time>2012-07-25T07:04:28Z</time>
      </trkpt>
      <trkpt lat="45.895538292825222" lon="7.391640152782202">
        <ele>2741.8000000000002</ele>
        <time>2012-07-25T07:04:28Z</time>
      </trkpt>
      <trkpt lat="45.895328493788838" lon="7.391640152782202">
        <ele>2738.3000000000002</ele>
        <time>2012-07-25T07:04:28Z</time>
      </trkpt>
      <trkpt lat="45.89508818462491" lon="7.391590112820268">
        <ele>2734.0999999999999</ele>
        <time>2012-07-25T07:04:28Z</time>
      </trkpt>
      <trkpt lat="45.894958516582847" lon="7.391630178317428">
        <ele>2731.5999999999999</ele>
        <time>2012-07-25T07:04:28Z</time>
      </trkpt>
      <trkpt lat="45.894889868795872" lon="7.391540072858334">
        <ele>2729.3000000000002</ele>
        <time>2012-07-25T07:04:28Z</time>
      </trkpt>
      <trkpt lat="45.894779227674007" lon="7.391439909115434">
        <ele>2725.9000000000001</ele>
        <time>2012-07-25T07:04:28Z</time>
      </trkpt>
      <trkpt lat="45.894668586552143" lon="7.391459941864014">
        <ele>2722.8000000000002</ele>
        <time>2012-07-25T07:04:28Z</time>
      </trkpt>
      <trkpt lat="45.894618965685368" lon="7.391320215538144">
        <ele>2721.5999999999999</ele>
        <time>2012-07-25T07:04:28Z</time>
      </trkpt>
      <trkpt lat="45.894641848281026" lon="7.391119971871376">
        <ele>2722.4000000000001</ele>
        <time>2012-07-25T07:04:28Z</time>
      </trkpt>
      <trkpt lat="45.894538918510079" lon="7.390810009092093">
        <ele>2720.8000000000002</ele>
        <time>2012-07-25T07:04:28Z</time>
      </trkpt>
      <trkpt lat="45.894401539117098" lon="7.390649830922484">
        <ele>2720.1999999999998</ele>
        <time>2012-07-25T07:04:28Z</time>
      </trkpt>
      <trkpt lat="45.894271871075034" lon="7.390480013564229">
        <ele>2720.8000000000002</ele>
        <time>2012-07-25T07:04:28Z</time>
      </trkpt>
      <trkpt lat="45.894058216363192" lon="7.390429973602295">
        <ele>2717.5999999999999</ele>
        <time>2012-07-25T07:04:28Z</time>
      </trkpt>
      <trkpt lat="45.893840789794922" lon="7.390459980815649">
        <ele>2711.5</ele>
        <time>2012-07-25T07:04:28Z</time>
      </trkpt>
      <trkpt lat="45.893680611625314" lon="7.390600210055709">
        <ele>2704.0999999999999</ele>
        <time>2012-07-25T07:04:28Z</time>
      </trkpt>
      <trkpt lat="45.89360810816288" lon="7.390800034627318">
        <ele>2697.0999999999999</ele>
        <time>2012-07-25T07:04:28Z</time>
      </trkpt>
      <trkpt lat="45.893531832844019" lon="7.390930205583572">
        <ele>2692.6999999999998</ele>
        <time>2012-07-25T07:04:28Z</time>
      </trkpt>
      <trkpt lat="45.893451701849699" lon="7.390999775379896">
        <ele>2689.3000000000002</ele>
        <time>2012-07-25T07:04:28Z</time>
      </trkpt>
      <trkpt lat="45.893280040472746" lon="7.390890140086412">
        <ele>2685.9000000000001</ele>
        <time>2012-07-25T07:04:28Z</time>
      </trkpt>
      <trkpt lat="45.893070241436362" lon="7.391009833663702">
        <ele>2678.6999999999998</ele>
        <time>2012-07-25T07:04:28Z</time>
      </trkpt>
      <trkpt lat="45.892940489575267" lon="7.39123011007905">
        <ele>2671.3000000000002</ele>
        <time>2012-07-25T07:04:28Z</time>
      </trkpt>
      <trkpt lat="45.892780311405659" lon="7.39125014282763">
        <ele>2666.4000000000001</ele>
        <time>2012-07-25T07:04:28Z</time>
      </trkpt>
      <trkpt lat="45.892681153491139" lon="7.39121007733047">
        <ele>2664.4000000000001</ele>
        <time>2012-07-25T07:04:28Z</time>
      </trkpt>
      <trkpt lat="45.89255902916193" lon="7.391419876366854">
        <ele>2656.4000000000001</ele>
        <time>2012-07-25T07:04:28Z</time>
      </trkpt>
      <trkpt lat="45.892429361119866" lon="7.391509981825948">
        <ele>2651.0999999999999</ele>
        <time>2012-07-25T07:04:28Z</time>
      </trkpt>
      <trkpt lat="45.892299693077803" lon="7.391640152782202">
        <ele>2645.5</ele>
        <time>2012-07-25T07:04:28Z</time>
      </trkpt>
      <trkpt lat="45.892280582338572" lon="7.391880042850971">
        <ele>2641.5999999999999</ele>
        <time>2012-07-25T07:04:28Z</time>
      </trkpt>
      <trkpt lat="45.892238589003682" lon="7.392109874635935">
        <ele>2637.6999999999998</ele>
        <time>2012-07-25T07:04:28Z</time>
      </trkpt>
      <trkpt lat="45.892070783302188" lon="7.392310118302703">
        <ele>2631.4000000000001</ele>
        <time>2012-07-25T07:04:28Z</time>
      </trkpt>
      <trkpt lat="45.89186861179769" lon="7.392380274832249">
        <ele>2626.0999999999999</ele>
        <time>2012-07-25T07:04:28Z</time>
      </trkpt>
      <trkpt lat="45.891708349809051" lon="7.392529975622892">
        <ele>2620.6999999999998</ele>
        <time>2012-07-25T07:04:28Z</time>
      </trkpt>
      <trkpt lat="45.891559571027756" lon="7.392700212076306">
        <ele>2617</ele>
        <time>2012-07-25T07:04:28Z</time>
      </trkpt>
      <trkpt lat="45.891418419778347" lon="7.392570041120052">
        <ele>2616.1999999999998</ele>
        <time>2012-07-25T07:04:28Z</time>
      </trkpt>
      <trkpt lat="45.891208620741963" lon="7.392600048333406">
        <ele>2613.3000000000002</ele>
        <time>2012-07-25T07:04:28Z</time>
      </trkpt>
      <trkpt lat="45.890991194173694" lon="7.392670121043921">
        <ele>2610.1999999999998</ele>
        <time>2012-07-25T07:04:28Z</time>
      </trkpt>
      <trkpt lat="45.890800505876541" lon="7.392819905653596">
        <ele>2607.1999999999998</ele>
        <time>2012-07-25T07:04:28Z</time>
      </trkpt>
      <trkpt lat="45.890628844499588" lon="7.393040182068944">
        <ele>2605</ele>
        <time>2012-07-25T07:04:28Z</time>
      </trkpt>
      <trkpt lat="45.890449555590749" lon="7.393240006640554">
        <ele>2603</ele>
        <time>2012-07-25T07:04:28Z</time>
      </trkpt>
      <trkpt lat="45.890239756554365" lon="7.393340086564422">
        <ele>2601.4000000000001</ele>
        <time>2012-07-25T07:04:28Z</time>
      </trkpt>
      <trkpt lat="45.89001084677875" lon="7.393469838425517">
        <ele>2600.0999999999999</ele>
        <time>2012-07-25T07:04:28Z</time>
      </trkpt>
      <trkpt lat="45.889808675274253" lon="7.393670082092285">
        <ele>2600.1999999999998</ele>
        <time>2012-07-25T07:04:28Z</time>
      </trkpt>
      <trkpt lat="45.889610275626183" lon="7.393809808418155">
        <ele>2600.5</ele>
        <time>2012-07-25T07:04:28Z</time>
      </trkpt>
      <trkpt lat="45.889400476589799" lon="7.393939979374409">
        <ele>2601</ele>
        <time>2012-07-25T07:04:28Z</time>
      </trkpt>
      <trkpt lat="45.889171566814184" lon="7.394060175865889">
        <ele>2601.6999999999998</ele>
        <time>2012-07-25T07:04:28Z</time>
      </trkpt>
      <trkpt lat="45.888961767777801" lon="7.394199818372726">
        <ele>2600.4000000000001</ele>
        <time>2012-07-25T07:04:28Z</time>
      </trkpt>
      <trkpt lat="45.888721458613873" lon="7.394189843907952">
        <ele>2597.5999999999999</ele>
        <time>2012-07-25T07:04:28Z</time>
      </trkpt>
      <trkpt lat="45.888500176370144" lon="7.394149778410792">
        <ele>2594.9000000000001</ele>
        <time>2012-07-25T07:04:28Z</time>
      </trkpt>
      <trkpt lat="45.888278977945447" lon="7.394219851121306">
        <ele>2592.4000000000001</ele>
        <time>2012-07-25T07:04:28Z</time>
      </trkpt>
      <trkpt lat="45.888080578297377" lon="7.394320014864206">
        <ele>2589.0999999999999</ele>
        <time>2012-07-25T07:04:28Z</time>
      </trkpt>
      <trkpt lat="45.887889890000224" lon="7.394360080361366">
        <ele>2585.0999999999999</ele>
        <time>2012-07-25T07:04:28Z</time>
      </trkpt>
      <trkpt lat="45.887729628011584" lon="7.39450978115201">
        <ele>2582</ele>
        <time>2012-07-25T07:04:28Z</time>
      </trkpt>
      <trkpt lat="45.887538939714432" lon="7.39469007588923">
        <ele>2577.6999999999998</ele>
        <time>2012-07-25T07:04:28Z</time>
      </trkpt>
      <trkpt lat="45.887348167598248" lon="7.394849751144648">
        <ele>2569.1999999999998</ele>
        <time>2012-07-25T07:04:28Z</time>
      </trkpt>
      <trkpt lat="45.887199388816953" lon="7.394989980384708">
        <ele>2561.8000000000002</ele>
        <time>2012-07-25T07:04:28Z</time>
      </trkpt>
      <trkpt lat="45.887039210647345" lon="7.394989980384708">
        <ele>2553.8000000000002</ele>
        <time>2012-07-25T07:04:28Z</time>
      </trkpt>
      <trkpt lat="45.886878948658705" lon="7.395060053095222">
        <ele>2546</ele>
        <time>2012-07-25T07:04:28Z</time>
      </trkpt>
      <trkpt lat="45.88676830753684" lon="7.395100118592382">
        <ele>2540.4000000000001</ele>
        <time>2012-07-25T07:04:28Z</time>
      </trkpt>
      <trkpt lat="45.886699659749866" lon="7.395070111379027">
        <ele>2536.8000000000002</ele>
        <time>2012-07-25T07:04:28Z</time>
      </trkpt>
      <trkpt lat="45.886531854048371" lon="7.394989980384708">
        <ele>2528.5</ele>
        <time>2012-07-25T07:04:28Z</time>
      </trkpt>
      <trkpt lat="45.886398330330849" lon="7.394869783893228">
        <ele>2522.1999999999998</ele>
        <time>2012-07-25T07:04:28Z</time>
      </trkpt>
      <trkpt lat="45.886398330330849" lon="7.394800214096904">
        <ele>2522.1999999999998</ele>
        <time>2012-07-25T07:04:28Z</time>
      </trkpt>
      <trkpt lat="45.886451723054051" lon="7.394700050354004">
        <ele>2524.8000000000002</ele>
        <time>2012-07-25T07:04:28Z</time>
      </trkpt>
      <trkpt lat="45.886329682543874" lon="7.39458991214633">
        <ele>2519</ele>
        <time>2012-07-25T07:04:28Z</time>
      </trkpt>
      <trkpt lat="45.886230440810323" lon="7.394579853862524">
        <ele>2514.3000000000002</ele>
        <time>2012-07-25T07:04:28Z</time>
      </trkpt>
      <trkpt lat="45.886150393635035" lon="7.39454984664917">
        <ele>2510.5999999999999</ele>
        <time>2012-07-25T07:04:28Z</time>
      </trkpt>
      <trkpt lat="45.885978732258081" lon="7.39445018582046">
        <ele>2502.5</ele>
        <time>2012-07-25T07:04:28Z</time>
      </trkpt>
      <trkpt lat="45.885799443349242" lon="7.39458991214633">
        <ele>2494.1999999999998</ele>
        <time>2012-07-25T07:04:28Z</time>
      </trkpt>
      <trkpt lat="45.885688802227378" lon="7.394929882138968">
        <ele>2488.0999999999999</ele>
        <time>2012-07-25T07:04:28Z</time>
      </trkpt>
      <trkpt lat="45.885471375659108" lon="7.395030045881867">
        <ele>2476.5999999999999</ele>
        <time>2012-07-25T07:04:28Z</time>
      </trkpt>
      <trkpt lat="45.885379761457443" lon="7.395239844918251">
        <ele>2470.9000000000001</ele>
        <time>2012-07-25T07:04:28Z</time>
      </trkpt>
      <trkpt lat="45.885261576622725" lon="7.395510161295533">
        <ele>2463.8000000000002</ele>
        <time>2012-07-25T07:04:28Z</time>
      </trkpt>
      <trkpt lat="45.885059321299195" lon="7.395500186830759">
        <ele>2454.0999999999999</ele>
        <time>2012-07-25T07:04:28Z</time>
      </trkpt>
      <trkpt lat="45.884960163384676" lon="7.395619880408049">
        <ele>2449.5999999999999</ele>
        <time>2012-07-25T07:04:28Z</time>
      </trkpt>
      <trkpt lat="45.885021183639765" lon="7.395619880408049">
        <ele>2451.8000000000002</ele>
        <time>2012-07-25T07:04:28Z</time>
      </trkpt>
      <trkpt lat="45.88499067351222" lon="7.395669920369983">
        <ele>2450.3000000000002</ele>
        <time>2012-07-25T07:04:28Z</time>
      </trkpt>
      <trkpt lat="45.88499067351222" lon="7.395639913156629">
        <ele>2450.4000000000001</ele>
        <time>2012-07-25T07:04:28Z</time>
      </trkpt>
      <trkpt lat="45.884960163384676" lon="7.395730018615723">
        <ele>2449.1999999999998</ele>
        <time>2012-07-25T07:04:28Z</time>
      </trkpt>
      <trkpt lat="45.884811384603381" lon="7.39600989036262">
        <ele>2445.4000000000001</ele>
        <time>2012-07-25T07:04:28Z</time>
      </trkpt>
      <trkpt lat="45.884609213098884" lon="7.39606998860836">
        <ele>2439.9000000000001</ele>
        <time>2012-07-25T07:04:28Z</time>
      </trkpt>
      <trkpt lat="45.884418524801731" lon="7.396230250597">
        <ele>2435.9000000000001</ele>
        <time>2012-07-25T07:04:28Z</time>
      </trkpt>
      <trkpt lat="45.884250635281205" lon="7.396470056846738">
        <ele>2433.9000000000001</ele>
        <time>2012-07-25T07:04:28Z</time>
      </trkpt>
      <trkpt lat="45.884139994159341" lon="7.396510122343898">
        <ele>2431.4000000000001</ele>
        <time>2012-07-25T07:04:28Z</time>
      </trkpt>
      <trkpt lat="45.884040836244822" lon="7.396580195054412">
        <ele>2429.3000000000002</ele>
        <time>2012-07-25T07:04:28Z</time>
      </trkpt>
      <trkpt lat="45.883850064128637" lon="7.396659823134542">
        <ele>2424.4000000000001</ele>
        <time>2012-07-25T07:04:28Z</time>
      </trkpt>
      <trkpt lat="45.883651748299599" lon="7.396890157833695">
        <ele>2421.9000000000001</ele>
        <time>2012-07-25T07:04:28Z</time>
      </trkpt>
      <trkpt lat="45.883460976183414" lon="7.397039858624339">
        <ele>2418.5999999999999</ele>
        <time>2012-07-25T07:04:28Z</time>
      </trkpt>
      <trkpt lat="45.883270287886262" lon="7.397280251607299">
        <ele>2416.3000000000002</ele>
        <time>2012-07-25T07:04:28Z</time>
      </trkpt>
      <trkpt lat="45.883159646764398" lon="7.397550065070391">
        <ele>2415.6999999999998</ele>
        <time>2012-07-25T07:04:28Z</time>
      </trkpt>
      <trkpt lat="45.882999384775758" lon="7.397739915177226">
        <ele>2411</ele>
        <time>2012-07-25T07:04:28Z</time>
      </trkpt>
      <trkpt lat="45.882789585739374" lon="7.397900093346834">
        <ele>2403.9000000000001</ele>
        <time>2012-07-25T07:04:28Z</time>
      </trkpt>
      <trkpt lat="45.882640806958079" lon="7.398079885169864">
        <ele>2399.0999999999999</ele>
        <time>2012-07-25T07:04:28Z</time>
      </trkpt>
      <trkpt lat="45.882518766447902" lon="7.398300161585212">
        <ele>2395.5999999999999</ele>
        <time>2012-07-25T07:04:28Z</time>
      </trkpt>
      <trkpt lat="45.882408125326037" lon="7.398439887911081">
        <ele>2390.4000000000001</ele>
        <time>2012-07-25T07:04:28Z</time>
      </trkpt>
      <trkpt lat="45.882251719012856" lon="7.398630157113075">
        <ele>2383.5999999999999</ele>
        <time>2012-07-25T07:04:28Z</time>
      </trkpt>
      <trkpt lat="45.882225064560771" lon="7.398931821808219">
        <ele>2407.7592773000001</ele>
        <time>2011-07-09T13:06:19Z</time>
      </trkpt>
      <trkpt lat="45.882224561646581" lon="7.39893869496882">
        <ele>2410.1623534999999</ele>
        <time>2011-07-09T13:06:14Z</time>
      </trkpt>
      <trkpt lat="45.882225735113025" lon="7.398940622806549">
        <ele>2395.2619629000001</ele>
        <time>2011-07-09T13:06:12Z</time>
      </trkpt>
      <trkpt lat="45.882226405665278" lon="7.398941712453961">
        <ele>2394.78125</ele>
        <time>2011-07-09T13:06:11Z</time>
      </trkpt>
      <trkpt lat="45.882229758426547" lon="7.398946909233928">
        <ele>2389.9748534999999</ele>
        <time>2011-07-09T13:06:07Z</time>
      </trkpt>
      <trkpt lat="45.882272338494658" lon="7.398986890912056">
        <ele>2389.0134277000002</ele>
        <time>2011-07-09T13:04:51Z</time>
      </trkpt>
      <trkpt lat="45.882272338494658" lon="7.398985801264644">
        <ele>2388.5329590000001</ele>
        <time>2011-07-09T13:04:31Z</time>
      </trkpt>
      <trkpt lat="45.882207294926047" lon="7.398874573409557">
        <ele>2389.9748534999999</ele>
        <time>2011-07-09T13:03:35Z</time>
      </trkpt>
      <trkpt lat="45.882024401798844" lon="7.399044139310718">
        <ele>2390.9360351999999</ele>
        <time>2011-07-09T13:03:06Z</time>
      </trkpt>
      <trkpt lat="45.882015936076641" lon="7.399047324433923">
        <ele>2390.4553222999998</ele>
        <time>2011-07-09T13:03:05Z</time>
      </trkpt>
      <trkpt lat="45.881868666037917" lon="7.399130892008543">
        <ele>2387.5715332</ele>
        <time>2011-07-09T13:02:38Z</time>
      </trkpt>
      <trkpt lat="45.881745703518391" lon="7.399226361885667">
        <ele>2383.7263183999999</ele>
        <time>2011-07-09T13:02:11Z</time>
      </trkpt>
      <trkpt lat="45.88166163302958" lon="7.399293417111039">
        <ele>2380.8425293</ele>
        <time>2011-07-09T13:01:54Z</time>
      </trkpt>
      <trkpt lat="45.881657274439931" lon="7.399296602234244">
        <ele>2380.3618164</ele>
        <time>2011-07-09T13:01:53Z</time>
      </trkpt>
      <trkpt lat="45.881588039919734" lon="7.399329291656613">
        <ele>2378.9194336</ele>
        <time>2011-07-09T13:01:35Z</time>
      </trkpt>
      <trkpt lat="45.881591476500034" lon="7.399343959987164">
        <ele>2378.4389648000001</ele>
        <time>2011-07-09T13:01:31Z</time>
      </trkpt>
      <trkpt lat="45.881581669673324" lon="7.399358795955777">
        <ele>2375.5549316000001</ele>
        <time>2011-07-09T13:01:27Z</time>
      </trkpt>
      <trkpt lat="45.881542861461639" lon="7.399405734613538">
        <ele>2376.5163573999998</ele>
        <time>2011-07-09T13:01:19Z</time>
      </trkpt>
      <trkpt lat="45.881537832319736" lon="7.399407578632236">
        <ele>2376.5163573999998</ele>
        <time>2011-07-09T13:01:18Z</time>
      </trkpt>
      <trkpt lat="45.881462059915066" lon="7.399429120123386">
        <ele>2372.6711426000002</ele>
        <time>2011-07-09T13:00:52Z</time>
      </trkpt>
      <trkpt lat="45.881384024396539" lon="7.399415709078312">
        <ele>2369.7871094000002</ele>
        <time>2011-07-09T13:00:32Z</time>
      </trkpt>
      <trkpt lat="45.881323758512735" lon="7.39944445900619">
        <ele>2366.4226073999998</ele>
        <time>2011-07-09T13:00:14Z</time>
      </trkpt>
      <trkpt lat="45.881314873695374" lon="7.399549232795835">
        <ele>2363.5383301000002</ele>
        <time>2011-07-09T12:59:58Z</time>
      </trkpt>
      <trkpt lat="45.881316885352135" lon="7.399619808420539">
        <ele>2361.6159668</ele>
        <time>2011-07-09T12:59:48Z</time>
      </trkpt>
      <trkpt lat="45.88125754147768" lon="7.399632213637233">
        <ele>2359.2126465000001</ele>
        <time>2011-07-09T12:59:26Z</time>
      </trkpt>
      <trkpt lat="45.881269108504057" lon="7.399698179215193">
        <ele>2355.8479004000001</ele>
        <time>2011-07-09T12:59:17Z</time>
      </trkpt>
      <trkpt lat="45.881212530657649" lon="7.399726258590818">
        <ele>2354.4060058999999</ele>
        <time>2011-07-09T12:58:57Z</time>
      </trkpt>
      <trkpt lat="45.881249578669667" lon="7.399903368204832">
        <ele>2351.0415039</ele>
        <time>2011-07-09T12:58:35Z</time>
      </trkpt>
      <trkpt lat="45.881240358576179" lon="7.399905798956752">
        <ele>2349.5996094000002</ele>
        <time>2011-07-09T12:58:32Z</time>
      </trkpt>
      <trkpt lat="45.881212865933776" lon="7.399930441752076">
        <ele>2349.1188965000001</ele>
        <time>2011-07-09T12:58:24Z</time>
      </trkpt>
      <trkpt lat="45.881196688860655" lon="7.400042675435543">
        <ele>2345.7541504000001</ele>
        <time>2011-07-09T12:58:10Z</time>
      </trkpt>
      <trkpt lat="45.881172968074679" lon="7.400085590779781">
        <ele>2343.8315429999998</ele>
        <time>2011-07-09T12:57:50Z</time>
      </trkpt>
      <trkpt lat="45.881170202046633" lon="7.400083160027862">
        <ele>2344.7927245999999</ele>
        <time>2011-07-09T12:57:49Z</time>
      </trkpt>
      <trkpt lat="45.881112283095717" lon="7.400104198604822">
        <ele>2340.9475097999998</ele>
        <time>2011-07-09T12:57:32Z</time>
      </trkpt>
      <trkpt lat="45.881110858172178" lon="7.400212241336703">
        <ele>2337.5830077999999</ele>
        <time>2011-07-09T12:57:19Z</time>
      </trkpt>
      <trkpt lat="45.881066936999559" lon="7.400322882458568">
        <ele>2334.6992187999999</ele>
        <time>2011-07-09T12:57:01Z</time>
      </trkpt>
      <trkpt lat="45.881055118516088" lon="7.400445593520999">
        <ele>2331.3342284999999</ele>
        <time>2011-07-09T12:56:24Z</time>
      </trkpt>
      <trkpt lat="45.881083365529776" lon="7.400489011779428">
        <ele>2330.3730469000002</ele>
        <time>2011-07-09T12:56:05Z</time>
      </trkpt>
      <trkpt lat="45.88115343824029" lon="7.40054533816874">
        <ele>2327.0085448999998</ele>
        <time>2011-07-09T12:55:45Z</time>
      </trkpt>
      <trkpt lat="45.88120766915381" lon="7.400609627366066">
        <ele>2324.6052245999999</ele>
        <time>2011-07-09T12:55:26Z</time>
      </trkpt>
      <trkpt lat="45.881278160959482" lon="7.400668133050203">
        <ele>2321.2404784999999</ele>
        <time>2011-07-09T12:55:09Z</time>
      </trkpt>
      <trkpt lat="45.881335074082017" lon="7.400653129443526">
        <ele>2319.3181152000002</ele>
        <time>2011-07-09T12:54:58Z</time>
      </trkpt>
      <trkpt lat="45.8813411090523" lon="7.400677604600787">
        <ele>2317.8759765999998</ele>
        <time>2011-07-09T12:54:55Z</time>
      </trkpt>
      <trkpt lat="45.881382683292031" lon="7.400741390883923">
        <ele>2315.4726562999999</ele>
        <time>2011-07-09T12:54:38Z</time>
      </trkpt>
      <trkpt lat="45.881366338580847" lon="7.400767961516976">
        <ele>2314.0305176000002</ele>
        <time>2011-07-09T12:54:28Z</time>
      </trkpt>
      <trkpt lat="45.88135234080255" lon="7.400784306228161">
        <ele>2314.0305176000002</ele>
        <time>2011-07-09T12:54:24Z</time>
      </trkpt>
      <trkpt lat="45.881336079910398" lon="7.400793777778745">
        <ele>2312.5886230000001</ele>
        <time>2011-07-09T12:54:21Z</time>
      </trkpt>
      <trkpt lat="45.881322082132101" lon="7.400819510221481">
        <ele>2312.5886230000001</ele>
        <time>2011-07-09T12:54:16Z</time>
      </trkpt>
      <trkpt lat="45.881283190101385" lon="7.400895534083247">
        <ele>2309.2241211</ele>
        <time>2011-07-09T12:54:00Z</time>
      </trkpt>
      <trkpt lat="45.88127464056015" lon="7.400991506874561">
        <ele>2308.2626952999999</ele>
        <time>2011-07-09T12:53:44Z</time>
      </trkpt>
      <trkpt lat="45.8812824357301" lon="7.401043390855193">
        <ele>2305.3789062999999</ele>
        <time>2011-07-09T12:53:28Z</time>
      </trkpt>
      <trkpt lat="45.881271539255977" lon="7.401095358654857">
        <ele>2303.9370116999999</ele>
        <time>2011-07-09T12:53:19Z</time>
      </trkpt>
      <trkpt lat="45.881281262263656" lon="7.401116313412786">
        <ele>2302.9755859000002</ele>
        <time>2011-07-09T12:53:15Z</time>
      </trkpt>
      <trkpt lat="45.881243208423257" lon="7.401119330897927">
        <ele>2299.6108398000001</ele>
        <time>2011-07-09T12:52:55Z</time>
      </trkpt>
      <trkpt lat="45.881208758801222" lon="7.401150176301599">
        <ele>2298.1687012000002</ele>
        <time>2011-07-09T12:52:45Z</time>
      </trkpt>
      <trkpt lat="45.88119987398386" lon="7.401237431913614">
        <ele>2295.2849120999999</ele>
        <time>2011-07-09T12:52:33Z</time>
      </trkpt>
      <trkpt lat="45.881234407424927" lon="7.401391323655844">
        <ele>2294.3234862999998</ele>
        <time>2011-07-09T12:52:13Z</time>
      </trkpt>
      <trkpt lat="45.881230803206563" lon="7.401430383324623">
        <ele>2292.8815918</ele>
        <time>2011-07-09T12:52:10Z</time>
      </trkpt>
      <trkpt lat="45.881238933652639" lon="7.401460139080882">
        <ele>2292.8815918</ele>
        <time>2011-07-09T12:52:07Z</time>
      </trkpt>
      <trkpt lat="45.881250081583858" lon="7.401502132415772">
        <ele>2292.8815918</ele>
        <time>2011-07-09T12:52:03Z</time>
      </trkpt>
      <trkpt lat="45.881255781278014" lon="7.401622831821442">
        <ele>2291.4396972999998</ele>
        <time>2011-07-09T12:51:49Z</time>
      </trkpt>
      <trkpt lat="45.881218062713742" lon="7.401769682765007">
        <ele>2289.0363769999999</ele>
        <time>2011-07-09T12:51:20Z</time>
      </trkpt>
      <trkpt lat="45.88121060281992" lon="7.401762725785375">
        <ele>2289.0363769999999</ele>
        <time>2011-07-09T12:51:15Z</time>
      </trkpt>
      <trkpt lat="45.881279082968831" lon="7.401942936703563">
        <ele>2287.5944823999998</ele>
        <time>2011-07-09T12:50:54Z</time>
      </trkpt>
      <trkpt lat="45.881290566176176" lon="7.40220227278769">
        <ele>2285.1911620999999</ele>
        <time>2011-07-09T12:50:31Z</time>
      </trkpt>
      <trkpt lat="45.88134010322392" lon="7.402412658557296">
        <ele>2284.2299804999998</ele>
        <time>2011-07-09T12:50:16Z</time>
      </trkpt>
      <trkpt lat="45.88136306963861" lon="7.402588510885835">
        <ele>2283.7490234000002</ele>
        <time>2011-07-09T12:50:00Z</time>
      </trkpt>
      <trkpt lat="45.881401123479009" lon="7.402844661846757">
        <ele>2284.7106933999999</ele>
        <time>2011-07-09T12:49:38Z</time>
      </trkpt>
      <trkpt lat="45.881315376609564" lon="7.40303828381002">
        <ele>2281.3457030999998</ele>
        <time>2011-07-09T12:49:15Z</time>
      </trkpt>
      <trkpt lat="45.8812824357301" lon="7.403318323194981">
        <ele>2281.3457030999998</ele>
        <time>2011-07-09T12:48:53Z</time>
      </trkpt>
      <trkpt lat="45.88127807714045" lon="7.403533738106489">
        <ele>2279.9038086</ele>
        <time>2011-07-09T12:48:38Z</time>
      </trkpt>
      <trkpt lat="45.881425933912396" lon="7.403644882142544">
        <ele>2280.3845215000001</ele>
        <time>2011-07-09T12:48:19Z</time>
      </trkpt>
      <trkpt lat="45.881495336070657" lon="7.40374923683703">
        <ele>2279.9038086</ele>
        <time>2011-07-09T12:48:05Z</time>
      </trkpt>
      <trkpt lat="45.881515368819237" lon="7.403840431943536">
        <ele>2279.4230957</ele>
        <time>2011-07-09T12:47:57Z</time>
      </trkpt>
      <trkpt lat="45.881588626652956" lon="7.40416556596756">
        <ele>2278.9423827999999</ele>
        <time>2011-07-09T12:47:30Z</time>
      </trkpt>
      <trkpt lat="45.881642941385508" lon="7.40439816378057">
        <ele>2277.0200195000002</ele>
        <time>2011-07-09T12:47:09Z</time>
      </trkpt>
      <trkpt lat="45.881751235574484" lon="7.404644759371877">
        <ele>2277.9812012000002</ele>
        <time>2011-07-09T12:46:45Z</time>
      </trkpt>
      <trkpt lat="45.881765903905034" lon="7.404938125982881">
        <ele>2277.9812012000002</ele>
        <time>2011-07-09T12:46:21Z</time>
      </trkpt>
      <trkpt lat="45.881900433450937" lon="7.405139207839966">
        <ele>2275.0971679999998</ele>
        <time>2011-07-09T12:45:55Z</time>
      </trkpt>
      <trkpt lat="45.881994981318712" lon="7.405315227806568">
        <ele>2271.7326659999999</ele>
        <time>2011-07-09T12:45:30Z</time>
      </trkpt>
      <trkpt lat="45.882067484781146" lon="7.405440369620919">
        <ele>2268.8488769999999</ele>
        <time>2011-07-09T12:45:11Z</time>
      </trkpt>
      <trkpt lat="45.882119620218873" lon="7.405553106218576">
        <ele>2265.4841308999999</ele>
        <time>2011-07-09T12:44:53Z</time>
      </trkpt>
      <trkpt lat="45.882210982963443" lon="7.405727282166481">
        <ele>2262.1193847999998</ele>
        <time>2011-07-09T12:44:33Z</time>
      </trkpt>
      <trkpt lat="45.882341489195824" lon="7.405861727893353">
        <ele>2260.6774902000002</ele>
        <time>2011-07-09T12:44:11Z</time>
      </trkpt>
      <trkpt lat="45.882431594654918" lon="7.406004220247269">
        <ele>2256.8322754000001</ele>
        <time>2011-07-09T12:43:48Z</time>
      </trkpt>
      <trkpt lat="45.882525639608502" lon="7.406122405081987">
        <ele>2256.3515625</ele>
        <time>2011-07-09T12:43:29Z</time>
      </trkpt>
      <trkpt lat="45.882631922140718" lon="7.406351398676634">
        <ele>2257.3129883000001</ele>
        <time>2011-07-09T12:43:06Z</time>
      </trkpt>
      <trkpt lat="45.882614068686962" lon="7.406483581289649">
        <ele>2258.7548827999999</ele>
        <time>2011-07-09T12:42:54Z</time>
      </trkpt>
      <trkpt lat="45.882690763100982" lon="7.406734870746732">
        <ele>2258.7548827999999</ele>
        <time>2011-07-09T12:42:30Z</time>
      </trkpt>
      <trkpt lat="45.882709287106991" lon="7.40701767615974">
        <ele>2258.2741698999998</ele>
        <time>2011-07-09T12:42:04Z</time>
      </trkpt>
      <trkpt lat="45.882749268785119" lon="7.407253626734018">
        <ele>2256.3515625</ele>
        <time>2011-07-09T12:41:40Z</time>
      </trkpt>
      <trkpt lat="45.882809031754732" lon="7.407519165426493">
        <ele>2259.2355957</ele>
        <time>2011-07-09T12:41:14Z</time>
      </trkpt>
      <trkpt lat="45.882802158594131" lon="7.407559733837843">
        <ele>2257.7937012000002</ele>
        <time>2011-07-09T12:41:11Z</time>
      </trkpt>
      <trkpt lat="45.88279914110899" lon="7.407706836238504">
        <ele>2258.2741698999998</ele>
        <time>2011-07-09T12:40:58Z</time>
      </trkpt>
      <trkpt lat="45.882712723687291" lon="7.40799056366086">
        <ele>2257.3129883000001</ele>
        <time>2011-07-09T12:40:34Z</time>
      </trkpt>
      <trkpt lat="45.882740635424852" lon="7.4081801623106">
        <ele>2256.3515625</ele>
        <time>2011-07-09T12:40:15Z</time>
      </trkpt>
      <trkpt lat="45.882697803899646" lon="7.408435558900237">
        <ele>2254.4289551000002</ele>
        <time>2011-07-09T12:39:51Z</time>
      </trkpt>
      <trkpt lat="45.882636783644557" lon="7.408607471734285">
        <ele>2252.5063476999999</ele>
        <time>2011-07-09T12:39:27Z</time>
      </trkpt>
      <trkpt lat="45.882612140849233" lon="7.408851636573672">
        <ele>2249.1416015999998</ele>
        <time>2011-07-09T12:39:06Z</time>
      </trkpt>
      <trkpt lat="45.882572829723358" lon="7.409197306260467">
        <ele>2248.6608887000002</ele>
        <time>2011-07-09T12:38:39Z</time>
      </trkpt>
      <trkpt lat="45.88250401429832" lon="7.409453960135579">
        <ele>2247.2189941000001</ele>
        <time>2011-07-09T12:38:17Z</time>
      </trkpt>
      <trkpt lat="45.882433438673615" lon="7.409855788573623">
        <ele>2245.2963866999999</ele>
        <time>2011-07-09T12:37:46Z</time>
      </trkpt>
      <trkpt lat="45.882390858605504" lon="7.410074137151241">
        <ele>2244.3349609000002</ele>
        <time>2011-07-09T12:37:23Z</time>
      </trkpt>
      <trkpt lat="45.882327239960432" lon="7.410137839615345">
        <ele>2242.4125976999999</ele>
        <time>2011-07-09T12:36:46Z</time>
      </trkpt>
      <trkpt lat="45.882272338494658" lon="7.410283936187625">
        <ele>2239.0478515999998</ele>
        <time>2011-07-09T12:36:27Z</time>
      </trkpt>
      <trkpt lat="45.882256412878633" lon="7.410435732454062">
        <ele>2236.1640625</ele>
        <time>2011-07-09T12:36:13Z</time>
      </trkpt>
      <trkpt lat="45.882255071774125" lon="7.410616865381599">
        <ele>2233.7604980000001</ele>
        <time>2011-07-09T12:35:51Z</time>
      </trkpt>
      <trkpt lat="45.882316678762436" lon="7.41089103743434">
        <ele>2230.3959961</ele>
        <time>2011-07-09T12:35:25Z</time>
      </trkpt>
      <trkpt lat="45.882318019866943" lon="7.41109530441463">
        <ele>2227.9926758000001</ele>
        <time>2011-07-09T12:34:55Z</time>
      </trkpt>
      <trkpt lat="45.88236671872437" lon="7.411235701292753">
        <ele>2226.0700683999999</ele>
        <time>2011-07-09T12:34:26Z</time>
      </trkpt>
      <trkpt lat="45.882421117275953" lon="7.411449607461691">
        <ele>2223.6667480000001</ele>
        <time>2011-07-09T12:34:02Z</time>
      </trkpt>
      <trkpt lat="45.882452465593815" lon="7.411639960482717">
        <ele>2220.3022461</ele>
        <time>2011-07-09T12:33:43Z</time>
      </trkpt>
      <trkpt lat="45.882543995976448" lon="7.411812040954828">
        <ele>2217.4179687999999</ele>
        <time>2011-07-09T12:33:21Z</time>
      </trkpt>
      <trkpt lat="45.882573835551739" lon="7.412012368440628">
        <ele>2214.5341797000001</ele>
        <time>2011-07-09T12:32:59Z</time>
      </trkpt>
      <trkpt lat="45.882583390921354" lon="7.412129463627935">
        <ele>2211.1696777000002</ele>
        <time>2011-07-09T12:32:39Z</time>
      </trkpt>
      <trkpt lat="45.882426062598825" lon="7.412145221605897">
        <ele>2207.8051758000001</ele>
        <time>2011-07-09T12:32:16Z</time>
      </trkpt>
      <trkpt lat="45.882315170019865" lon="7.412066012620926">
        <ele>2204.9211426000002</ele>
        <time>2011-07-09T12:31:57Z</time>
      </trkpt>
      <trkpt lat="45.882241493090987" lon="7.412064168602228">
        <ele>2202.0368652000002</ele>
        <time>2011-07-09T12:31:45Z</time>
      </trkpt>
      <trkpt lat="45.882168402895331" lon="7.411827715113759">
        <ele>2199.6337890999998</ele>
        <time>2011-07-09T12:31:22Z</time>
      </trkpt>
      <trkpt lat="45.882073184475303" lon="7.411704501137137">
        <ele>2198.6723633000001</ele>
        <time>2011-07-09T12:31:05Z</time>
      </trkpt>
      <trkpt lat="45.882058097049594" lon="7.411801815032959">
        <ele>2196.2692870999999</ele>
        <time>2011-07-09T12:30:54Z</time>
      </trkpt>
      <trkpt lat="45.882004536688328" lon="7.412078334018588">
        <ele>2195.3078612999998</ele>
        <time>2011-07-09T12:30:31Z</time>
      </trkpt>
      <trkpt lat="45.881914766505361" lon="7.412202302366495">
        <ele>2194.3464355000001</ele>
        <time>2011-07-09T12:30:16Z</time>
      </trkpt>
      <trkpt lat="45.881839161738753" lon="7.412312692031264">
        <ele>2193.3852539</ele>
        <time>2011-07-09T12:30:03Z</time>
      </trkpt>
      <trkpt lat="45.881690634414554" lon="7.412507236003876">
        <ele>2190.5012207</ele>
        <time>2011-07-09T12:29:36Z</time>
      </trkpt>
      <trkpt lat="45.881647635251284" lon="7.41262324154377">
        <ele>2189.5400390999998</ele>
        <time>2011-07-09T12:29:21Z</time>
      </trkpt>
      <trkpt lat="45.881560379639268" lon="7.412774534896016">
        <ele>2186.1752929999998</ele>
        <time>2011-07-09T12:28:57Z</time>
      </trkpt>
      <trkpt lat="45.881471112370491" lon="7.412891713902354">
        <ele>2182.8105469000002</ele>
        <time>2011-07-09T12:28:34Z</time>
      </trkpt>
      <trkpt lat="45.881371535360813" lon="7.413013838231564">
        <ele>2181.3686523000001</ele>
        <time>2011-07-09T12:28:15Z</time>
      </trkpt>
      <trkpt lat="45.881365584209561" lon="7.41300780326128">
        <ele>2180.8881836</ele>
        <time>2011-07-09T12:28:10Z</time>
      </trkpt>
      <trkpt lat="45.881317472085357" lon="7.412917613983154">
        <ele>2179.4460448999998</ele>
        <time>2011-07-09T12:27:50Z</time>
      </trkpt>
      <trkpt lat="45.881319399923086" lon="7.412857264280319">
        <ele>2178.9653320000002</ele>
        <time>2011-07-09T12:27:17Z</time>
      </trkpt>
      <trkpt lat="45.881184535101056" lon="7.412867741659284">
        <ele>2177.0429687999999</ele>
        <time>2011-07-09T12:26:54Z</time>
      </trkpt>
      <trkpt lat="45.881030475720763" lon="7.41276053711772">
        <ele>2175.1201172000001</ele>
        <time>2011-07-09T12:26:29Z</time>
      </trkpt>
      <trkpt lat="45.881028966978192" lon="7.412713766098023">
        <ele>2175.1201172000001</ele>
        <time>2011-07-09T12:26:00Z</time>
      </trkpt>
      <trkpt lat="45.881061321124434" lon="7.412742013111711">
        <ele>2175.1201172000001</ele>
        <time>2011-07-09T12:25:43Z</time>
      </trkpt>
      <trkpt lat="45.881047826260328" lon="7.412681160494685">
        <ele>2174.6396484000002</ele>
        <time>2011-07-09T12:25:20Z</time>
      </trkpt>
      <trkpt lat="45.880949338898063" lon="7.412528526037931">
        <ele>2173.1977539</ele>
        <time>2011-07-09T12:24:59Z</time>
      </trkpt>
      <trkpt lat="45.880859903991222" lon="7.412382597103715">
        <ele>2171.2746582</ele>
        <time>2011-07-09T12:24:36Z</time>
      </trkpt>
      <trkpt lat="45.880793686956167" lon="7.412308333441615">
        <ele>2169.3522948999998</ele>
        <time>2011-07-09T12:24:18Z</time>
      </trkpt>
      <trkpt lat="45.880742892622948" lon="7.412194758653641">
        <ele>2167.4294433999999</ele>
        <time>2011-07-09T12:23:59Z</time>
      </trkpt>
      <trkpt lat="45.880672987550497" lon="7.412161566317082">
        <ele>2165.5070801000002</ele>
        <time>2011-07-09T12:23:38Z</time>
      </trkpt>
      <trkpt lat="45.880665611475706" lon="7.412080261856318">
        <ele>2164.5456543</ele>
        <time>2011-07-09T12:23:19Z</time>
      </trkpt>
      <trkpt lat="45.880616996437311" lon="7.411962160840631">
        <ele>2162.6230469000002</ele>
        <time>2011-07-09T12:22:59Z</time>
      </trkpt>
      <trkpt lat="45.880605513229966" lon="7.411816734820604">
        <ele>2161.1811523000001</ele>
        <time>2011-07-09T12:22:40Z</time>
      </trkpt>
      <trkpt lat="45.880626635625958" lon="7.41161422803998">
        <ele>2157.8166504000001</ele>
        <time>2011-07-09T12:22:17Z</time>
      </trkpt>
      <trkpt lat="45.880528567358851" lon="7.411510962992907">
        <ele>2154.9323730000001</ele>
        <time>2011-07-09T12:21:54Z</time>
      </trkpt>
      <trkpt lat="45.880459332838655" lon="7.41142513230443">
        <ele>2151.5678711</ele>
        <time>2011-07-09T12:21:43Z</time>
      </trkpt>
      <trkpt lat="45.880401413887739" lon="7.411359837278724">
        <ele>2151.0871582</ele>
        <time>2011-07-09T12:21:28Z</time>
      </trkpt>
      <trkpt lat="45.880435612052679" lon="7.411209382116795">
        <ele>2148.6838379000001</ele>
        <time>2011-07-09T12:21:06Z</time>
      </trkpt>
      <trkpt lat="45.880406610667706" lon="7.411130759865046">
        <ele>2147.2419433999999</ele>
        <time>2011-07-09T12:20:51Z</time>
      </trkpt>
      <trkpt lat="45.880332263186574" lon="7.411219691857696">
        <ele>2146.2807616999999</ele>
        <time>2011-07-09T12:20:35Z</time>
      </trkpt>
      <trkpt lat="45.880360677838326" lon="7.411078121513128">
        <ele>2143.3967284999999</ele>
        <time>2011-07-09T12:20:19Z</time>
      </trkpt>
      <trkpt lat="45.880309715867043" lon="7.411024393513799">
        <ele>2141.4741211</ele>
        <time>2011-07-09T12:20:00Z</time>
      </trkpt>
      <trkpt lat="45.880400575697422" lon="7.410924984142184">
        <ele>2138.109375</ele>
        <time>2011-07-09T12:19:39Z</time>
      </trkpt>
      <trkpt lat="45.880335280671716" lon="7.410848960280418">
        <ele>2136.6672362999998</ele>
        <time>2011-07-09T12:19:23Z</time>
      </trkpt>
      <trkpt lat="45.880222460255027" lon="7.410868825390935">
        <ele>2133.3027344000002</ele>
        <time>2011-07-09T12:19:06Z</time>
      </trkpt>
      <trkpt lat="45.880269063636661" lon="7.410776540637016">
        <ele>2131.8608398000001</ele>
        <time>2011-07-09T12:18:43Z</time>
      </trkpt>
      <trkpt lat="45.880399234592915" lon="7.410639496520162">
        <ele>2128.4963379000001</ele>
        <time>2011-07-09T12:18:20Z</time>
      </trkpt>
      <trkpt lat="45.880404766649008" lon="7.410555928945541">
        <ele>2127.0544433999999</ele>
        <time>2011-07-09T12:17:55Z</time>
      </trkpt>
      <trkpt lat="45.880384482443333" lon="7.410306483507156">
        <ele>2124.1704101999999</ele>
        <time>2011-07-09T12:17:29Z</time>
      </trkpt>
      <trkpt lat="45.880394876003265" lon="7.410282092168927">
        <ele>2123.2089844000002</ele>
        <time>2011-07-09T12:17:25Z</time>
      </trkpt>
      <trkpt lat="45.880464361980557" lon="7.410089895129204">
        <ele>2120.3249512000002</ele>
        <time>2011-07-09T12:17:03Z</time>
      </trkpt>
      <trkpt lat="45.880433432757854" lon="7.409831397235394">
        <ele>2117.4409179999998</ele>
        <time>2011-07-09T12:16:39Z</time>
      </trkpt>
      <trkpt lat="45.880385572090745" lon="7.409577593207359">
        <ele>2115.0378418</ele>
        <time>2011-07-09T12:16:04Z</time>
      </trkpt>
      <trkpt lat="45.880372999235988" lon="7.40946183912456">
        <ele>2113.5957030999998</ele>
        <time>2011-07-09T12:15:34Z</time>
      </trkpt>
      <trkpt lat="45.880329161882401" lon="7.409400986507535">
        <ele>2110.2312012000002</ele>
        <time>2011-07-09T12:11:31Z</time>
      </trkpt>
      <trkpt lat="45.880319941788912" lon="7.409314904361963">
        <ele>2108.7893066000001</ele>
        <time>2011-07-09T12:06:58Z</time>
      </trkpt>
      <trkpt lat="45.880320528522134" lon="7.409311383962631">
        <ele>2107.3471679999998</ele>
        <time>2011-07-09T12:05:53Z</time>
      </trkpt>
      <trkpt lat="45.880320612341166" lon="7.409311132505536">
        <ele>2109.2700195000002</ele>
        <time>2011-07-09T12:05:51Z</time>
      </trkpt>
      <trkpt lat="45.880320779979229" lon="7.409311216324568">
        <ele>2106.8664551000002</ele>
        <time>2011-07-09T12:05:38Z</time>
      </trkpt>
      <trkpt lat="45.880320863798261" lon="7.409311216324568">
        <ele>2108.3085937999999</ele>
        <time>2011-07-09T12:05:36Z</time>
      </trkpt>
      <trkpt lat="45.88032036088407" lon="7.4093113001436">
        <ele>2107.8278808999999</ele>
        <time>2011-07-09T12:05:25Z</time>
      </trkpt>
      <trkpt lat="45.880325138568878" lon="7.409327058121562">
        <ele>2106.3857422000001</ele>
        <time>2011-07-09T11:59:43Z</time>
      </trkpt>
      <trkpt lat="45.880324300378561" lon="7.409324459731579">
        <ele>2105.9050293</ele>
        <time>2011-07-09T11:58:06Z</time>
      </trkpt>
      <trkpt lat="45.880285827443004" lon="7.409303588792682">
        <ele>2104.4631347999998</ele>
        <time>2011-07-09T11:56:23Z</time>
      </trkpt>
      <trkpt lat="45.880218520760536" lon="7.409144584089518">
        <ele>2103.0212402000002</ele>
        <time>2011-07-09T11:55:45Z</time>
      </trkpt>
      <trkpt lat="45.880126571282744" lon="7.408878793939948">
        <ele>2100.1374512000002</ele>
        <time>2011-07-09T11:55:19Z</time>
      </trkpt>
      <trkpt lat="45.880035711452365" lon="7.4085358902812">
        <ele>2097.7341308999999</ele>
        <time>2011-07-09T11:54:46Z</time>
      </trkpt>
      <trkpt lat="45.880008973181248" lon="7.408231040462852">
        <ele>2094.3693847999998</ele>
        <time>2011-07-09T11:54:18Z</time>
      </trkpt>
      <trkpt lat="45.879930770024657" lon="7.407994586974382">
        <ele>2091.9660644999999</ele>
        <time>2011-07-09T11:53:51Z</time>
      </trkpt>
      <trkpt lat="45.879799677059054" lon="7.408216204494238">
        <ele>2088.6015625</ele>
        <time>2011-07-09T11:53:20Z</time>
      </trkpt>
      <trkpt lat="45.879725161939859" lon="7.408566568046808">
        <ele>2085.7175293</ele>
        <time>2011-07-09T11:52:49Z</time>
      </trkpt>
      <trkpt lat="45.879629524424672" lon="7.408777875825763">
        <ele>2082.8334961</ele>
        <time>2011-07-09T11:51:56Z</time>
      </trkpt>
      <trkpt lat="45.879635475575924" lon="7.408797321841121">
        <ele>2081.3916015999998</ele>
        <time>2011-07-09T11:46:34Z</time>
      </trkpt>
      <trkpt lat="45.879598762840033" lon="7.408733535557985">
        <ele>2080.9111327999999</ele>
        <time>2011-07-09T11:46:01Z</time>
      </trkpt>
      <trkpt lat="45.879574958235025" lon="7.408342184498906">
        <ele>2077.5463866999999</ele>
        <time>2011-07-09T11:45:29Z</time>
      </trkpt>
      <trkpt lat="45.879549058154225" lon="7.408114112913609">
        <ele>2074.6623534999999</ele>
        <time>2011-07-09T11:45:10Z</time>
      </trkpt>
      <trkpt lat="45.879342695698142" lon="7.407765928655863">
        <ele>2072.2590332</ele>
        <time>2011-07-09T11:44:35Z</time>
      </trkpt>
      <trkpt lat="45.879195174202323" lon="7.407593764364719">
        <ele>2070.3364258000001</ele>
        <time>2011-07-09T11:44:10Z</time>
      </trkpt>
      <trkpt lat="45.878961319103837" lon="7.407460492104292">
        <ele>2066.9719237999998</ele>
        <time>2011-07-09T11:43:43Z</time>
      </trkpt>
      <trkpt lat="45.87883492000401" lon="7.40736611187458">
        <ele>2063.6071777000002</ele>
        <time>2011-07-09T11:43:21Z</time>
      </trkpt>
      <trkpt lat="45.878707263618708" lon="7.407260918989778">
        <ele>2060.7233887000002</ele>
        <time>2011-07-09T11:42:57Z</time>
      </trkpt>
      <trkpt lat="45.878581032156944" lon="7.407140890136361">
        <ele>2057.3586426000002</ele>
        <time>2011-07-09T11:42:35Z</time>
      </trkpt>
      <trkpt lat="45.878441976383328" lon="7.407016335055232">
        <ele>2054.4746094000002</ele>
        <time>2011-07-09T11:42:11Z</time>
      </trkpt>
      <trkpt lat="45.878316834568977" lon="7.406912483274937">
        <ele>2051.1101073999998</ele>
        <time>2011-07-09T11:41:50Z</time>
      </trkpt>
      <trkpt lat="45.878222119063139" lon="7.406788766384125">
        <ele>2047.7456055</ele>
        <time>2011-07-09T11:41:30Z</time>
      </trkpt>
      <trkpt lat="45.878079039976001" lon="7.406610567122698">
        <ele>2044.8615723</ele>
        <time>2011-07-09T11:41:04Z</time>
      </trkpt>
      <trkpt lat="45.877912994474173" lon="7.406413340941072">
        <ele>2041.4968262</ele>
        <time>2011-07-09T11:40:35Z</time>
      </trkpt>
      <trkpt lat="45.877876784652472" lon="7.406374365091324">
        <ele>2040.5354004000001</ele>
        <time>2011-07-09T11:40:30Z</time>
      </trkpt>
      <trkpt lat="45.877709565684199" lon="7.406170601025224">
        <ele>2038.1323242000001</ele>
        <time>2011-07-09T11:40:01Z</time>
      </trkpt>
      <trkpt lat="45.877533461898565" lon="7.405969016253948">
        <ele>2034.7678223</ele>
        <time>2011-07-09T11:39:33Z</time>
      </trkpt>
      <trkpt lat="45.877330871298909" lon="7.405780171975493">
        <ele>2032.3645019999999</ele>
        <time>2011-07-09T11:39:07Z</time>
      </trkpt>
      <trkpt lat="45.877173962071538" lon="7.405643714591861">
        <ele>2030.9226074000001</ele>
        <time>2011-07-09T11:38:46Z</time>
      </trkpt>
      <trkpt lat="45.877162897959352" lon="7.405614964663982">
        <ele>2028.0385742000001</ele>
        <time>2011-07-09T11:33:44Z</time>
      </trkpt>
      <trkpt lat="45.876996265724301" lon="7.405431736260653">
        <ele>2025.1542969</ele>
        <time>2011-07-09T11:33:16Z</time>
      </trkpt>
      <trkpt lat="45.876929629594088" lon="7.405208861455321">
        <ele>2022.7512207</ele>
        <time>2011-07-09T11:32:56Z</time>
      </trkpt>
      <trkpt lat="45.876853941008449" lon="7.40480862557888">
        <ele>2021.309082</ele>
        <time>2011-07-09T11:32:25Z</time>
      </trkpt>
      <trkpt lat="45.876704910770059" lon="7.404532860964537">
        <ele>2017.9445800999999</ele>
        <time>2011-07-09T11:31:53Z</time>
      </trkpt>
      <trkpt lat="45.87661212310195" lon="7.404412664473057">
        <ele>2015.0607910000001</ele>
        <time>2011-07-09T11:31:35Z</time>
      </trkpt>
      <trkpt lat="45.876472564414144" lon="7.404474522918463">
        <ele>2013.6186522999999</ele>
        <time>2011-07-09T11:31:15Z</time>
      </trkpt>
      <trkpt lat="45.876574572175741" lon="7.404710808768868">
        <ele>2010.7346190999999</ele>
        <time>2011-07-09T11:30:48Z</time>
      </trkpt>
      <trkpt lat="45.876601478084922" lon="7.404956482350826">
        <ele>2007.3701172000001</ele>
        <time>2011-07-09T11:30:24Z</time>
      </trkpt>
      <trkpt lat="45.876588821411133" lon="7.405198635533452">
        <ele>2004.0056152</ele>
        <time>2011-07-09T11:30:01Z</time>
      </trkpt>
      <trkpt lat="45.876598795875907" lon="7.405432490631938">
        <ele>2001.121582</ele>
        <time>2011-07-09T11:29:40Z</time>
      </trkpt>
      <trkpt lat="45.876542637124658" lon="7.405615970492363">
        <ele>1998.7182617000001</ele>
        <time>2011-07-09T11:29:19Z</time>
      </trkpt>
      <trkpt lat="45.876462841406465" lon="7.405411284416914">
        <ele>1995.8342285000001</ele>
        <time>2011-07-09T11:28:54Z</time>
      </trkpt>
      <trkpt lat="45.87643425911665" lon="7.405211208388209">
        <ele>1993.9116211</ele>
        <time>2011-07-09T11:28:38Z</time>
      </trkpt>
      <trkpt lat="45.876284390687943" lon="7.404860509559512">
        <ele>1990.546875</ele>
        <time>2011-07-09T11:28:06Z</time>
      </trkpt>
      <trkpt lat="45.876119770109653" lon="7.404615674167872">
        <ele>1987.6630858999999</ele>
        <time>2011-07-09T11:27:38Z</time>
      </trkpt>
      <trkpt lat="45.876112058758736" lon="7.404557168483734">
        <ele>1987.6630858999999</ele>
        <time>2011-07-09T11:27:34Z</time>
      </trkpt>
      <trkpt lat="45.876139383763075" lon="7.404234800487757">
        <ele>1985.7404785000001</ele>
        <time>2011-07-09T11:27:12Z</time>
      </trkpt>
      <trkpt lat="45.876268884167075" lon="7.403898099437356">
        <ele>1984.2985839999999</ele>
        <time>2011-07-09T11:26:45Z</time>
      </trkpt>
      <trkpt lat="45.876372065395117" lon="7.403533738106489">
        <ele>1981.8952637</ele>
        <time>2011-07-09T11:26:15Z</time>
      </trkpt>
      <trkpt lat="45.87644306011498" lon="7.403333326801658">
        <ele>1980.934082</ele>
        <time>2011-07-09T11:25:56Z</time>
      </trkpt>
      <trkpt lat="45.876520005986094" lon="7.403061836957932">
        <ele>1977.5690918</ele>
        <time>2011-07-09T11:25:29Z</time>
      </trkpt>
      <trkpt lat="45.87644062936306" lon="7.402672665193677">
        <ele>1974.6853027</ele>
        <time>2011-07-09T11:24:58Z</time>
      </trkpt>
      <trkpt lat="45.876383632421494" lon="7.40235080011189">
        <ele>1971.3205565999999</ele>
        <time>2011-07-09T11:24:26Z</time>
      </trkpt>
      <trkpt lat="45.876258658245206" lon="7.402030359953642">
        <ele>1968.4367675999999</ele>
        <time>2011-07-09T11:23:51Z</time>
      </trkpt>
      <trkpt lat="45.876062521710992" lon="7.40173758007586">
        <ele>1965.0722656</ele>
        <time>2011-07-09T11:23:10Z</time>
      </trkpt>
      <trkpt lat="45.875934613868594" lon="7.401541527360678">
        <ele>1962.1879882999999</ele>
        <time>2011-07-09T11:22:45Z</time>
      </trkpt>
      <trkpt lat="45.875860769301653" lon="7.40134472027421">
        <ele>1958.8234863</ele>
        <time>2011-07-09T11:22:21Z</time>
      </trkpt>
      <trkpt lat="45.875820787623525" lon="7.401057975366712">
        <ele>1956.9008789</ele>
        <time>2011-07-09T11:21:53Z</time>
      </trkpt>
      <trkpt lat="45.875750379636884" lon="7.400794867426157">
        <ele>1953.5363769999999</ele>
        <time>2011-07-09T11:21:31Z</time>
      </trkpt>
      <trkpt lat="45.875651137903333" lon="7.400674503296614">
        <ele>1952.0942382999999</ele>
        <time>2011-07-09T11:21:12Z</time>
      </trkpt>
      <trkpt lat="45.875510405749083" lon="7.400481132790446">
        <ele>1951.1330565999999</ele>
        <time>2011-07-09T11:20:50Z</time>
      </trkpt>
      <trkpt lat="45.875424826517701" lon="7.400353224948049">
        <ele>1950.171875</ele>
        <time>2011-07-09T11:20:34Z</time>
      </trkpt>
      <trkpt lat="45.875255595892668" lon="7.400041669607163">
        <ele>1948.7297363</ele>
        <time>2011-07-09T11:20:01Z</time>
      </trkpt>
      <trkpt lat="45.875168424099684" lon="7.399817872792482">
        <ele>1945.3649902</ele>
        <time>2011-07-09T11:19:33Z</time>
      </trkpt>
      <trkpt lat="45.875095166265965" lon="7.399453762918711">
        <ele>1943.4423827999999</ele>
        <time>2011-07-09T11:19:01Z</time>
      </trkpt>
      <trkpt lat="45.87496692314744" lon="7.39928268827498">
        <ele>1940.0778809000001</ele>
        <time>2011-07-09T11:18:35Z</time>
      </trkpt>
      <trkpt lat="45.874797021970153" lon="7.399179004132748">
        <ele>1937.1938477000001</ele>
        <time>2011-07-09T11:18:04Z</time>
      </trkpt>
      <trkpt lat="45.874649835750461" lon="7.399165760725737">
        <ele>1933.8293457</ele>
        <time>2011-07-09T11:17:42Z</time>
      </trkpt>
      <trkpt lat="45.874506924301386" lon="7.399144722148776">
        <ele>1930.9453125</ele>
        <time>2011-07-09T11:17:18Z</time>
      </trkpt>
      <trkpt lat="45.874342303723097" lon="7.399120833724737">
        <ele>1927.5805664</ele>
        <time>2011-07-09T11:16:57Z</time>
      </trkpt>
      <trkpt lat="45.874178437516093" lon="7.399062914773822">
        <ele>1924.6967772999999</ele>
        <time>2011-07-09T11:16:33Z</time>
      </trkpt>
      <trkpt lat="45.874095289036632" lon="7.39918302744627">
        <ele>1922.293457</ele>
        <time>2011-07-09T11:16:10Z</time>
      </trkpt>
      <trkpt lat="45.874207941815257" lon="7.399321496486664">
        <ele>1918.9289550999999</ele>
        <time>2011-07-09T11:15:51Z</time>
      </trkpt>
      <trkpt lat="45.874352362006903" lon="7.399451835080981">
        <ele>1915.5642089999999</ele>
        <time>2011-07-09T11:15:20Z</time>
      </trkpt>
      <trkpt lat="45.87443869560957" lon="7.399641266092658">
        <ele>1912.6801757999999</ele>
        <time>2011-07-09T11:14:57Z</time>
      </trkpt>
      <trkpt lat="45.874548582360148" lon="7.399882832542062">
        <ele>1909.3156738</ele>
        <time>2011-07-09T11:14:27Z</time>
      </trkpt>
      <trkpt lat="45.874628964811563" lon="7.400085339322686">
        <ele>1906.4316406</ele>
        <time>2011-07-09T11:14:03Z</time>
      </trkpt>
      <trkpt lat="45.87472309358418" lon="7.40029807202518">
        <ele>1903.0671387</ele>
        <time>2011-07-09T11:13:42Z</time>
      </trkpt>
      <trkpt lat="45.874737929552794" lon="7.40042463876307">
        <ele>1900.1833495999999</ele>
        <time>2011-07-09T11:13:19Z</time>
      </trkpt>
      <trkpt lat="45.874706665053964" lon="7.400584062561393">
        <ele>1896.8183594</ele>
        <time>2011-07-09T11:12:57Z</time>
      </trkpt>
      <trkpt lat="45.874581523239613" lon="7.400416508316994">
        <ele>1893.4538574000001</ele>
        <time>2011-07-09T11:12:28Z</time>
      </trkpt>
      <trkpt lat="45.874464511871338" lon="7.400337131693959">
        <ele>1890.5698242000001</ele>
        <time>2011-07-09T11:12:08Z</time>
      </trkpt>
      <trkpt lat="45.874327635392547" lon="7.400274937972426">
        <ele>1887.2053223</ele>
        <time>2011-07-09T11:11:44Z</time>
      </trkpt>
      <trkpt lat="45.874168127775192" lon="7.400201009586453">
        <ele>1883.8405762</ele>
        <time>2011-07-09T11:11:17Z</time>
      </trkpt>
      <trkpt lat="45.874075088649988" lon="7.4001001752913">
        <ele>1880.4760742000001</ele>
        <time>2011-07-09T11:10:55Z</time>
      </trkpt>
      <trkpt lat="45.87399261072278" lon="7.399993389844894">
        <ele>1877.5920410000001</ele>
        <time>2011-07-09T11:10:36Z</time>
      </trkpt>
      <trkpt lat="45.873768981546164" lon="7.399863386526704">
        <ele>1873.7468262</ele>
        <time>2011-07-09T11:10:09Z</time>
      </trkpt>
      <trkpt lat="45.873606791719794" lon="7.399767162278295">
        <ele>1870.8630370999999</ele>
        <time>2011-07-09T11:09:40Z</time>
      </trkpt>
      <trkpt lat="45.873496402055025" lon="7.399643361568451">
        <ele>1867.4980469</ele>
        <time>2011-07-09T11:09:20Z</time>
      </trkpt>
      <trkpt lat="45.873373607173562" lon="7.399482009932399">
        <ele>1864.1335449000001</ele>
        <time>2011-07-09T11:08:55Z</time>
      </trkpt>
      <trkpt lat="45.873251734301448" lon="7.399325771257281">
        <ele>1860.769043</ele>
        <time>2011-07-09T11:08:32Z</time>
      </trkpt>
      <trkpt lat="45.873166741803288" lon="7.399236001074314">
        <ele>1857.8852539</ele>
        <time>2011-07-09T11:08:09Z</time>
      </trkpt>
      <trkpt lat="45.873020309954882" lon="7.399090072140098">
        <ele>1854.5205077999999</ele>
        <time>2011-07-09T11:07:45Z</time>
      </trkpt>
      <trkpt lat="45.872935736551881" lon="7.399181602522731">
        <ele>1851.6364745999999</ele>
        <time>2011-07-09T11:07:20Z</time>
      </trkpt>
      <trkpt lat="45.873021734878421" lon="7.399332141503692">
        <ele>1848.2717285000001</ele>
        <time>2011-07-09T11:06:54Z</time>
      </trkpt>
      <trkpt lat="45.873056435957551" lon="7.399574294686317">
        <ele>1844.9072266000001</ele>
        <time>2011-07-09T11:06:28Z</time>
      </trkpt>
      <trkpt lat="45.873108236119151" lon="7.399803875014186">
        <ele>1841.5427245999999</ele>
        <time>2011-07-09T11:06:04Z</time>
      </trkpt>
      <trkpt lat="45.873192306607962" lon="7.400036472827196">
        <ele>1838.6589355000001</ele>
        <time>2011-07-09T11:05:37Z</time>
      </trkpt>
      <trkpt lat="45.873225331306458" lon="7.400260521098971">
        <ele>1835.2939452999999</ele>
        <time>2011-07-09T11:05:13Z</time>
      </trkpt>
      <trkpt lat="45.873246202245355" lon="7.400668216869235">
        <ele>1832.4101562999999</ele>
        <time>2011-07-09T11:04:39Z</time>
      </trkpt>
      <trkpt lat="45.873276460915804" lon="7.4009117949754">
        <ele>1828.5649414</ele>
        <time>2011-07-09T11:04:17Z</time>
      </trkpt>
      <trkpt lat="45.873322980478406" lon="7.401134418323636">
        <ele>1825.2001952999999</ele>
        <time>2011-07-09T11:03:55Z</time>
      </trkpt>
      <trkpt lat="45.873207729309797" lon="7.401168867945671">
        <ele>1821.8356934000001</ele>
        <time>2011-07-09T11:03:30Z</time>
      </trkpt>
      <trkpt lat="45.873112259432673" lon="7.401067614555359">
        <ele>1817.9902344</ele>
        <time>2011-07-09T11:03:12Z</time>
      </trkpt>
      <trkpt lat="45.873054675757885" lon="7.400969881564379">
        <ele>1816.5483397999999</ele>
        <time>2011-07-09T11:02:51Z</time>
      </trkpt>
      <trkpt lat="45.872972281649709" lon="7.400818923488259">
        <ele>1813.1838379000001</ele>
        <time>2011-07-09T11:02:34Z</time>
      </trkpt>
      <trkpt lat="45.872889636084437" lon="7.400668300688267">
        <ele>1810.2998047000001</ele>
        <time>2011-07-09T11:02:16Z</time>
      </trkpt>
      <trkpt lat="45.872779497876763" lon="7.400509882718325">
        <ele>1806.9353027</ele>
        <time>2011-07-09T11:01:50Z</time>
      </trkpt>
      <trkpt lat="45.872665923088789" lon="7.40040116943419">
        <ele>1804.0515137</ele>
        <time>2011-07-09T11:01:30Z</time>
      </trkpt>
      <trkpt lat="45.872514713555574" lon="7.40009187720716">
        <ele>1800.6865233999999</ele>
        <time>2011-07-09T11:01:06Z</time>
      </trkpt>
      <trkpt lat="45.872477078810334" lon="7.399915438145399">
        <ele>1797.3220214999999</ele>
        <time>2011-07-09T11:00:45Z</time>
      </trkpt>
      <trkpt lat="45.872331066057086" lon="7.399914180859923">
        <ele>1793.9575195</ele>
        <time>2011-07-09T11:00:21Z</time>
      </trkpt>
      <trkpt lat="45.872298208996654" lon="7.400089027360082">
        <ele>1791.0734863</ele>
        <time>2011-07-09T11:00:03Z</time>
      </trkpt>
      <trkpt lat="45.872264178469777" lon="7.400324977934361">
        <ele>1787.7087402</ele>
        <time>2011-07-09T10:59:42Z</time>
      </trkpt>
      <trkpt lat="45.87230977602303" lon="7.40047543309629">
        <ele>1785.3054199000001</ele>
        <time>2011-07-09T10:59:30Z</time>
      </trkpt>
      <trkpt lat="45.872349506244063" lon="7.400637539103627">
        <ele>1782.4216309000001</ele>
        <time>2011-07-09T10:59:15Z</time>
      </trkpt>
      <trkpt lat="45.872225621715188" lon="7.400619182735682">
        <ele>1780.0183105000001</ele>
        <time>2011-07-09T10:58:54Z</time>
      </trkpt>
      <trkpt lat="45.872073071077466" lon="7.40036646835506">
        <ele>1776.6538086</ele>
        <time>2011-07-09T10:58:30Z</time>
      </trkpt>
      <trkpt lat="45.871998891234398" lon="7.400213163346052">
        <ele>1774.7312012</ele>
        <time>2011-07-09T10:57:58Z</time>
      </trkpt>
      <trkpt lat="45.871929237619042" lon="7.399953911080957">
        <ele>1771.8469238</ele>
        <time>2011-07-09T10:57:39Z</time>
      </trkpt>
      <trkpt lat="45.871916329488158" lon="7.399919964373112">
        <ele>1769.9243164</ele>
        <time>2011-07-09T10:56:56Z</time>
      </trkpt>
      <trkpt lat="45.871870229020715" lon="7.400192962959409">
        <ele>1766.5598144999999</ele>
        <time>2011-07-09T10:56:29Z</time>
      </trkpt>
      <trkpt lat="45.871837958693504" lon="7.4005042668432">
        <ele>1763.6757812999999</ele>
        <time>2011-07-09T10:56:00Z</time>
      </trkpt>
      <trkpt lat="45.871800910681486" lon="7.400684980675578">
        <ele>1760.3112793</ele>
        <time>2011-07-09T10:55:40Z</time>
      </trkpt>
      <trkpt lat="45.871747937053442" lon="7.400497561320663">
        <ele>1758.3886719</ele>
        <time>2011-07-09T10:55:16Z</time>
      </trkpt>
      <trkpt lat="45.871718265116215" lon="7.400270579382777">
        <ele>1755.0239257999999</ele>
        <time>2011-07-09T10:54:57Z</time>
      </trkpt>
      <trkpt lat="45.871590273454785" lon="7.400186005979776">
        <ele>1752.1398925999999</ele>
        <time>2011-07-09T10:54:37Z</time>
      </trkpt>
      <trkpt lat="45.871514668688178" lon="7.400437379255891">
        <ele>1749.2561035000001</ele>
        <time>2011-07-09T10:54:15Z</time>
      </trkpt>
      <trkpt lat="45.871459431946278" lon="7.400711383670569">
        <ele>1747.3334961</ele>
        <time>2011-07-09T10:53:53Z</time>
      </trkpt>
      <trkpt lat="45.871482063084841" lon="7.400878937914968">
        <ele>1743.9689940999999</ele>
        <time>2011-07-09T10:53:40Z</time>
      </trkpt>
      <trkpt lat="45.871346108615398" lon="7.400784725323319">
        <ele>1741.5656738</ele>
        <time>2011-07-09T10:53:19Z</time>
      </trkpt>
      <trkpt lat="45.87139162234962" lon="7.400811379775405">
        <ele>1741.5656738</ele>
        <time>2011-07-09T10:53:07Z</time>
      </trkpt>
      <trkpt lat="45.87130025960505" lon="7.40050476975739">
        <ele>1738.6816406</ele>
        <time>2011-07-09T10:52:38Z</time>
      </trkpt>
      <trkpt lat="45.871266731992364" lon="7.400184664875269">
        <ele>1735.7976074000001</ele>
        <time>2011-07-09T10:52:16Z</time>
      </trkpt>
      <trkpt lat="45.871167406439781" lon="7.40043050609529">
        <ele>1733.3942870999999</ele>
        <time>2011-07-09T10:51:53Z</time>
      </trkpt>
      <trkpt lat="45.871146284043789" lon="7.400551037862897">
        <ele>1733.3942870999999</ele>
        <time>2011-07-09T10:51:43Z</time>
      </trkpt>
      <trkpt lat="45.87109699845314" lon="7.400812301784754">
        <ele>1730.0297852000001</ele>
        <time>2011-07-09T10:51:20Z</time>
      </trkpt>
      <trkpt lat="45.87098996154964" lon="7.401117738336325">
        <ele>1726.6652832</ele>
        <time>2011-07-09T10:50:50Z</time>
      </trkpt>
      <trkpt lat="45.87099046446383" lon="7.401414876803756">
        <ele>1723.3005370999999</ele>
        <time>2011-07-09T10:50:27Z</time>
      </trkpt>
      <trkpt lat="45.871110828593373" lon="7.401733808219433">
        <ele>1721.3776855000001</ele>
        <time>2011-07-09T10:49:57Z</time>
      </trkpt>
      <trkpt lat="45.871233874931931" lon="7.40193011239171">
        <ele>1718.4938964999999</ele>
        <time>2011-07-09T10:49:34Z</time>
      </trkpt>
      <trkpt lat="45.871169921010733" lon="7.402197495102882">
        <ele>1715.1293945</ele>
        <time>2011-07-09T10:49:12Z</time>
      </trkpt>
      <trkpt lat="45.871116695925593" lon="7.402230435982347">
        <ele>1712.7260742000001</ele>
        <time>2011-07-09T10:48:56Z</time>
      </trkpt>
      <trkpt lat="45.87099289521575" lon="7.401937237009406">
        <ele>1710.3227539</ele>
        <time>2011-07-09T10:48:33Z</time>
      </trkpt>
      <trkpt lat="45.870773540809751" lon="7.401769515126944">
        <ele>1706.9580077999999</ele>
        <time>2011-07-09T10:48:08Z</time>
      </trkpt>
      <trkpt lat="45.870527029037476" lon="7.401494840160012">
        <ele>1704.5546875</ele>
        <time>2011-07-09T10:47:39Z</time>
      </trkpt>
      <trkpt lat="45.870467601343989" lon="7.401108937337995">
        <ele>1704.0742187999999</ele>
        <time>2011-07-09T10:47:12Z</time>
      </trkpt>
      <trkpt lat="45.870454860851169" lon="7.400979185476899">
        <ele>1702.1513672000001</ele>
        <time>2011-07-09T10:46:55Z</time>
      </trkpt>
      <trkpt lat="45.870423763990402" lon="7.4006631039083">
        <ele>1699.2675781</ele>
        <time>2011-07-09T10:46:28Z</time>
      </trkpt>
      <trkpt lat="45.870359558612108" lon="7.400464117527008">
        <ele>1698.7868652</ele>
        <time>2011-07-09T10:46:12Z</time>
      </trkpt>
      <trkpt lat="45.870325108990073" lon="7.400432517752051">
        <ele>1698.3061522999999</ele>
        <time>2011-07-09T10:42:54Z</time>
      </trkpt>
      <trkpt lat="45.870325108990073" lon="7.40043243393302">
        <ele>1701.1901855000001</ele>
        <time>2011-07-09T10:42:53Z</time>
      </trkpt>
      <trkpt lat="45.870325108990073" lon="7.400432266294956">
        <ele>1695.4223632999999</ele>
        <time>2011-07-09T10:42:52Z</time>
      </trkpt>
      <trkpt lat="45.87032494135201" lon="7.400432014837861">
        <ele>1698.7868652</ele>
        <time>2011-07-09T10:42:49Z</time>
      </trkpt>
      <trkpt lat="45.870321337133646" lon="7.400430338457227">
        <ele>1697.3449707</ele>
        <time>2011-07-09T10:42:30Z</time>
      </trkpt>
      <trkpt lat="45.870320834219456" lon="7.400430170819163">
        <ele>1692.0578613</ele>
        <time>2011-07-09T10:42:29Z</time>
      </trkpt>
      <trkpt lat="45.870317397639155" lon="7.400466464459896">
        <ele>1697.3449707</ele>
        <time>2011-07-09T10:41:54Z</time>
      </trkpt>
      <trkpt lat="45.87023600935936" lon="7.400540979579091">
        <ele>1696.8642577999999</ele>
        <time>2011-07-09T10:40:58Z</time>
      </trkpt>
      <trkpt lat="45.870345728471875" lon="7.400482641533017">
        <ele>1697.3449707</ele>
        <time>2011-07-09T10:40:01Z</time>
      </trkpt>
      <trkpt lat="45.870375400409102" lon="7.400429584085941">
        <ele>1696.8642577999999</ele>
        <time>2011-07-09T10:39:03Z</time>
      </trkpt>
      <trkpt lat="45.870338687673211" lon="7.400410138070583">
        <ele>1696.3837891000001</ele>
        <time>2011-07-09T10:38:15Z</time>
      </trkpt>
      <trkpt lat="45.870352266356349" lon="7.40043880417943">
        <ele>1696.3837891000001</ele>
        <time>2011-07-09T10:38:01Z</time>
      </trkpt>
      <trkpt lat="45.870381519198418" lon="7.400427991524339">
        <ele>1696.3837891000001</ele>
        <time>2011-07-09T10:37:41Z</time>
      </trkpt>
      <trkpt lat="45.87034597992897" lon="7.400485323742032">
        <ele>1698.3061522999999</ele>
        <time>2011-07-09T10:37:05Z</time>
      </trkpt>
      <trkpt lat="45.870336340740323" lon="7.400450874119997">
        <ele>1696.8642577999999</ele>
        <time>2011-07-09T10:36:44Z</time>
      </trkpt>
      <trkpt lat="45.870320834219456" lon="7.400451209396124">
        <ele>1696.8642577999999</ele>
        <time>2011-07-09T10:36:34Z</time>
      </trkpt>
      <trkpt lat="45.870324438437819" lon="7.400449700653553">
        <ele>1697.8256836</ele>
        <time>2011-07-09T10:36:32Z</time>
      </trkpt>
      <trkpt lat="45.87032737210393" lon="7.400446683168411">
        <ele>1698.3061522999999</ele>
        <time>2011-07-09T10:36:31Z</time>
      </trkpt>
      <trkpt lat="45.870308512821794" lon="7.400484485551715">
        <ele>1696.3837891000001</ele>
        <time>2011-07-09T10:35:41Z</time>
      </trkpt>
    </trkseg>
  </trk>

  <trk>
    <name>rifugio-crete-seche</name>
    <extensions>
      <gpxx:TrackExtension>
        <gpxx:DisplayColor>Yellow</gpxx:DisplayColor>
      </gpxx:TrackExtension>
    </extensions>
    <trkseg>
      <trkpt lat="45.870308512821794" lon="7.400484485551715">
        <ele>1696.3837891000001</ele>
        <time>2011-07-09T10:35:41Z</time>
      </trkpt>
      <trkpt lat="45.87032737210393" lon="7.400446683168411">
        <ele>1698.3061522999999</ele>
        <time>2011-07-09T10:36:31Z</time>
      </trkpt>
      <trkpt lat="45.870324438437819" lon="7.400449700653553">
        <ele>1697.8256836</ele>
        <time>2011-07-09T10:36:32Z</time>
      </trkpt>
      <trkpt lat="45.870320834219456" lon="7.400451209396124">
        <ele>1696.8642577999999</ele>
        <time>2011-07-09T10:36:34Z</time>
      </trkpt>
      <trkpt lat="45.870336340740323" lon="7.400450874119997">
        <ele>1696.8642577999999</ele>
        <time>2011-07-09T10:36:44Z</time>
      </trkpt>
      <trkpt lat="45.87034597992897" lon="7.400485323742032">
        <ele>1698.3061522999999</ele>
        <time>2011-07-09T10:37:05Z</time>
      </trkpt>
      <trkpt lat="45.870381519198418" lon="7.400427991524339">
        <ele>1696.3837891000001</ele>
        <time>2011-07-09T10:37:41Z</time>
      </trkpt>
      <trkpt lat="45.870352266356349" lon="7.40043880417943">
        <ele>1696.3837891000001</ele>
        <time>2011-07-09T10:38:01Z</time>
      </trkpt>
      <trkpt lat="45.870338687673211" lon="7.400410138070583">
        <ele>1696.3837891000001</ele>
        <time>2011-07-09T10:38:15Z</time>
      </trkpt>
      <trkpt lat="45.870375400409102" lon="7.400429584085941">
        <ele>1696.8642577999999</ele>
        <time>2011-07-09T10:39:03Z</time>
      </trkpt>
      <trkpt lat="45.870345728471875" lon="7.400482641533017">
        <ele>1697.3449707</ele>
        <time>2011-07-09T10:40:01Z</time>
      </trkpt>
      <trkpt lat="45.87023600935936" lon="7.400540979579091">
        <ele>1696.8642577999999</ele>
        <time>2011-07-09T10:40:58Z</time>
      </trkpt>
      <trkpt lat="45.870317397639155" lon="7.400466464459896">
        <ele>1697.3449707</ele>
        <time>2011-07-09T10:41:54Z</time>
      </trkpt>
      <trkpt lat="45.870320834219456" lon="7.400430170819163">
        <ele>1692.0578613</ele>
        <time>2011-07-09T10:42:29Z</time>
      </trkpt>
      <trkpt lat="45.870321337133646" lon="7.400430338457227">
        <ele>1697.3449707</ele>
        <time>2011-07-09T10:42:30Z</time>
      </trkpt>
      <trkpt lat="45.87032494135201" lon="7.400432014837861">
        <ele>1698.7868652</ele>
        <time>2011-07-09T10:42:49Z</time>
      </trkpt>
      <trkpt lat="45.870325108990073" lon="7.400432266294956">
        <ele>1695.4223632999999</ele>
        <time>2011-07-09T10:42:52Z</time>
      </trkpt>
      <trkpt lat="45.870325108990073" lon="7.40043243393302">
        <ele>1701.1901855000001</ele>
        <time>2011-07-09T10:42:53Z</time>
      </trkpt>
      <trkpt lat="45.870325108990073" lon="7.400432517752051">
        <ele>1698.3061522999999</ele>
        <time>2011-07-09T10:42:54Z</time>
      </trkpt>
      <trkpt lat="45.870359558612108" lon="7.400464117527008">
        <ele>1698.7868652</ele>
        <time>2011-07-09T10:46:12Z</time>
      </trkpt>
      <trkpt lat="45.870423763990402" lon="7.4006631039083">
        <ele>1699.2675781</ele>
        <time>2011-07-09T10:46:28Z</time>
      </trkpt>
      <trkpt lat="45.870454860851169" lon="7.400979185476899">
        <ele>1702.1513672000001</ele>
        <time>2011-07-09T10:46:55Z</time>
      </trkpt>
      <trkpt lat="45.870467601343989" lon="7.401108937337995">
        <ele>1704.0742187999999</ele>
        <time>2011-07-09T10:47:12Z</time>
      </trkpt>
      <trkpt lat="45.870527029037476" lon="7.401494840160012">
        <ele>1704.5546875</ele>
        <time>2011-07-09T10:47:39Z</time>
      </trkpt>
      <trkpt lat="45.870773540809751" lon="7.401769515126944">
        <ele>1706.9580077999999</ele>
        <time>2011-07-09T10:48:08Z</time>
      </trkpt>
      <trkpt lat="45.87099289521575" lon="7.401937237009406">
        <ele>1710.3227539</ele>
        <time>2011-07-09T10:48:33Z</time>
      </trkpt>
      <trkpt lat="45.871116695925593" lon="7.402230435982347">
        <ele>1712.7260742000001</ele>
        <time>2011-07-09T10:48:56Z</time>
      </trkpt>
      <trkpt lat="45.871169921010733" lon="7.402197495102882">
        <ele>1715.1293945</ele>
        <time>2011-07-09T10:49:12Z</time>
      </trkpt>
      <trkpt lat="45.871233874931931" lon="7.40193011239171">
        <ele>1718.4938964999999</ele>
        <time>2011-07-09T10:49:34Z</time>
      </trkpt>
      <trkpt lat="45.871110828593373" lon="7.401733808219433">
        <ele>1721.3776855000001</ele>
        <time>2011-07-09T10:49:57Z</time>
      </trkpt>
      <trkpt lat="45.87099046446383" lon="7.401414876803756">
        <ele>1723.3005370999999</ele>
        <time>2011-07-09T10:50:27Z</time>
      </trkpt>
      <trkpt lat="45.87098996154964" lon="7.401117738336325">
        <ele>1726.6652832</ele>
        <time>2011-07-09T10:50:50Z</time>
      </trkpt>
      <trkpt lat="45.87109699845314" lon="7.400812301784754">
        <ele>1730.0297852000001</ele>
        <time>2011-07-09T10:51:20Z</time>
      </trkpt>
      <trkpt lat="45.871146284043789" lon="7.400551037862897">
        <ele>1733.3942870999999</ele>
        <time>2011-07-09T10:51:43Z</time>
      </trkpt>
      <trkpt lat="45.871167406439781" lon="7.40043050609529">
        <ele>1733.3942870999999</ele>
        <time>2011-07-09T10:51:53Z</time>
      </trkpt>
      <trkpt lat="45.871266731992364" lon="7.400184664875269">
        <ele>1735.7976074000001</ele>
        <time>2011-07-09T10:52:16Z</time>
      </trkpt>
      <trkpt lat="45.87130025960505" lon="7.40050476975739">
        <ele>1738.6816406</ele>
        <time>2011-07-09T10:52:38Z</time>
      </trkpt>
      <trkpt lat="45.87139162234962" lon="7.400811379775405">
        <ele>1741.5656738</ele>
        <time>2011-07-09T10:53:07Z</time>
      </trkpt>
      <trkpt lat="45.871346108615398" lon="7.400784725323319">
        <ele>1741.5656738</ele>
        <time>2011-07-09T10:53:19Z</time>
      </trkpt>
      <trkpt lat="45.871482063084841" lon="7.400878937914968">
        <ele>1743.9689940999999</ele>
        <time>2011-07-09T10:53:40Z</time>
      </trkpt>
      <trkpt lat="45.871459431946278" lon="7.400711383670569">
        <ele>1747.3334961</ele>
        <time>2011-07-09T10:53:53Z</time>
      </trkpt>
      <trkpt lat="45.871514668688178" lon="7.400437379255891">
        <ele>1749.2561035000001</ele>
        <time>2011-07-09T10:54:15Z</time>
      </trkpt>
      <trkpt lat="45.871590273454785" lon="7.400186005979776">
        <ele>1752.1398925999999</ele>
        <time>2011-07-09T10:54:37Z</time>
      </trkpt>
      <trkpt lat="45.871718265116215" lon="7.400270579382777">
        <ele>1755.0239257999999</ele>
        <time>2011-07-09T10:54:57Z</time>
      </trkpt>
      <trkpt lat="45.871747937053442" lon="7.400497561320663">
        <ele>1758.3886719</ele>
        <time>2011-07-09T10:55:16Z</time>
      </trkpt>
      <trkpt lat="45.871800910681486" lon="7.400684980675578">
        <ele>1760.3112793</ele>
        <time>2011-07-09T10:55:40Z</time>
      </trkpt>
      <trkpt lat="45.871837958693504" lon="7.4005042668432">
        <ele>1763.6757812999999</ele>
        <time>2011-07-09T10:56:00Z</time>
      </trkpt>
      <trkpt lat="45.871870229020715" lon="7.400192962959409">
        <ele>1766.5598144999999</ele>
        <time>2011-07-09T10:56:29Z</time>
      </trkpt>
      <trkpt lat="45.871916329488158" lon="7.399919964373112">
        <ele>1769.9243164</ele>
        <time>2011-07-09T10:56:56Z</time>
      </trkpt>
      <trkpt lat="45.871929237619042" lon="7.399953911080957">
        <ele>1771.8469238</ele>
        <time>2011-07-09T10:57:39Z</time>
      </trkpt>
      <trkpt lat="45.871998891234398" lon="7.400213163346052">
        <ele>1774.7312012</ele>
        <time>2011-07-09T10:57:58Z</time>
      </trkpt>
      <trkpt lat="45.872073071077466" lon="7.40036646835506">
        <ele>1776.6538086</ele>
        <time>2011-07-09T10:58:30Z</time>
      </trkpt>
      <trkpt lat="45.872225621715188" lon="7.400619182735682">
        <ele>1780.0183105000001</ele>
        <time>2011-07-09T10:58:54Z</time>
      </trkpt>
      <trkpt lat="45.872349506244063" lon="7.400637539103627">
        <ele>1782.4216309000001</ele>
        <time>2011-07-09T10:59:15Z</time>
      </trkpt>
      <trkpt lat="45.87230977602303" lon="7.40047543309629">
        <ele>1785.3054199000001</ele>
        <time>2011-07-09T10:59:30Z</time>
      </trkpt>
      <trkpt lat="45.872264178469777" lon="7.400324977934361">
        <ele>1787.7087402</ele>
        <time>2011-07-09T10:59:42Z</time>
      </trkpt>
      <trkpt lat="45.872298208996654" lon="7.400089027360082">
        <ele>1791.0734863</ele>
        <time>2011-07-09T11:00:03Z</time>
      </trkpt>
      <trkpt lat="45.872331066057086" lon="7.399914180859923">
        <ele>1793.9575195</ele>
        <time>2011-07-09T11:00:21Z</time>
      </trkpt>
      <trkpt lat="45.872477078810334" lon="7.399915438145399">
        <ele>1797.3220214999999</ele>
        <time>2011-07-09T11:00:45Z</time>
      </trkpt>
      <trkpt lat="45.872514713555574" lon="7.40009187720716">
        <ele>1800.6865233999999</ele>
        <time>2011-07-09T11:01:06Z</time>
      </trkpt>
      <trkpt lat="45.872665923088789" lon="7.40040116943419">
        <ele>1804.0515137</ele>
        <time>2011-07-09T11:01:30Z</time>
      </trkpt>
      <trkpt lat="45.872779497876763" lon="7.400509882718325">
        <ele>1806.9353027</ele>
        <time>2011-07-09T11:01:50Z</time>
      </trkpt>
      <trkpt lat="45.872889636084437" lon="7.400668300688267">
        <ele>1810.2998047000001</ele>
        <time>2011-07-09T11:02:16Z</time>
      </trkpt>
      <trkpt lat="45.872972281649709" lon="7.400818923488259">
        <ele>1813.1838379000001</ele>
        <time>2011-07-09T11:02:34Z</time>
      </trkpt>
      <trkpt lat="45.873054675757885" lon="7.400969881564379">
        <ele>1816.5483397999999</ele>
        <time>2011-07-09T11:02:51Z</time>
      </trkpt>
      <trkpt lat="45.873112259432673" lon="7.401067614555359">
        <ele>1817.9902344</ele>
        <time>2011-07-09T11:03:12Z</time>
      </trkpt>
      <trkpt lat="45.873207729309797" lon="7.401168867945671">
        <ele>1821.8356934000001</ele>
        <time>2011-07-09T11:03:30Z</time>
      </trkpt>
      <trkpt lat="45.873322980478406" lon="7.401134418323636">
        <ele>1825.2001952999999</ele>
        <time>2011-07-09T11:03:55Z</time>
      </trkpt>
      <trkpt lat="45.873276460915804" lon="7.4009117949754">
        <ele>1828.5649414</ele>
        <time>2011-07-09T11:04:17Z</time>
      </trkpt>
      <trkpt lat="45.873246202245355" lon="7.400668216869235">
        <ele>1832.4101562999999</ele>
        <time>2011-07-09T11:04:39Z</time>
      </trkpt>
      <trkpt lat="45.873225331306458" lon="7.400260521098971">
        <ele>1835.2939452999999</ele>
        <time>2011-07-09T11:05:13Z</time>
      </trkpt>
      <trkpt lat="45.873192306607962" lon="7.400036472827196">
        <ele>1838.6589355000001</ele>
        <time>2011-07-09T11:05:37Z</time>
      </trkpt>
      <trkpt lat="45.873108236119151" lon="7.399803875014186">
        <ele>1841.5427245999999</ele>
        <time>2011-07-09T11:06:04Z</time>
      </trkpt>
      <trkpt lat="45.873056435957551" lon="7.399574294686317">
        <ele>1844.9072266000001</ele>
        <time>2011-07-09T11:06:28Z</time>
      </trkpt>
      <trkpt lat="45.873021734878421" lon="7.399332141503692">
        <ele>1848.2717285000001</ele>
        <time>2011-07-09T11:06:54Z</time>
      </trkpt>
      <trkpt lat="45.872935736551881" lon="7.399181602522731">
        <ele>1851.6364745999999</ele>
        <time>2011-07-09T11:07:20Z</time>
      </trkpt>
      <trkpt lat="45.873020309954882" lon="7.399090072140098">
        <ele>1854.5205077999999</ele>
        <time>2011-07-09T11:07:45Z</time>
      </trkpt>
      <trkpt lat="45.873166741803288" lon="7.399236001074314">
        <ele>1857.8852539</ele>
        <time>2011-07-09T11:08:09Z</time>
      </trkpt>
      <trkpt lat="45.873251734301448" lon="7.399325771257281">
        <ele>1860.769043</ele>
        <time>2011-07-09T11:08:32Z</time>
      </trkpt>
      <trkpt lat="45.873373607173562" lon="7.399482009932399">
        <ele>1864.1335449000001</ele>
        <time>2011-07-09T11:08:55Z</time>
      </trkpt>
      <trkpt lat="45.873496402055025" lon="7.399643361568451">
        <ele>1867.4980469</ele>
        <time>2011-07-09T11:09:20Z</time>
      </trkpt>
      <trkpt lat="45.873606791719794" lon="7.399767162278295">
        <ele>1870.8630370999999</ele>
        <time>2011-07-09T11:09:40Z</time>
      </trkpt>
      <trkpt lat="45.873768981546164" lon="7.399863386526704">
        <ele>1873.7468262</ele>
        <time>2011-07-09T11:10:09Z</time>
      </trkpt>
      <trkpt lat="45.87399261072278" lon="7.399993389844894">
        <ele>1877.5920410000001</ele>
        <time>2011-07-09T11:10:36Z</time>
      </trkpt>
      <trkpt lat="45.874075088649988" lon="7.4001001752913">
        <ele>1880.4760742000001</ele>
        <time>2011-07-09T11:10:55Z</time>
      </trkpt>
      <trkpt lat="45.874168127775192" lon="7.400201009586453">
        <ele>1883.8405762</ele>
        <time>2011-07-09T11:11:17Z</time>
      </trkpt>
      <trkpt lat="45.874327635392547" lon="7.400274937972426">
        <ele>1887.2053223</ele>
        <time>2011-07-09T11:11:44Z</time>
      </trkpt>
      <trkpt lat="45.874464511871338" lon="7.400337131693959">
        <ele>1890.5698242000001</ele>
        <time>2011-07-09T11:12:08Z</time>
      </trkpt>
      <trkpt lat="45.874581523239613" lon="7.400416508316994">
        <ele>1893.4538574000001</ele>
        <time>2011-07-09T11:12:28Z</time>
      </trkpt>
      <trkpt lat="45.874706665053964" lon="7.400584062561393">
        <ele>1896.8183594</ele>
        <time>2011-07-09T11:12:57Z</time>
      </trkpt>
      <trkpt lat="45.874737929552794" lon="7.40042463876307">
        <ele>1900.1833495999999</ele>
        <time>2011-07-09T11:13:19Z</time>
      </trkpt>
      <trkpt lat="45.87472309358418" lon="7.40029807202518">
        <ele>1903.0671387</ele>
        <time>2011-07-09T11:13:42Z</time>
      </trkpt>
      <trkpt lat="45.874628964811563" lon="7.400085339322686">
        <ele>1906.4316406</ele>
        <time>2011-07-09T11:14:03Z</time>
      </trkpt>
      <trkpt lat="45.874548582360148" lon="7.399882832542062">
        <ele>1909.3156738</ele>
        <time>2011-07-09T11:14:27Z</time>
      </trkpt>
      <trkpt lat="45.87443869560957" lon="7.399641266092658">
        <ele>1912.6801757999999</ele>
        <time>2011-07-09T11:14:57Z</time>
      </trkpt>
      <trkpt lat="45.874352362006903" lon="7.399451835080981">
        <ele>1915.5642089999999</ele>
        <time>2011-07-09T11:15:20Z</time>
      </trkpt>
      <trkpt lat="45.874207941815257" lon="7.399321496486664">
        <ele>1918.9289550999999</ele>
        <time>2011-07-09T11:15:51Z</time>
      </trkpt>
      <trkpt lat="45.874095289036632" lon="7.39918302744627">
        <ele>1922.293457</ele>
        <time>2011-07-09T11:16:10Z</time>
      </trkpt>
      <trkpt lat="45.874178437516093" lon="7.399062914773822">
        <ele>1924.6967772999999</ele>
        <time>2011-07-09T11:16:33Z</time>
      </trkpt>
      <trkpt lat="45.874342303723097" lon="7.399120833724737">
        <ele>1927.5805664</ele>
        <time>2011-07-09T11:16:57Z</time>
      </trkpt>
      <trkpt lat="45.874506924301386" lon="7.399144722148776">
        <ele>1930.9453125</ele>
        <time>2011-07-09T11:17:18Z</time>
      </trkpt>
      <trkpt lat="45.874649835750461" lon="7.399165760725737">
        <ele>1933.8293457</ele>
        <time>2011-07-09T11:17:42Z</time>
      </trkpt>
      <trkpt lat="45.874797021970153" lon="7.399179004132748">
        <ele>1937.1938477000001</ele>
        <time>2011-07-09T11:18:04Z</time>
      </trkpt>
      <trkpt lat="45.87496692314744" lon="7.39928268827498">
        <ele>1940.0778809000001</ele>
        <time>2011-07-09T11:18:35Z</time>
      </trkpt>
      <trkpt lat="45.875095166265965" lon="7.399453762918711">
        <ele>1943.4423827999999</ele>
        <time>2011-07-09T11:19:01Z</time>
      </trkpt>
      <trkpt lat="45.875168424099684" lon="7.399817872792482">
        <ele>1945.3649902</ele>
        <time>2011-07-09T11:19:33Z</time>
      </trkpt>
      <trkpt lat="45.875255595892668" lon="7.400041669607163">
        <ele>1948.7297363</ele>
        <time>2011-07-09T11:20:01Z</time>
      </trkpt>
      <trkpt lat="45.875424826517701" lon="7.400353224948049">
        <ele>1950.171875</ele>
        <time>2011-07-09T11:20:34Z</time>
      </trkpt>
      <trkpt lat="45.875510405749083" lon="7.400481132790446">
        <ele>1951.1330565999999</ele>
        <time>2011-07-09T11:20:50Z</time>
      </trkpt>
      <trkpt lat="45.875651137903333" lon="7.400674503296614">
        <ele>1952.0942382999999</ele>
        <time>2011-07-09T11:21:12Z</time>
      </trkpt>
      <trkpt lat="45.875750379636884" lon="7.400794867426157">
        <ele>1953.5363769999999</ele>
        <time>2011-07-09T11:21:31Z</time>
      </trkpt>
      <trkpt lat="45.875820787623525" lon="7.401057975366712">
        <ele>1956.9008789</ele>
        <time>2011-07-09T11:21:53Z</time>
      </trkpt>
      <trkpt lat="45.875860769301653" lon="7.40134472027421">
        <ele>1958.8234863</ele>
        <time>2011-07-09T11:22:21Z</time>
      </trkpt>
      <trkpt lat="45.875934613868594" lon="7.401541527360678">
        <ele>1962.1879882999999</ele>
        <time>2011-07-09T11:22:45Z</time>
      </trkpt>
      <trkpt lat="45.876062521710992" lon="7.40173758007586">
        <ele>1965.0722656</ele>
        <time>2011-07-09T11:23:10Z</time>
      </trkpt>
      <trkpt lat="45.876258658245206" lon="7.402030359953642">
        <ele>1968.4367675999999</ele>
        <time>2011-07-09T11:23:51Z</time>
      </trkpt>
      <trkpt lat="45.876383632421494" lon="7.40235080011189">
        <ele>1971.3205565999999</ele>
        <time>2011-07-09T11:24:26Z</time>
      </trkpt>
      <trkpt lat="45.87644062936306" lon="7.402672665193677">
        <ele>1974.6853027</ele>
        <time>2011-07-09T11:24:58Z</time>
      </trkpt>
      <trkpt lat="45.876520005986094" lon="7.403061836957932">
        <ele>1977.5690918</ele>
        <time>2011-07-09T11:25:29Z</time>
      </trkpt>
      <trkpt lat="45.87644306011498" lon="7.403333326801658">
        <ele>1980.934082</ele>
        <time>2011-07-09T11:25:56Z</time>
      </trkpt>
      <trkpt lat="45.876372065395117" lon="7.403533738106489">
        <ele>1981.8952637</ele>
        <time>2011-07-09T11:26:15Z</time>
      </trkpt>
      <trkpt lat="45.876268884167075" lon="7.403898099437356">
        <ele>1984.2985839999999</ele>
        <time>2011-07-09T11:26:45Z</time>
      </trkpt>
      <trkpt lat="45.876139383763075" lon="7.404234800487757">
        <ele>1985.7404785000001</ele>
        <time>2011-07-09T11:27:12Z</time>
      </trkpt>
      <trkpt lat="45.876112058758736" lon="7.404557168483734">
        <ele>1987.6630858999999</ele>
        <time>2011-07-09T11:27:34Z</time>
      </trkpt>
      <trkpt lat="45.876119770109653" lon="7.404615674167872">
        <ele>1987.6630858999999</ele>
        <time>2011-07-09T11:27:38Z</time>
      </trkpt>
      <trkpt lat="45.876284390687943" lon="7.404860509559512">
        <ele>1990.546875</ele>
        <time>2011-07-09T11:28:06Z</time>
      </trkpt>
      <trkpt lat="45.87643425911665" lon="7.405211208388209">
        <ele>1993.9116211</ele>
        <time>2011-07-09T11:28:38Z</time>
      </trkpt>
      <trkpt lat="45.876462841406465" lon="7.405411284416914">
        <ele>1995.8342285000001</ele>
        <time>2011-07-09T11:28:54Z</time>
      </trkpt>
      <trkpt lat="45.876542637124658" lon="7.405615970492363">
        <ele>1998.7182617000001</ele>
        <time>2011-07-09T11:29:19Z</time>
      </trkpt>
      <trkpt lat="45.876598795875907" lon="7.405432490631938">
        <ele>2001.121582</ele>
        <time>2011-07-09T11:29:40Z</time>
      </trkpt>
      <trkpt lat="45.876588821411133" lon="7.405198635533452">
        <ele>2004.0056152</ele>
        <time>2011-07-09T11:30:01Z</time>
      </trkpt>
      <trkpt lat="45.876601478084922" lon="7.404956482350826">
        <ele>2007.3701172000001</ele>
        <time>2011-07-09T11:30:24Z</time>
      </trkpt>
      <trkpt lat="45.876574572175741" lon="7.404710808768868">
        <ele>2010.7346190999999</ele>
        <time>2011-07-09T11:30:48Z</time>
      </trkpt>
      <trkpt lat="45.876472564414144" lon="7.404474522918463">
        <ele>2013.6186522999999</ele>
        <time>2011-07-09T11:31:15Z</time>
      </trkpt>
      <trkpt lat="45.87661212310195" lon="7.404412664473057">
        <ele>2015.0607910000001</ele>
        <time>2011-07-09T11:31:35Z</time>
      </trkpt>
      <trkpt lat="45.876704910770059" lon="7.404532860964537">
        <ele>2017.9445800999999</ele>
        <time>2011-07-09T11:31:53Z</time>
      </trkpt>
      <trkpt lat="45.876853941008449" lon="7.40480862557888">
        <ele>2021.309082</ele>
        <time>2011-07-09T11:32:25Z</time>
      </trkpt>
      <trkpt lat="45.876929629594088" lon="7.405208861455321">
        <ele>2022.7512207</ele>
        <time>2011-07-09T11:32:56Z</time>
      </trkpt>
      <trkpt lat="45.876996265724301" lon="7.405431736260653">
        <ele>2025.1542969</ele>
        <time>2011-07-09T11:33:16Z</time>
      </trkpt>
      <trkpt lat="45.877162897959352" lon="7.405614964663982">
        <ele>2028.0385742000001</ele>
        <time>2011-07-09T11:33:44Z</time>
      </trkpt>
      <trkpt lat="45.877173962071538" lon="7.405643714591861">
        <ele>2030.9226074000001</ele>
        <time>2011-07-09T11:38:46Z</time>
      </trkpt>
      <trkpt lat="45.877330871298909" lon="7.405780171975493">
        <ele>2032.3645019999999</ele>
        <time>2011-07-09T11:39:07Z</time>
      </trkpt>
      <trkpt lat="45.877533461898565" lon="7.405969016253948">
        <ele>2034.7678223</ele>
        <time>2011-07-09T11:39:33Z</time>
      </trkpt>
      <trkpt lat="45.877709565684199" lon="7.406170601025224">
        <ele>2038.1323242000001</ele>
        <time>2011-07-09T11:40:01Z</time>
      </trkpt>
      <trkpt lat="45.877876784652472" lon="7.406374365091324">
        <ele>2040.5354004000001</ele>
        <time>2011-07-09T11:40:30Z</time>
      </trkpt>
      <trkpt lat="45.877912994474173" lon="7.406413340941072">
        <ele>2041.4968262</ele>
        <time>2011-07-09T11:40:35Z</time>
      </trkpt>
      <trkpt lat="45.878079039976001" lon="7.406610567122698">
        <ele>2044.8615723</ele>
        <time>2011-07-09T11:41:04Z</time>
      </trkpt>
      <trkpt lat="45.878222119063139" lon="7.406788766384125">
        <ele>2047.7456055</ele>
        <time>2011-07-09T11:41:30Z</time>
      </trkpt>
      <trkpt lat="45.878316834568977" lon="7.406912483274937">
        <ele>2051.1101073999998</ele>
        <time>2011-07-09T11:41:50Z</time>
      </trkpt>
      <trkpt lat="45.878441976383328" lon="7.407016335055232">
        <ele>2054.4746094000002</ele>
        <time>2011-07-09T11:42:11Z</time>
      </trkpt>
      <trkpt lat="45.878581032156944" lon="7.407140890136361">
        <ele>2057.3586426000002</ele>
        <time>2011-07-09T11:42:35Z</time>
      </trkpt>
      <trkpt lat="45.878707263618708" lon="7.407260918989778">
        <ele>2060.7233887000002</ele>
        <time>2011-07-09T11:42:57Z</time>
      </trkpt>
      <trkpt lat="45.87883492000401" lon="7.40736611187458">
        <ele>2063.6071777000002</ele>
        <time>2011-07-09T11:43:21Z</time>
      </trkpt>
      <trkpt lat="45.878961319103837" lon="7.407460492104292">
        <ele>2066.9719237999998</ele>
        <time>2011-07-09T11:43:43Z</time>
      </trkpt>
      <trkpt lat="45.879195174202323" lon="7.407593764364719">
        <ele>2070.3364258000001</ele>
        <time>2011-07-09T11:44:10Z</time>
      </trkpt>
      <trkpt lat="45.879342695698142" lon="7.407765928655863">
        <ele>2072.2590332</ele>
        <time>2011-07-09T11:44:35Z</time>
      </trkpt>
      <trkpt lat="45.879549058154225" lon="7.408114112913609">
        <ele>2074.6623534999999</ele>
        <time>2011-07-09T11:45:10Z</time>
      </trkpt>
      <trkpt lat="45.879574958235025" lon="7.408342184498906">
        <ele>2077.5463866999999</ele>
        <time>2011-07-09T11:45:29Z</time>
      </trkpt>
      <trkpt lat="45.879598762840033" lon="7.408733535557985">
        <ele>2080.9111327999999</ele>
        <time>2011-07-09T11:46:01Z</time>
      </trkpt>
      <trkpt lat="45.879635475575924" lon="7.408797321841121">
        <ele>2081.3916015999998</ele>
        <time>2011-07-09T11:46:34Z</time>
      </trkpt>
      <trkpt lat="45.879629524424672" lon="7.408777875825763">
        <ele>2082.8334961</ele>
        <time>2011-07-09T11:51:56Z</time>
      </trkpt>
      <trkpt lat="45.879725161939859" lon="7.408566568046808">
        <ele>2085.7175293</ele>
        <time>2011-07-09T11:52:49Z</time>
      </trkpt>
      <trkpt lat="45.879799677059054" lon="7.408216204494238">
        <ele>2088.6015625</ele>
        <time>2011-07-09T11:53:20Z</time>
      </trkpt>
      <trkpt lat="45.879930770024657" lon="7.407994586974382">
        <ele>2091.9660644999999</ele>
        <time>2011-07-09T11:53:51Z</time>
      </trkpt>
      <trkpt lat="45.880008973181248" lon="7.408231040462852">
        <ele>2094.3693847999998</ele>
        <time>2011-07-09T11:54:18Z</time>
      </trkpt>
      <trkpt lat="45.880035711452365" lon="7.4085358902812">
        <ele>2097.7341308999999</ele>
        <time>2011-07-09T11:54:46Z</time>
      </trkpt>
      <trkpt lat="45.880126571282744" lon="7.408878793939948">
        <ele>2100.1374512000002</ele>
        <time>2011-07-09T11:55:19Z</time>
      </trkpt>
      <trkpt lat="45.880218520760536" lon="7.409144584089518">
        <ele>2103.0212402000002</ele>
        <time>2011-07-09T11:55:45Z</time>
      </trkpt>
      <trkpt lat="45.880285827443004" lon="7.409303588792682">
        <ele>2104.4631347999998</ele>
        <time>2011-07-09T11:56:23Z</time>
      </trkpt>
      <trkpt lat="45.880324300378561" lon="7.409324459731579">
        <ele>2105.9050293</ele>
        <time>2011-07-09T11:58:06Z</time>
      </trkpt>
      <trkpt lat="45.880325138568878" lon="7.409327058121562">
        <ele>2106.3857422000001</ele>
        <time>2011-07-09T11:59:43Z</time>
      </trkpt>
      <trkpt lat="45.88032036088407" lon="7.4093113001436">
        <ele>2107.8278808999999</ele>
        <time>2011-07-09T12:05:25Z</time>
      </trkpt>
      <trkpt lat="45.880320863798261" lon="7.409311216324568">
        <ele>2108.3085937999999</ele>
        <time>2011-07-09T12:05:36Z</time>
      </trkpt>
      <trkpt lat="45.880320779979229" lon="7.409311216324568">
        <ele>2106.8664551000002</ele>
        <time>2011-07-09T12:05:38Z</time>
      </trkpt>
      <trkpt lat="45.880320612341166" lon="7.409311132505536">
        <ele>2109.2700195000002</ele>
        <time>2011-07-09T12:05:51Z</time>
      </trkpt>
      <trkpt lat="45.880320528522134" lon="7.409311383962631">
        <ele>2107.3471679999998</ele>
        <time>2011-07-09T12:05:53Z</time>
      </trkpt>
      <trkpt lat="45.880319941788912" lon="7.409314904361963">
        <ele>2108.7893066000001</ele>
        <time>2011-07-09T12:06:58Z</time>
      </trkpt>
      <trkpt lat="45.880329161882401" lon="7.409400986507535">
        <ele>2110.2312012000002</ele>
        <time>2011-07-09T12:11:31Z</time>
      </trkpt>
      <trkpt lat="45.880372999235988" lon="7.40946183912456">
        <ele>2113.5957030999998</ele>
        <time>2011-07-09T12:15:34Z</time>
      </trkpt>
      <trkpt lat="45.880385572090745" lon="7.409577593207359">
        <ele>2115.0378418</ele>
        <time>2011-07-09T12:16:04Z</time>
      </trkpt>
      <trkpt lat="45.880433432757854" lon="7.409831397235394">
        <ele>2117.4409179999998</ele>
        <time>2011-07-09T12:16:39Z</time>
      </trkpt>
      <trkpt lat="45.880464361980557" lon="7.410089895129204">
        <ele>2120.3249512000002</ele>
        <time>2011-07-09T12:17:03Z</time>
      </trkpt>
      <trkpt lat="45.880394876003265" lon="7.410282092168927">
        <ele>2123.2089844000002</ele>
        <time>2011-07-09T12:17:25Z</time>
      </trkpt>
      <trkpt lat="45.880384482443333" lon="7.410306483507156">
        <ele>2124.1704101999999</ele>
        <time>2011-07-09T12:17:29Z</time>
      </trkpt>
      <trkpt lat="45.880404766649008" lon="7.410555928945541">
        <ele>2127.0544433999999</ele>
        <time>2011-07-09T12:17:55Z</time>
      </trkpt>
      <trkpt lat="45.880399234592915" lon="7.410639496520162">
        <ele>2128.4963379000001</ele>
        <time>2011-07-09T12:18:20Z</time>
      </trkpt>
      <trkpt lat="45.880269063636661" lon="7.410776540637016">
        <ele>2131.8608398000001</ele>
        <time>2011-07-09T12:18:43Z</time>
      </trkpt>
      <trkpt lat="45.880222460255027" lon="7.410868825390935">
        <ele>2133.3027344000002</ele>
        <time>2011-07-09T12:19:06Z</time>
      </trkpt>
      <trkpt lat="45.880335280671716" lon="7.410848960280418">
        <ele>2136.6672362999998</ele>
        <time>2011-07-09T12:19:23Z</time>
      </trkpt>
      <trkpt lat="45.880400575697422" lon="7.410924984142184">
        <ele>2138.109375</ele>
        <time>2011-07-09T12:19:39Z</time>
      </trkpt>
      <trkpt lat="45.880309715867043" lon="7.411024393513799">
        <ele>2141.4741211</ele>
        <time>2011-07-09T12:20:00Z</time>
      </trkpt>
      <trkpt lat="45.880360677838326" lon="7.411078121513128">
        <ele>2143.3967284999999</ele>
        <time>2011-07-09T12:20:19Z</time>
      </trkpt>
      <trkpt lat="45.880332263186574" lon="7.411219691857696">
        <ele>2146.2807616999999</ele>
        <time>2011-07-09T12:20:35Z</time>
      </trkpt>
      <trkpt lat="45.880406610667706" lon="7.411130759865046">
        <ele>2147.2419433999999</ele>
        <time>2011-07-09T12:20:51Z</time>
      </trkpt>
      <trkpt lat="45.880435612052679" lon="7.411209382116795">
        <ele>2148.6838379000001</ele>
        <time>2011-07-09T12:21:06Z</time>
      </trkpt>
      <trkpt lat="45.880401413887739" lon="7.411359837278724">
        <ele>2151.0871582</ele>
        <time>2011-07-09T12:21:28Z</time>
      </trkpt>
      <trkpt lat="45.880459332838655" lon="7.41142513230443">
        <ele>2151.5678711</ele>
        <time>2011-07-09T12:21:43Z</time>
      </trkpt>
      <trkpt lat="45.880528567358851" lon="7.411510962992907">
        <ele>2154.9323730000001</ele>
        <time>2011-07-09T12:21:54Z</time>
      </trkpt>
      <trkpt lat="45.880626635625958" lon="7.41161422803998">
        <ele>2157.8166504000001</ele>
        <time>2011-07-09T12:22:17Z</time>
      </trkpt>
      <trkpt lat="45.880605513229966" lon="7.411816734820604">
        <ele>2161.1811523000001</ele>
        <time>2011-07-09T12:22:40Z</time>
      </trkpt>
      <trkpt lat="45.880616996437311" lon="7.411962160840631">
        <ele>2162.6230469000002</ele>
        <time>2011-07-09T12:22:59Z</time>
      </trkpt>
      <trkpt lat="45.880665611475706" lon="7.412080261856318">
        <ele>2164.5456543</ele>
        <time>2011-07-09T12:23:19Z</time>
      </trkpt>
      <trkpt lat="45.880672987550497" lon="7.412161566317082">
        <ele>2165.5070801000002</ele>
        <time>2011-07-09T12:23:38Z</time>
      </trkpt>
      <trkpt lat="45.880742892622948" lon="7.412194758653641">
        <ele>2167.4294433999999</ele>
        <time>2011-07-09T12:23:59Z</time>
      </trkpt>
      <trkpt lat="45.880793686956167" lon="7.412308333441615">
        <ele>2169.3522948999998</ele>
        <time>2011-07-09T12:24:18Z</time>
      </trkpt>
      <trkpt lat="45.880859903991222" lon="7.412382597103715">
        <ele>2171.2746582</ele>
        <time>2011-07-09T12:24:36Z</time>
      </trkpt>
      <trkpt lat="45.880949338898063" lon="7.412528526037931">
        <ele>2173.1977539</ele>
        <time>2011-07-09T12:24:59Z</time>
      </trkpt>
      <trkpt lat="45.881047826260328" lon="7.412681160494685">
        <ele>2174.6396484000002</ele>
        <time>2011-07-09T12:25:20Z</time>
      </trkpt>
      <trkpt lat="45.881061321124434" lon="7.412742013111711">
        <ele>2175.1201172000001</ele>
        <time>2011-07-09T12:25:43Z</time>
      </trkpt>
      <trkpt lat="45.881028966978192" lon="7.412713766098023">
        <ele>2175.1201172000001</ele>
        <time>2011-07-09T12:26:00Z</time>
      </trkpt>
      <trkpt lat="45.881030475720763" lon="7.41276053711772">
        <ele>2175.1201172000001</ele>
        <time>2011-07-09T12:26:29Z</time>
      </trkpt>
      <trkpt lat="45.881184535101056" lon="7.412867741659284">
        <ele>2177.0429687999999</ele>
        <time>2011-07-09T12:26:54Z</time>
      </trkpt>
      <trkpt lat="45.881319399923086" lon="7.412857264280319">
        <ele>2178.9653320000002</ele>
        <time>2011-07-09T12:27:17Z</time>
      </trkpt>
      <trkpt lat="45.881317472085357" lon="7.412917613983154">
        <ele>2179.4460448999998</ele>
        <time>2011-07-09T12:27:50Z</time>
      </trkpt>
      <trkpt lat="45.881365584209561" lon="7.41300780326128">
        <ele>2180.8881836</ele>
        <time>2011-07-09T12:28:10Z</time>
      </trkpt>
      <trkpt lat="45.881371535360813" lon="7.413013838231564">
        <ele>2181.3686523000001</ele>
        <time>2011-07-09T12:28:15Z</time>
      </trkpt>
      <trkpt lat="45.881471112370491" lon="7.412891713902354">
        <ele>2182.8105469000002</ele>
        <time>2011-07-09T12:28:34Z</time>
      </trkpt>
      <trkpt lat="45.881560379639268" lon="7.412774534896016">
        <ele>2186.1752929999998</ele>
        <time>2011-07-09T12:28:57Z</time>
      </trkpt>
      <trkpt lat="45.881647635251284" lon="7.41262324154377">
        <ele>2189.5400390999998</ele>
        <time>2011-07-09T12:29:21Z</time>
      </trkpt>
      <trkpt lat="45.881690634414554" lon="7.412507236003876">
        <ele>2190.5012207</ele>
        <time>2011-07-09T12:29:36Z</time>
      </trkpt>
      <trkpt lat="45.881839161738753" lon="7.412312692031264">
        <ele>2193.3852539</ele>
        <time>2011-07-09T12:30:03Z</time>
      </trkpt>
      <trkpt lat="45.881914766505361" lon="7.412202302366495">
        <ele>2194.3464355000001</ele>
        <time>2011-07-09T12:30:16Z</time>
      </trkpt>
      <trkpt lat="45.882004536688328" lon="7.412078334018588">
        <ele>2195.3078612999998</ele>
        <time>2011-07-09T12:30:31Z</time>
      </trkpt>
      <trkpt lat="45.882058097049594" lon="7.411801815032959">
        <ele>2196.2692870999999</ele>
        <time>2011-07-09T12:30:54Z</time>
      </trkpt>
      <trkpt lat="45.882073184475303" lon="7.411704501137137">
        <ele>2198.6723633000001</ele>
        <time>2011-07-09T12:31:05Z</time>
      </trkpt>
      <trkpt lat="45.882168402895331" lon="7.411827715113759">
        <ele>2199.6337890999998</ele>
        <time>2011-07-09T12:31:22Z</time>
      </trkpt>
      <trkpt lat="45.882241493090987" lon="7.412064168602228">
        <ele>2202.0368652000002</ele>
        <time>2011-07-09T12:31:45Z</time>
      </trkpt>
      <trkpt lat="45.882315170019865" lon="7.412066012620926">
        <ele>2204.9211426000002</ele>
        <time>2011-07-09T12:31:57Z</time>
      </trkpt>
      <trkpt lat="45.882426062598825" lon="7.412145221605897">
        <ele>2207.8051758000001</ele>
        <time>2011-07-09T12:32:16Z</time>
      </trkpt>
      <trkpt lat="45.882583390921354" lon="7.412129463627935">
        <ele>2211.1696777000002</ele>
        <time>2011-07-09T12:32:39Z</time>
      </trkpt>
      <trkpt lat="45.882573835551739" lon="7.412012368440628">
        <ele>2214.5341797000001</ele>
        <time>2011-07-09T12:32:59Z</time>
      </trkpt>
      <trkpt lat="45.882543995976448" lon="7.411812040954828">
        <ele>2217.4179687999999</ele>
        <time>2011-07-09T12:33:21Z</time>
      </trkpt>
      <trkpt lat="45.882452465593815" lon="7.411639960482717">
        <ele>2220.3022461</ele>
        <time>2011-07-09T12:33:43Z</time>
      </trkpt>
      <trkpt lat="45.882421117275953" lon="7.411449607461691">
        <ele>2223.6667480000001</ele>
        <time>2011-07-09T12:34:02Z</time>
      </trkpt>
      <trkpt lat="45.88236671872437" lon="7.411235701292753">
        <ele>2226.0700683999999</ele>
        <time>2011-07-09T12:34:26Z</time>
      </trkpt>
      <trkpt lat="45.882318019866943" lon="7.41109530441463">
        <ele>2227.9926758000001</ele>
        <time>2011-07-09T12:34:55Z</time>
      </trkpt>
      <trkpt lat="45.882316678762436" lon="7.41089103743434">
        <ele>2230.3959961</ele>
        <time>2011-07-09T12:35:25Z</time>
      </trkpt>
      <trkpt lat="45.882255071774125" lon="7.410616865381599">
        <ele>2233.7604980000001</ele>
        <time>2011-07-09T12:35:51Z</time>
      </trkpt>
      <trkpt lat="45.882256412878633" lon="7.410435732454062">
        <ele>2236.1640625</ele>
        <time>2011-07-09T12:36:13Z</time>
      </trkpt>
      <trkpt lat="45.882272338494658" lon="7.410283936187625">
        <ele>2239.0478515999998</ele>
        <time>2011-07-09T12:36:27Z</time>
      </trkpt>
      <trkpt lat="45.882327239960432" lon="7.410137839615345">
        <ele>2242.4125976999999</ele>
        <time>2011-07-09T12:36:46Z</time>
      </trkpt>
      <trkpt lat="45.882390858605504" lon="7.410074137151241">
        <ele>2244.3349609000002</ele>
        <time>2011-07-09T12:37:23Z</time>
      </trkpt>
      <trkpt lat="45.882433438673615" lon="7.409855788573623">
        <ele>2245.2963866999999</ele>
        <time>2011-07-09T12:37:46Z</time>
      </trkpt>
      <trkpt lat="45.88250401429832" lon="7.409453960135579">
        <ele>2247.2189941000001</ele>
        <time>2011-07-09T12:38:17Z</time>
      </trkpt>
      <trkpt lat="45.882572829723358" lon="7.409197306260467">
        <ele>2248.6608887000002</ele>
        <time>2011-07-09T12:38:39Z</time>
      </trkpt>
      <trkpt lat="45.882612140849233" lon="7.408851636573672">
        <ele>2249.1416015999998</ele>
        <time>2011-07-09T12:39:06Z</time>
      </trkpt>
      <trkpt lat="45.882636783644557" lon="7.408607471734285">
        <ele>2252.5063476999999</ele>
        <time>2011-07-09T12:39:27Z</time>
      </trkpt>
      <trkpt lat="45.882697803899646" lon="7.408435558900237">
        <ele>2254.4289551000002</ele>
        <time>2011-07-09T12:39:51Z</time>
      </trkpt>
      <trkpt lat="45.882740635424852" lon="7.4081801623106">
        <ele>2256.3515625</ele>
        <time>2011-07-09T12:40:15Z</time>
      </trkpt>
      <trkpt lat="45.882712723687291" lon="7.40799056366086">
        <ele>2257.3129883000001</ele>
        <time>2011-07-09T12:40:34Z</time>
      </trkpt>
      <trkpt lat="45.88279914110899" lon="7.407706836238504">
        <ele>2258.2741698999998</ele>
        <time>2011-07-09T12:40:58Z</time>
      </trkpt>
      <trkpt lat="45.882802158594131" lon="7.407559733837843">
        <ele>2257.7937012000002</ele>
        <time>2011-07-09T12:41:11Z</time>
      </trkpt>
      <trkpt lat="45.882809031754732" lon="7.407519165426493">
        <ele>2259.2355957</ele>
        <time>2011-07-09T12:41:14Z</time>
      </trkpt>
      <trkpt lat="45.882749268785119" lon="7.407253626734018">
        <ele>2256.3515625</ele>
        <time>2011-07-09T12:41:40Z</time>
      </trkpt>
      <trkpt lat="45.882709287106991" lon="7.40701767615974">
        <ele>2258.2741698999998</ele>
        <time>2011-07-09T12:42:04Z</time>
      </trkpt>
      <trkpt lat="45.882690763100982" lon="7.406734870746732">
        <ele>2258.7548827999999</ele>
        <time>2011-07-09T12:42:30Z</time>
      </trkpt>
      <trkpt lat="45.882614068686962" lon="7.406483581289649">
        <ele>2258.7548827999999</ele>
        <time>2011-07-09T12:42:54Z</time>
      </trkpt>
      <trkpt lat="45.882631922140718" lon="7.406351398676634">
        <ele>2257.3129883000001</ele>
        <time>2011-07-09T12:43:06Z</time>
      </trkpt>
      <trkpt lat="45.882525639608502" lon="7.406122405081987">
        <ele>2256.3515625</ele>
        <time>2011-07-09T12:43:29Z</time>
      </trkpt>
      <trkpt lat="45.882431594654918" lon="7.406004220247269">
        <ele>2256.8322754000001</ele>
        <time>2011-07-09T12:43:48Z</time>
      </trkpt>
      <trkpt lat="45.882341489195824" lon="7.405861727893353">
        <ele>2260.6774902000002</ele>
        <time>2011-07-09T12:44:11Z</time>
      </trkpt>
      <trkpt lat="45.882210982963443" lon="7.405727282166481">
        <ele>2262.1193847999998</ele>
        <time>2011-07-09T12:44:33Z</time>
      </trkpt>
      <trkpt lat="45.882119620218873" lon="7.405553106218576">
        <ele>2265.4841308999999</ele>
        <time>2011-07-09T12:44:53Z</time>
      </trkpt>
      <trkpt lat="45.882067484781146" lon="7.405440369620919">
        <ele>2268.8488769999999</ele>
        <time>2011-07-09T12:45:11Z</time>
      </trkpt>
      <trkpt lat="45.881994981318712" lon="7.405315227806568">
        <ele>2271.7326659999999</ele>
        <time>2011-07-09T12:45:30Z</time>
      </trkpt>
      <trkpt lat="45.881900433450937" lon="7.405139207839966">
        <ele>2275.0971679999998</ele>
        <time>2011-07-09T12:45:55Z</time>
      </trkpt>
      <trkpt lat="45.881765903905034" lon="7.404938125982881">
        <ele>2277.9812012000002</ele>
        <time>2011-07-09T12:46:21Z</time>
      </trkpt>
      <trkpt lat="45.881751235574484" lon="7.404644759371877">
        <ele>2277.9812012000002</ele>
        <time>2011-07-09T12:46:45Z</time>
      </trkpt>
      <trkpt lat="45.881642941385508" lon="7.40439816378057">
        <ele>2277.0200195000002</ele>
        <time>2011-07-09T12:47:09Z</time>
      </trkpt>
      <trkpt lat="45.881588626652956" lon="7.40416556596756">
        <ele>2278.9423827999999</ele>
        <time>2011-07-09T12:47:30Z</time>
      </trkpt>
      <trkpt lat="45.881515368819237" lon="7.403840431943536">
        <ele>2279.4230957</ele>
        <time>2011-07-09T12:47:57Z</time>
      </trkpt>
      <trkpt lat="45.881495336070657" lon="7.40374923683703">
        <ele>2279.9038086</ele>
        <time>2011-07-09T12:48:05Z</time>
      </trkpt>
      <trkpt lat="45.881425933912396" lon="7.403644882142544">
        <ele>2280.3845215000001</ele>
        <time>2011-07-09T12:48:19Z</time>
      </trkpt>
      <trkpt lat="45.88127807714045" lon="7.403533738106489">
        <ele>2279.9038086</ele>
        <time>2011-07-09T12:48:38Z</time>
      </trkpt>
      <trkpt lat="45.8812824357301" lon="7.403318323194981">
        <ele>2281.3457030999998</ele>
        <time>2011-07-09T12:48:53Z</time>
      </trkpt>
      <trkpt lat="45.881315376609564" lon="7.40303828381002">
        <ele>2281.3457030999998</ele>
        <time>2011-07-09T12:49:15Z</time>
      </trkpt>
      <trkpt lat="45.881401123479009" lon="7.402844661846757">
        <ele>2284.7106933999999</ele>
        <time>2011-07-09T12:49:38Z</time>
      </trkpt>
      <trkpt lat="45.88136306963861" lon="7.402588510885835">
        <ele>2283.7490234000002</ele>
        <time>2011-07-09T12:50:00Z</time>
      </trkpt>
      <trkpt lat="45.88134010322392" lon="7.402412658557296">
        <ele>2284.2299804999998</ele>
        <time>2011-07-09T12:50:16Z</time>
      </trkpt>
      <trkpt lat="45.881290566176176" lon="7.40220227278769">
        <ele>2285.1911620999999</ele>
        <time>2011-07-09T12:50:31Z</time>
      </trkpt>
      <trkpt lat="45.881279082968831" lon="7.401942936703563">
        <ele>2287.5944823999998</ele>
        <time>2011-07-09T12:50:54Z</time>
      </trkpt>
      <trkpt lat="45.88121060281992" lon="7.401762725785375">
        <ele>2289.0363769999999</ele>
        <time>2011-07-09T12:51:15Z</time>
      </trkpt>
      <trkpt lat="45.881218062713742" lon="7.401769682765007">
        <ele>2289.0363769999999</ele>
        <time>2011-07-09T12:51:20Z</time>
      </trkpt>
      <trkpt lat="45.881255781278014" lon="7.401622831821442">
        <ele>2291.4396972999998</ele>
        <time>2011-07-09T12:51:49Z</time>
      </trkpt>
      <trkpt lat="45.881250081583858" lon="7.401502132415772">
        <ele>2292.8815918</ele>
        <time>2011-07-09T12:52:03Z</time>
      </trkpt>
      <trkpt lat="45.881238933652639" lon="7.401460139080882">
        <ele>2292.8815918</ele>
        <time>2011-07-09T12:52:07Z</time>
      </trkpt>
      <trkpt lat="45.881230803206563" lon="7.401430383324623">
        <ele>2292.8815918</ele>
        <time>2011-07-09T12:52:10Z</time>
      </trkpt>
      <trkpt lat="45.881234407424927" lon="7.401391323655844">
        <ele>2294.3234862999998</ele>
        <time>2011-07-09T12:52:13Z</time>
      </trkpt>
      <trkpt lat="45.88119987398386" lon="7.401237431913614">
        <ele>2295.2849120999999</ele>
        <time>2011-07-09T12:52:33Z</time>
      </trkpt>
      <trkpt lat="45.881208758801222" lon="7.401150176301599">
        <ele>2298.1687012000002</ele>
        <time>2011-07-09T12:52:45Z</time>
      </trkpt>
      <trkpt lat="45.881243208423257" lon="7.401119330897927">
        <ele>2299.6108398000001</ele>
        <time>2011-07-09T12:52:55Z</time>
      </trkpt>
      <trkpt lat="45.881281262263656" lon="7.401116313412786">
        <ele>2302.9755859000002</ele>
        <time>2011-07-09T12:53:15Z</time>
      </trkpt>
      <trkpt lat="45.881271539255977" lon="7.401095358654857">
        <ele>2303.9370116999999</ele>
        <time>2011-07-09T12:53:19Z</time>
      </trkpt>
      <trkpt lat="45.8812824357301" lon="7.401043390855193">
        <ele>2305.3789062999999</ele>
        <time>2011-07-09T12:53:28Z</time>
      </trkpt>
      <trkpt lat="45.88127464056015" lon="7.400991506874561">
        <ele>2308.2626952999999</ele>
        <time>2011-07-09T12:53:44Z</time>
      </trkpt>
      <trkpt lat="45.881283190101385" lon="7.400895534083247">
        <ele>2309.2241211</ele>
        <time>2011-07-09T12:54:00Z</time>
      </trkpt>
      <trkpt lat="45.881322082132101" lon="7.400819510221481">
        <ele>2312.5886230000001</ele>
        <time>2011-07-09T12:54:16Z</time>
      </trkpt>
      <trkpt lat="45.881336079910398" lon="7.400793777778745">
        <ele>2312.5886230000001</ele>
        <time>2011-07-09T12:54:21Z</time>
      </trkpt>
      <trkpt lat="45.88135234080255" lon="7.400784306228161">
        <ele>2314.0305176000002</ele>
        <time>2011-07-09T12:54:24Z</time>
      </trkpt>
      <trkpt lat="45.881366338580847" lon="7.400767961516976">
        <ele>2314.0305176000002</ele>
        <time>2011-07-09T12:54:28Z</time>
      </trkpt>
      <trkpt lat="45.881382683292031" lon="7.400741390883923">
        <ele>2315.4726562999999</ele>
        <time>2011-07-09T12:54:38Z</time>
      </trkpt>
      <trkpt lat="45.8813411090523" lon="7.400677604600787">
        <ele>2317.8759765999998</ele>
        <time>2011-07-09T12:54:55Z</time>
      </trkpt>
      <trkpt lat="45.881335074082017" lon="7.400653129443526">
        <ele>2319.3181152000002</ele>
        <time>2011-07-09T12:54:58Z</time>
      </trkpt>
      <trkpt lat="45.881278160959482" lon="7.400668133050203">
        <ele>2321.2404784999999</ele>
        <time>2011-07-09T12:55:09Z</time>
      </trkpt>
      <trkpt lat="45.88120766915381" lon="7.400609627366066">
        <ele>2324.6052245999999</ele>
        <time>2011-07-09T12:55:26Z</time>
      </trkpt>
      <trkpt lat="45.88115343824029" lon="7.40054533816874">
        <ele>2327.0085448999998</ele>
        <time>2011-07-09T12:55:45Z</time>
      </trkpt>
      <trkpt lat="45.881083365529776" lon="7.400489011779428">
        <ele>2330.3730469000002</ele>
        <time>2011-07-09T12:56:05Z</time>
      </trkpt>
      <trkpt lat="45.881055118516088" lon="7.400445593520999">
        <ele>2331.3342284999999</ele>
        <time>2011-07-09T12:56:24Z</time>
      </trkpt>
      <trkpt lat="45.881066936999559" lon="7.400322882458568">
        <ele>2334.6992187999999</ele>
        <time>2011-07-09T12:57:01Z</time>
      </trkpt>
      <trkpt lat="45.881110858172178" lon="7.400212241336703">
        <ele>2337.5830077999999</ele>
        <time>2011-07-09T12:57:19Z</time>
      </trkpt>
      <trkpt lat="45.881112283095717" lon="7.400104198604822">
        <ele>2340.9475097999998</ele>
        <time>2011-07-09T12:57:32Z</time>
      </trkpt>
      <trkpt lat="45.881170202046633" lon="7.400083160027862">
        <ele>2344.7927245999999</ele>
        <time>2011-07-09T12:57:49Z</time>
      </trkpt>
      <trkpt lat="45.881172968074679" lon="7.400085590779781">
        <ele>2343.8315429999998</ele>
        <time>2011-07-09T12:57:50Z</time>
      </trkpt>
      <trkpt lat="45.881196688860655" lon="7.400042675435543">
        <ele>2345.7541504000001</ele>
        <time>2011-07-09T12:58:10Z</time>
      </trkpt>
      <trkpt lat="45.881212865933776" lon="7.399930441752076">
        <ele>2349.1188965000001</ele>
        <time>2011-07-09T12:58:24Z</time>
      </trkpt>
      <trkpt lat="45.881240358576179" lon="7.399905798956752">
        <ele>2349.5996094000002</ele>
        <time>2011-07-09T12:58:32Z</time>
      </trkpt>
      <trkpt lat="45.881249578669667" lon="7.399903368204832">
        <ele>2351.0415039</ele>
        <time>2011-07-09T12:58:35Z</time>
      </trkpt>
      <trkpt lat="45.881212530657649" lon="7.399726258590818">
        <ele>2354.4060058999999</ele>
        <time>2011-07-09T12:58:57Z</time>
      </trkpt>
      <trkpt lat="45.881269108504057" lon="7.399698179215193">
        <ele>2355.8479004000001</ele>
        <time>2011-07-09T12:59:17Z</time>
      </trkpt>
      <trkpt lat="45.88125754147768" lon="7.399632213637233">
        <ele>2359.2126465000001</ele>
        <time>2011-07-09T12:59:26Z</time>
      </trkpt>
      <trkpt lat="45.881316885352135" lon="7.399619808420539">
        <ele>2361.6159668</ele>
        <time>2011-07-09T12:59:48Z</time>
      </trkpt>
      <trkpt lat="45.881314873695374" lon="7.399549232795835">
        <ele>2363.5383301000002</ele>
        <time>2011-07-09T12:59:58Z</time>
      </trkpt>
      <trkpt lat="45.881323758512735" lon="7.39944445900619">
        <ele>2366.4226073999998</ele>
        <time>2011-07-09T13:00:14Z</time>
      </trkpt>
      <trkpt lat="45.881384024396539" lon="7.399415709078312">
        <ele>2369.7871094000002</ele>
        <time>2011-07-09T13:00:32Z</time>
      </trkpt>
      <trkpt lat="45.881462059915066" lon="7.399429120123386">
        <ele>2372.6711426000002</ele>
        <time>2011-07-09T13:00:52Z</time>
      </trkpt>
      <trkpt lat="45.881537832319736" lon="7.399407578632236">
        <ele>2376.5163573999998</ele>
        <time>2011-07-09T13:01:18Z</time>
      </trkpt>
      <trkpt lat="45.881542861461639" lon="7.399405734613538">
        <ele>2376.5163573999998</ele>
        <time>2011-07-09T13:01:19Z</time>
      </trkpt>
      <trkpt lat="45.881581669673324" lon="7.399358795955777">
        <ele>2375.5549316000001</ele>
        <time>2011-07-09T13:01:27Z</time>
      </trkpt>
      <trkpt lat="45.881591476500034" lon="7.399343959987164">
        <ele>2378.4389648000001</ele>
        <time>2011-07-09T13:01:31Z</time>
      </trkpt>
      <trkpt lat="45.881588039919734" lon="7.399329291656613">
        <ele>2378.9194336</ele>
        <time>2011-07-09T13:01:35Z</time>
      </trkpt>
      <trkpt lat="45.881657274439931" lon="7.399296602234244">
        <ele>2380.3618164</ele>
        <time>2011-07-09T13:01:53Z</time>
      </trkpt>
      <trkpt lat="45.88166163302958" lon="7.399293417111039">
        <ele>2380.8425293</ele>
        <time>2011-07-09T13:01:54Z</time>
      </trkpt>
      <trkpt lat="45.881745703518391" lon="7.399226361885667">
        <ele>2383.7263183999999</ele>
        <time>2011-07-09T13:02:11Z</time>
      </trkpt>
      <trkpt lat="45.881868666037917" lon="7.399130892008543">
        <ele>2387.5715332</ele>
        <time>2011-07-09T13:02:38Z</time>
      </trkpt>
      <trkpt lat="45.882015936076641" lon="7.399047324433923">
        <ele>2390.4553222999998</ele>
        <time>2011-07-09T13:03:05Z</time>
      </trkpt>
      <trkpt lat="45.882024401798844" lon="7.399044139310718">
        <ele>2390.9360351999999</ele>
        <time>2011-07-09T13:03:06Z</time>
      </trkpt>
      <trkpt lat="45.882207294926047" lon="7.398874573409557">
        <ele>2389.9748534999999</ele>
        <time>2011-07-09T13:03:35Z</time>
      </trkpt>
      <trkpt lat="45.882272338494658" lon="7.398985801264644">
        <ele>2388.5329590000001</ele>
        <time>2011-07-09T13:04:31Z</time>
      </trkpt>
      <trkpt lat="45.882272338494658" lon="7.398986890912056">
        <ele>2389.0134277000002</ele>
        <time>2011-07-09T13:04:51Z</time>
      </trkpt>
      <trkpt lat="45.882229758426547" lon="7.398946909233928">
        <ele>2389.9748534999999</ele>
        <time>2011-07-09T13:06:07Z</time>
      </trkpt>
      <trkpt lat="45.882226405665278" lon="7.398941712453961">
        <ele>2394.78125</ele>
        <time>2011-07-09T13:06:11Z</time>
      </trkpt>
      <trkpt lat="45.882225735113025" lon="7.398940622806549">
        <ele>2395.2619629000001</ele>
        <time>2011-07-09T13:06:12Z</time>
      </trkpt>
      <trkpt lat="45.882224561646581" lon="7.39893869496882">
        <ele>2410.1623534999999</ele>
        <time>2011-07-09T13:06:14Z</time>
      </trkpt>
      <trkpt lat="45.882225064560771" lon="7.398931821808219">
        <ele>2407.7592773000001</ele>
        <time>2011-07-09T13:06:19Z</time>
      </trkpt>
    </trkseg>
  </trk>

  <trk>
    <name>vetta-mont-gele</name>
    <extensions>
      <gpxx:TrackExtension>
        <gpxx:DisplayColor>Yellow</gpxx:DisplayColor>
      </gpxx:TrackExtension>
    </extensions>
    <trkseg>
      <trkpt lat="45.882089864462614" lon="7.398790838196874">
        <ele>2356.8093262000002</ele>
        <time>2011-07-10T04:04:29Z</time>
      </trkpt>
      <trkpt lat="45.882130935788155" lon="7.398810870945454">
        <ele>2360.1738280999998</ele>
        <time>2011-07-10T04:04:40Z</time>
      </trkpt>
      <trkpt lat="45.882125236093998" lon="7.398816989734769">
        <ele>2364.0192870999999</ele>
        <time>2011-07-10T04:04:43Z</time>
      </trkpt>
      <trkpt lat="45.882134288549423" lon="7.398815816268325">
        <ele>2367.3837890999998</ele>
        <time>2011-07-10T04:04:46Z</time>
      </trkpt>
      <trkpt lat="45.882143676280975" lon="7.398816403001547">
        <ele>2371.7097168</ele>
        <time>2011-07-10T04:04:50Z</time>
      </trkpt>
      <trkpt lat="45.882149040699005" lon="7.398815061897039">
        <ele>2371.7097168</ele>
        <time>2011-07-10T04:04:51Z</time>
      </trkpt>
      <trkpt lat="45.882154740393162" lon="7.398821683600545">
        <ele>2374.59375</ele>
        <time>2011-07-10T04:04:53Z</time>
      </trkpt>
      <trkpt lat="45.882162116467953" lon="7.39882386289537">
        <ele>2374.59375</ele>
        <time>2011-07-10T04:04:54Z</time>
      </trkpt>
      <trkpt lat="45.8822010923177" lon="7.398826461285353">
        <ele>2378.9194336</ele>
        <time>2011-07-10T04:04:58Z</time>
      </trkpt>
      <trkpt lat="45.882207462564111" lon="7.398826461285353">
        <ele>2378.4389648000001</ele>
        <time>2011-07-10T04:04:59Z</time>
      </trkpt>
      <trkpt lat="45.882215090095997" lon="7.398830568417907">
        <ele>2382.2844237999998</ele>
        <time>2011-07-10T04:05:04Z</time>
      </trkpt>
      <trkpt lat="45.882215090095997" lon="7.398832160979509">
        <ele>2387.0908202999999</ele>
        <time>2011-07-10T04:05:14Z</time>
      </trkpt>
      <trkpt lat="45.882215006276965" lon="7.398832328617573">
        <ele>2386.1296387000002</ele>
        <time>2011-07-10T04:05:15Z</time>
      </trkpt>
      <trkpt lat="45.882214335724711" lon="7.3988326638937">
        <ele>2389.4941405999998</ele>
        <time>2011-07-10T04:05:23Z</time>
      </trkpt>
      <trkpt lat="45.882214084267616" lon="7.398832831531763">
        <ele>2410.1623534999999</ele>
        <time>2011-07-10T04:05:25Z</time>
      </trkpt>
      <trkpt lat="45.882214000448585" lon="7.398832915350795">
        <ele>2397.6655273000001</ele>
        <time>2011-07-10T04:05:26Z</time>
      </trkpt>
      <trkpt lat="45.882214084267616" lon="7.39883316680789">
        <ele>2410.1623534999999</ele>
        <time>2011-07-10T04:05:30Z</time>
      </trkpt>
      <trkpt lat="45.882214168086648" lon="7.39883316680789">
        <ele>2409.6816405999998</ele>
        <time>2011-07-10T04:05:31Z</time>
      </trkpt>
      <trkpt lat="45.882193213328719" lon="7.39882780238986">
        <ele>2410.1623534999999</ele>
        <time>2011-07-10T04:06:01Z</time>
      </trkpt>
      <trkpt lat="45.882189441472292" lon="7.398783881217241">
        <ele>2409.6816405999998</ele>
        <time>2011-07-10T04:06:38Z</time>
      </trkpt>
      <trkpt lat="45.882224980741739" lon="7.398705258965492">
        <ele>2409.2011719000002</ele>
        <time>2011-07-10T04:13:51Z</time>
      </trkpt>
      <trkpt lat="45.882285078987479" lon="7.398613728582859">
        <ele>2411.1237793</ele>
        <time>2011-07-10T04:14:09Z</time>
      </trkpt>
      <trkpt lat="45.882352301850915" lon="7.398512559011579">
        <ele>2414.4885254000001</ele>
        <time>2011-07-10T04:14:31Z</time>
      </trkpt>
      <trkpt lat="45.882460763677955" lon="7.39845396950841">
        <ele>2417.3723144999999</ele>
        <time>2011-07-10T04:15:00Z</time>
      </trkpt>
      <trkpt lat="45.88244928047061" lon="7.398316171020269">
        <ele>2420.2563476999999</ele>
        <time>2011-07-10T04:15:21Z</time>
      </trkpt>
      <trkpt lat="45.882541062310338" lon="7.398314662277699">
        <ele>2423.1403808999999</ele>
        <time>2011-07-10T04:15:45Z</time>
      </trkpt>
      <trkpt lat="45.882599567994475" lon="7.398147275671363">
        <ele>2426.0241698999998</ele>
        <time>2011-07-10T04:16:07Z</time>
      </trkpt>
      <trkpt lat="45.882660588249564" lon="7.39799271337688">
        <ele>2429.3889159999999</ele>
        <time>2011-07-10T04:16:35Z</time>
      </trkpt>
      <trkpt lat="45.882738288491964" lon="7.397929513826966">
        <ele>2430.8310547000001</ele>
        <time>2011-07-10T04:16:53Z</time>
      </trkpt>
      <trkpt lat="45.882939705625176" lon="7.397801270708442">
        <ele>2433.7148437999999</ele>
        <time>2011-07-10T04:17:23Z</time>
      </trkpt>
      <trkpt lat="45.883098710328341" lon="7.397647378966212">
        <ele>2437.5600586</ele>
        <time>2011-07-10T04:17:53Z</time>
      </trkpt>
      <trkpt lat="45.883249081671238" lon="7.397381421178579">
        <ele>2439.0019530999998</ele>
        <time>2011-07-10T04:18:24Z</time>
      </trkpt>
      <trkpt lat="45.883386712521315" lon="7.397140441462398">
        <ele>2440.4438476999999</ele>
        <time>2011-07-10T04:18:49Z</time>
      </trkpt>
      <trkpt lat="45.883503807708621" lon="7.39707799628377">
        <ele>2440.9245605000001</ele>
        <time>2011-07-10T04:19:11Z</time>
      </trkpt>
      <trkpt lat="45.883585195988417" lon="7.397025860846043">
        <ele>2442.3666991999999</ele>
        <time>2011-07-10T04:19:26Z</time>
      </trkpt>
      <trkpt lat="45.883680079132318" lon="7.396856881678104">
        <ele>2443.8085937999999</ele>
        <time>2011-07-10T04:19:49Z</time>
      </trkpt>
      <trkpt lat="45.883791306987405" lon="7.396720591932535">
        <ele>2444.7700195000002</ele>
        <time>2011-07-10T04:20:11Z</time>
      </trkpt>
      <trkpt lat="45.883951233699918" lon="7.396566784009337">
        <ele>2447.6540527000002</ele>
        <time>2011-07-10T04:20:38Z</time>
      </trkpt>
      <trkpt lat="45.884012086316943" lon="7.396534429863095">
        <ele>2447.1733398000001</ele>
        <time>2011-07-10T04:20:48Z</time>
      </trkpt>
      <trkpt lat="45.88403488509357" lon="7.396576507017016">
        <ele>2447.6540527000002</ele>
        <time>2011-07-10T04:20:52Z</time>
      </trkpt>
      <trkpt lat="45.884125661104918" lon="7.396582877263427">
        <ele>2449.5766601999999</ele>
        <time>2011-07-10T04:21:01Z</time>
      </trkpt>
      <trkpt lat="45.884292963892221" lon="7.396492604166269">
        <ele>2450.5378418</ele>
        <time>2011-07-10T04:21:19Z</time>
      </trkpt>
      <trkpt lat="45.884340740740299" lon="7.396390596404672">
        <ele>2451.4992676000002</ele>
        <time>2011-07-10T04:21:39Z</time>
      </trkpt>
      <trkpt lat="45.884387427940965" lon="7.396263610571623">
        <ele>2453.421875</ele>
        <time>2011-07-10T04:22:14Z</time>
      </trkpt>
      <trkpt lat="45.884524220600724" lon="7.396189766004682">
        <ele>2455.8249512000002</ele>
        <time>2011-07-10T04:22:38Z</time>
      </trkpt>
      <trkpt lat="45.884603261947632" lon="7.396148024126887">
        <ele>2458.2282715000001</ele>
        <time>2011-07-10T04:23:02Z</time>
      </trkpt>
      <trkpt lat="45.884735528379679" lon="7.396101336926222">
        <ele>2461.1125487999998</ele>
        <time>2011-07-10T04:23:22Z</time>
      </trkpt>
      <trkpt lat="45.884849270805717" lon="7.395988432690501">
        <ele>2463.9963379000001</ele>
        <time>2011-07-10T04:23:49Z</time>
      </trkpt>
      <trkpt lat="45.884916074573994" lon="7.395760864019394">
        <ele>2466.3996582</ele>
        <time>2011-07-10T04:24:14Z</time>
      </trkpt>
      <trkpt lat="45.884955134242773" lon="7.395630273967981">
        <ele>2469.2836914</ele>
        <time>2011-07-10T04:24:38Z</time>
      </trkpt>
      <trkpt lat="45.885012801736593" lon="7.395571433007717">
        <ele>2472.6481933999999</ele>
        <time>2011-07-10T04:25:00Z</time>
      </trkpt>
      <trkpt lat="45.885042306035757" lon="7.395437490195036">
        <ele>2474.5708008000001</ele>
        <time>2011-07-10T04:25:20Z</time>
      </trkpt>
      <trkpt lat="45.885130064561963" lon="7.395410165190697">
        <ele>2477.9355469000002</ele>
        <time>2011-07-10T04:25:43Z</time>
      </trkpt>
      <trkpt lat="45.885192258283496" lon="7.395483423024416">
        <ele>2481.3000487999998</ele>
        <time>2011-07-10T04:26:03Z</time>
      </trkpt>
      <trkpt lat="45.885250261053443" lon="7.39542106166482">
        <ele>2484.1840820000002</ele>
        <time>2011-07-10T04:26:22Z</time>
      </trkpt>
      <trkpt lat="45.885342126712203" lon="7.395379235967994">
        <ele>2487.5485840000001</ele>
        <time>2011-07-10T04:26:44Z</time>
      </trkpt>
      <trkpt lat="45.885402979329228" lon="7.395164491608739">
        <ele>2489.9519043</ele>
        <time>2011-07-10T04:27:11Z</time>
      </trkpt>
      <trkpt lat="45.88549098931253" lon="7.395072290673852">
        <ele>2493.3166504000001</ele>
        <time>2011-07-10T04:27:38Z</time>
      </trkpt>
      <trkpt lat="45.88555259630084" lon="7.394998865202069">
        <ele>2495.2392577999999</ele>
        <time>2011-07-10T04:27:55Z</time>
      </trkpt>
      <trkpt lat="45.885658459737897" lon="7.394995763897896">
        <ele>2497.1618652000002</ele>
        <time>2011-07-10T04:28:20Z</time>
      </trkpt>
      <trkpt lat="45.885672206059098" lon="7.394906915724278">
        <ele>2500.0458984000002</ele>
        <time>2011-07-10T04:28:46Z</time>
      </trkpt>
      <trkpt lat="45.885714115574956" lon="7.394834663718939">
        <ele>2502.4489745999999</ele>
        <time>2011-07-10T04:29:04Z</time>
      </trkpt>
      <trkpt lat="45.885756108909845" lon="7.394760902971029">
        <ele>2504.3715820000002</ele>
        <time>2011-07-10T04:29:24Z</time>
      </trkpt>
      <trkpt lat="45.885814111679792" lon="7.39462117664516">
        <ele>2507.7363280999998</ele>
        <time>2011-07-10T04:29:52Z</time>
      </trkpt>
      <trkpt lat="45.885892482474446" lon="7.394587313756347">
        <ele>2510.6203612999998</ele>
        <time>2011-07-10T04:30:11Z</time>
      </trkpt>
      <trkpt lat="45.885936822742224" lon="7.394555881619453">
        <ele>2512.0622558999999</ele>
        <time>2011-07-10T04:30:44Z</time>
      </trkpt>
      <trkpt lat="45.886003291234374" lon="7.394626960158348">
        <ele>2514.9462890999998</ele>
        <time>2011-07-10T04:31:15Z</time>
      </trkpt>
      <trkpt lat="45.886083841323853" lon="7.394636515527964">
        <ele>2518.3107909999999</ele>
        <time>2011-07-10T04:31:35Z</time>
      </trkpt>
      <trkpt lat="45.886128013953567" lon="7.394640035927296">
        <ele>2522.1560058999999</ele>
        <time>2011-07-10T04:31:55Z</time>
      </trkpt>
      <trkpt lat="45.886150728911161" lon="7.394649339839816">
        <ele>2523.5979004000001</ele>
        <time>2011-07-10T04:32:14Z</time>
      </trkpt>
      <trkpt lat="45.886170510202646" lon="7.39464950747788">
        <ele>2525.0400390999998</ele>
        <time>2011-07-10T04:32:18Z</time>
      </trkpt>
      <trkpt lat="45.886245612055063" lon="7.394654536619782">
        <ele>2527.9240722999998</ele>
        <time>2011-07-10T04:32:41Z</time>
      </trkpt>
      <trkpt lat="45.886261789128184" lon="7.394714383408427">
        <ele>2530.3273926000002</ele>
        <time>2011-07-10T04:33:06Z</time>
      </trkpt>
      <trkpt lat="45.88632607832551" lon="7.394715137779713">
        <ele>2532.7304687999999</ele>
        <time>2011-07-10T04:33:28Z</time>
      </trkpt>
      <trkpt lat="45.886403191834688" lon="7.394779678434134">
        <ele>2534.1726073999998</ele>
        <time>2011-07-10T04:33:53Z</time>
      </trkpt>
      <trkpt lat="45.886408388614655" lon="7.394825359806418">
        <ele>2536.0952148000001</ele>
        <time>2011-07-10T04:33:58Z</time>
      </trkpt>
      <trkpt lat="45.886428421363235" lon="7.39489333704114">
        <ele>2539.4597168</ele>
        <time>2011-07-10T04:34:08Z</time>
      </trkpt>
      <trkpt lat="45.886401515454054" lon="7.394917812198401">
        <ele>2540.4211426000002</ele>
        <time>2011-07-10T04:34:28Z</time>
      </trkpt>
      <trkpt lat="45.886462535709143" lon="7.394967684522271">
        <ele>2542.8244629000001</ele>
        <time>2011-07-10T04:34:42Z</time>
      </trkpt>
      <trkpt lat="45.886555407196283" lon="7.395039098337293">
        <ele>2545.2277832</ele>
        <time>2011-07-10T04:35:09Z</time>
      </trkpt>
      <trkpt lat="45.886607207357883" lon="7.395057622343302">
        <ele>2547.1503905999998</ele>
        <time>2011-07-10T04:35:28Z</time>
      </trkpt>
      <trkpt lat="45.886636711657047" lon="7.395104141905904">
        <ele>2550.0344237999998</ele>
        <time>2011-07-10T04:36:03Z</time>
      </trkpt>
      <trkpt lat="45.886668562889099" lon="7.39513180218637">
        <ele>2552.9182129000001</ele>
        <time>2011-07-10T04:36:34Z</time>
      </trkpt>
      <trkpt lat="45.88674483820796" lon="7.395133981481195">
        <ele>2555.8020019999999</ele>
        <time>2011-07-10T04:36:55Z</time>
      </trkpt>
      <trkpt lat="45.886766966432333" lon="7.395068183541298">
        <ele>2557.2443847999998</ele>
        <time>2011-07-10T04:37:14Z</time>
      </trkpt>
      <trkpt lat="45.886830082163215" lon="7.395103303715587">
        <ele>2561.0895995999999</ele>
        <time>2011-07-10T04:37:38Z</time>
      </trkpt>
      <trkpt lat="45.886879367753863" lon="7.395063489675522">
        <ele>2562.5314941000001</ele>
        <time>2011-07-10T04:37:59Z</time>
      </trkpt>
      <trkpt lat="45.88692463003099" lon="7.395061226561666">
        <ele>2565.4155273000001</ele>
        <time>2011-07-10T04:38:21Z</time>
      </trkpt>
      <trkpt lat="45.886968383565545" lon="7.395079834386706">
        <ele>2567.8186034999999</ele>
        <time>2011-07-10T04:38:48Z</time>
      </trkpt>
      <trkpt lat="45.887012388557196" lon="7.395110428333283">
        <ele>2571.1831054999998</ele>
        <time>2011-07-10T04:39:08Z</time>
      </trkpt>
      <trkpt lat="45.88704826310277" lon="7.395068434998393">
        <ele>2573.5866698999998</ele>
        <time>2011-07-10T04:39:29Z</time>
      </trkpt>
      <trkpt lat="45.887112887576222" lon="7.395084360614419">
        <ele>2576.4707030999998</ele>
        <time>2011-07-10T04:39:52Z</time>
      </trkpt>
      <trkpt lat="45.88714306242764" lon="7.39505703561008">
        <ele>2578.3933105000001</ele>
        <time>2011-07-10T04:40:06Z</time>
      </trkpt>
      <trkpt lat="45.887200897559524" lon="7.395011521875858">
        <ele>2580.7966308999999</ele>
        <time>2011-07-10T04:40:34Z</time>
      </trkpt>
      <trkpt lat="45.887255296111107" lon="7.394990231841803">
        <ele>2584.1611327999999</ele>
        <time>2011-07-10T04:40:57Z</time>
      </trkpt>
      <trkpt lat="45.887316735461354" lon="7.394926361739636">
        <ele>2587.0449219000002</ele>
        <time>2011-07-10T04:41:20Z</time>
      </trkpt>
      <trkpt lat="45.887411534786224" lon="7.394911693409085">
        <ele>2589.9291991999999</ele>
        <time>2011-07-10T04:41:41Z</time>
      </trkpt>
      <trkpt lat="45.887551764026284" lon="7.394775236025453">
        <ele>2592.3325195000002</ele>
        <time>2011-07-10T04:42:07Z</time>
      </trkpt>
      <trkpt lat="45.887630637735128" lon="7.39470818080008">
        <ele>2593.7744140999998</ele>
        <time>2011-07-10T04:42:28Z</time>
      </trkpt>
      <trkpt lat="45.887702722102404" lon="7.394687728956342">
        <ele>2593.7744140999998</ele>
        <time>2011-07-10T04:42:47Z</time>
      </trkpt>
      <trkpt lat="45.887707835063338" lon="7.394659565761685">
        <ele>2593.7744140999998</ele>
        <time>2011-07-10T04:43:30Z</time>
      </trkpt>
      <trkpt lat="45.887763658538461" lon="7.394604161381722">
        <ele>2593.7744140999998</ele>
        <time>2011-07-10T04:43:52Z</time>
      </trkpt>
      <trkpt lat="45.887774638831615" lon="7.394584715366364">
        <ele>2593.7744140999998</ele>
        <time>2011-07-10T04:45:04Z</time>
      </trkpt>
      <trkpt lat="45.88774748146534" lon="7.394568203017116">
        <ele>2593.7744140999998</ele>
        <time>2011-07-10T04:45:57Z</time>
      </trkpt>
      <trkpt lat="45.88782861828804" lon="7.39454347640276">
        <ele>2594.7355957</ele>
        <time>2011-07-10T04:50:05Z</time>
      </trkpt>
      <trkpt lat="45.887859966605902" lon="7.394541464745998">
        <ele>2594.7355957</ele>
        <time>2011-07-10T04:50:10Z</time>
      </trkpt>
      <trkpt lat="45.887947725132108" lon="7.394424369558692">
        <ele>2597.6196289</ele>
        <time>2011-07-10T04:50:33Z</time>
      </trkpt>
      <trkpt lat="45.888040261343122" lon="7.394367037340999">
        <ele>2600.984375</ele>
        <time>2011-07-10T04:50:51Z</time>
      </trkpt>
      <trkpt lat="45.888129193335772" lon="7.394327474758029">
        <ele>2603.8681640999998</ele>
        <time>2011-07-10T04:51:17Z</time>
      </trkpt>
      <trkpt lat="45.888183005154133" lon="7.394289840012789">
        <ele>2604.3486327999999</ele>
        <time>2011-07-10T04:51:28Z</time>
      </trkpt>
      <trkpt lat="45.888354582712054" lon="7.394222114235163">
        <ele>2604.8291015999998</ele>
        <time>2011-07-10T04:51:48Z</time>
      </trkpt>
      <trkpt lat="45.88840663433075" lon="7.394216833636165">
        <ele>2604.8291015999998</ele>
        <time>2011-07-10T04:51:53Z</time>
      </trkpt>
      <trkpt lat="45.888474863022566" lon="7.394156064838171">
        <ele>2604.8291015999998</ele>
        <time>2011-07-10T04:52:02Z</time>
      </trkpt>
      <trkpt lat="45.888722464442253" lon="7.394240302965045">
        <ele>2605.7905273000001</ele>
        <time>2011-07-10T04:52:25Z</time>
      </trkpt>
      <trkpt lat="45.88895782828331" lon="7.394281206652522">
        <ele>2606.2714844000002</ele>
        <time>2011-07-10T04:52:52Z</time>
      </trkpt>
      <trkpt lat="45.88915036059916" lon="7.394301658496261">
        <ele>2605.7905273000001</ele>
        <time>2011-07-10T04:53:14Z</time>
      </trkpt>
      <trkpt lat="45.889269635081291" lon="7.394237536936998">
        <ele>2605.7905273000001</ele>
        <time>2011-07-10T04:53:30Z</time>
      </trkpt>
      <trkpt lat="45.889276340603828" lon="7.394241979345679">
        <ele>2605.3100586</ele>
        <time>2011-07-10T04:53:31Z</time>
      </trkpt>
      <trkpt lat="45.889464681968093" lon="7.394256982952356">
        <ele>2605.7905273000001</ele>
        <time>2011-07-10T04:53:54Z</time>
      </trkpt>
      <trkpt lat="45.88947331532836" lon="7.394244158640504">
        <ele>2605.7905273000001</ele>
        <time>2011-07-10T04:53:56Z</time>
      </trkpt>
      <trkpt lat="45.889540705829859" lon="7.394117172807455">
        <ele>2605.7905273000001</ele>
        <time>2011-07-10T04:54:12Z</time>
      </trkpt>
      <trkpt lat="45.889730639755726" lon="7.394081298261881">
        <ele>2606.2714844000002</ele>
        <time>2011-07-10T04:54:39Z</time>
      </trkpt>
      <trkpt lat="45.889845136553049" lon="7.394062522798777">
        <ele>2607.2324219000002</ele>
        <time>2011-07-10T04:54:59Z</time>
      </trkpt>
      <trkpt lat="45.889866426587105" lon="7.393973171710968">
        <ele>2607.7133789</ele>
        <time>2011-07-10T04:55:09Z</time>
      </trkpt>
      <trkpt lat="45.889910263940692" lon="7.393947271630168">
        <ele>2607.7133789</ele>
        <time>2011-07-10T04:55:20Z</time>
      </trkpt>
      <trkpt lat="45.890094833448529" lon="7.394059672951698">
        <ele>2607.2324219000002</ele>
        <time>2011-07-10T04:55:42Z</time>
      </trkpt>
      <trkpt lat="45.890013026073575" lon="7.394012399017811">
        <ele>2607.7133789</ele>
        <time>2011-07-10T04:56:05Z</time>
      </trkpt>
      <trkpt lat="45.890011433511972" lon="7.393985660746694">
        <ele>2607.2324219000002</ele>
        <time>2011-07-10T04:56:40Z</time>
      </trkpt>
      <trkpt lat="45.890011265873909" lon="7.393990773707628">
        <ele>2607.2324219000002</ele>
        <time>2011-07-10T04:57:16Z</time>
      </trkpt>
      <trkpt lat="45.890068262815475" lon="7.393963364884257">
        <ele>2607.2324219000002</ele>
        <time>2011-07-10T04:57:25Z</time>
      </trkpt>
      <trkpt lat="45.890159793198109" lon="7.393706208094955">
        <ele>2608.1938476999999</ele>
        <time>2011-07-10T04:57:45Z</time>
      </trkpt>
      <trkpt lat="45.890255263075233" lon="7.393504036590457">
        <ele>2608.6748047000001</ele>
        <time>2011-07-10T04:58:06Z</time>
      </trkpt>
      <trkpt lat="45.890315528959036" lon="7.393480064347386">
        <ele>2608.6748047000001</ele>
        <time>2011-07-10T04:58:13Z</time>
      </trkpt>
      <trkpt lat="45.890406640246511" lon="7.393315611407161">
        <ele>2608.1938476999999</ele>
        <time>2011-07-10T04:58:32Z</time>
      </trkpt>
      <trkpt lat="45.890418458729982" lon="7.393289962783456">
        <ele>2608.6748047000001</ele>
        <time>2011-07-10T04:58:35Z</time>
      </trkpt>
      <trkpt lat="45.890500098466873" lon="7.393085695803165">
        <ele>2610.1166991999999</ele>
        <time>2011-07-10T04:58:58Z</time>
      </trkpt>
      <trkpt lat="45.890619875863194" lon="7.392900791019201">
        <ele>2611.0776366999999</ele>
        <time>2011-07-10T04:59:18Z</time>
      </trkpt>
      <trkpt lat="45.890827160328627" lon="7.392690991982818">
        <ele>2613.4814452999999</ele>
        <time>2011-07-10T04:59:46Z</time>
      </trkpt>
      <trkpt lat="45.891026733443141" lon="7.392475493252277">
        <ele>2615.4042969000002</ele>
        <time>2011-07-10T05:00:15Z</time>
      </trkpt>
      <trkpt lat="45.891118599101901" lon="7.392286900430918">
        <ele>2617.8076172000001</ele>
        <time>2011-07-10T05:00:41Z</time>
      </trkpt>
      <trkpt lat="45.891219433397055" lon="7.392210625112057">
        <ele>2620.6914062999999</ele>
        <time>2011-07-10T05:01:03Z</time>
      </trkpt>
      <trkpt lat="45.891286488622427" lon="7.392068635672331">
        <ele>2623.5751952999999</ele>
        <time>2011-07-10T05:01:25Z</time>
      </trkpt>
      <trkpt lat="45.891390759497881" lon="7.392013734206557">
        <ele>2625.4980469000002</ele>
        <time>2011-07-10T05:01:48Z</time>
      </trkpt>
      <trkpt lat="45.891440715640783" lon="7.391866380348802">
        <ele>2628.8623047000001</ele>
        <time>2011-07-10T05:02:17Z</time>
      </trkpt>
      <trkpt lat="45.891501819714904" lon="7.391770575195551">
        <ele>2632.2270508000001</ele>
        <time>2011-07-10T05:02:37Z</time>
      </trkpt>
      <trkpt lat="45.891560493037105" lon="7.391639314591885">
        <ele>2635.5913086</ele>
        <time>2011-07-10T05:02:52Z</time>
      </trkpt>
      <trkpt lat="45.891638612374663" lon="7.391541833058">
        <ele>2638.4755859000002</ele>
        <time>2011-07-10T05:03:15Z</time>
      </trkpt>
      <trkpt lat="45.891602234914899" lon="7.391405878588557">
        <ele>2640.8789062999999</ele>
        <time>2011-07-10T05:03:40Z</time>
      </trkpt>
      <trkpt lat="45.891654286533594" lon="7.391286101192236">
        <ele>2644.7246094000002</ele>
        <time>2011-07-10T05:04:03Z</time>
      </trkpt>
      <trkpt lat="45.891594691202044" lon="7.391132963821292">
        <ele>2648.0888672000001</ele>
        <time>2011-07-10T05:04:31Z</time>
      </trkpt>
      <trkpt lat="45.891683958470821" lon="7.391043277457357">
        <ele>2650.4921875</ele>
        <time>2011-07-10T05:04:57Z</time>
      </trkpt>
      <trkpt lat="45.891724526882172" lon="7.390964739024639">
        <ele>2653.3759765999998</ele>
        <time>2011-07-10T05:05:18Z</time>
      </trkpt>
      <trkpt lat="45.891751516610384" lon="7.390906568616629">
        <ele>2656.2602539</ele>
        <time>2011-07-10T05:05:40Z</time>
      </trkpt>
      <trkpt lat="45.891786469146609" lon="7.390801794826984">
        <ele>2659.1440429999998</ele>
        <time>2011-07-10T05:06:10Z</time>
      </trkpt>
      <trkpt lat="45.89183634147048" lon="7.390745636075735">
        <ele>2662.0278320000002</ele>
        <time>2011-07-10T05:06:33Z</time>
      </trkpt>
      <trkpt lat="45.891879592090845" lon="7.390652764588594">
        <ele>2664.9116211</ele>
        <time>2011-07-10T05:07:01Z</time>
      </trkpt>
      <trkpt lat="45.891937427222729" lon="7.390610938891769">
        <ele>2668.2763672000001</ele>
        <time>2011-07-10T05:07:18Z</time>
      </trkpt>
      <trkpt lat="45.892017558217049" lon="7.390549415722489">
        <ele>2670.6796875</ele>
        <time>2011-07-10T05:07:43Z</time>
      </trkpt>
      <trkpt lat="45.892044799402356" lon="7.39048202522099">
        <ele>2673.0830077999999</ele>
        <time>2011-07-10T05:08:11Z</time>
      </trkpt>
      <trkpt lat="45.892072627320886" lon="7.390394015237689">
        <ele>2676.4477539</ele>
        <time>2011-07-10T05:08:33Z</time>
      </trkpt>
      <trkpt lat="45.892117721959949" lon="7.390303323045373">
        <ele>2679.8125</ele>
        <time>2011-07-10T05:09:00Z</time>
      </trkpt>
      <trkpt lat="45.892150662839413" lon="7.390264179557562">
        <ele>2682.6962890999998</ele>
        <time>2011-07-10T05:09:17Z</time>
      </trkpt>
      <trkpt lat="45.892199110239744" lon="7.39021866582334">
        <ele>2684.6191405999998</ele>
        <time>2011-07-10T05:09:40Z</time>
      </trkpt>
      <trkpt lat="45.892207240685821" lon="7.390158399939537">
        <ele>2687.9833984000002</ele>
        <time>2011-07-10T05:09:54Z</time>
      </trkpt>
      <trkpt lat="45.8922463003546" lon="7.390162339434028">
        <ele>2688.9448241999999</ele>
        <time>2011-07-10T05:10:08Z</time>
      </trkpt>
      <trkpt lat="45.892294412478805" lon="7.390113305300474">
        <ele>2690.8676758000001</ele>
        <time>2011-07-10T05:10:30Z</time>
      </trkpt>
      <trkpt lat="45.892343781888485" lon="7.390067372471094">
        <ele>2694.2319336</ele>
        <time>2011-07-10T05:10:57Z</time>
      </trkpt>
      <trkpt lat="45.892406897619367" lon="7.390023870393634">
        <ele>2697.1157226999999</ele>
        <time>2011-07-10T05:11:19Z</time>
      </trkpt>
      <trkpt lat="45.892428271472454" lon="7.389953210949898">
        <ele>2700.4804687999999</ele>
        <time>2011-07-10T05:11:45Z</time>
      </trkpt>
      <trkpt lat="45.892467917874455" lon="7.389901075512171">
        <ele>2702.4033202999999</ele>
        <time>2011-07-10T05:12:11Z</time>
      </trkpt>
      <trkpt lat="45.892493315041065" lon="7.389853801578283">
        <ele>2705.7675780999998</ele>
        <time>2011-07-10T05:12:33Z</time>
      </trkpt>
      <trkpt lat="45.892517538741231" lon="7.389798397198319">
        <ele>2709.1328125</ele>
        <time>2011-07-10T05:12:58Z</time>
      </trkpt>
      <trkpt lat="45.892543103545904" lon="7.389717008918524">
        <ele>2711.0551758000001</ele>
        <time>2011-07-10T05:13:23Z</time>
      </trkpt>
      <trkpt lat="45.892554922029376" lon="7.389672417193651">
        <ele>2714.4199219000002</ele>
        <time>2011-07-10T05:13:43Z</time>
      </trkpt>
      <trkpt lat="45.892588198184967" lon="7.389616761356592">
        <ele>2717.3037109000002</ele>
        <time>2011-07-10T05:14:11Z</time>
      </trkpt>
      <trkpt lat="45.892589539289474" lon="7.389558590948582">
        <ele>2719.2265625</ele>
        <time>2011-07-10T05:14:30Z</time>
      </trkpt>
      <trkpt lat="45.892603788524866" lon="7.389503018930554">
        <ele>2722.5908202999999</ele>
        <time>2011-07-10T05:14:48Z</time>
      </trkpt>
      <trkpt lat="45.892629437148571" lon="7.389468736946583">
        <ele>2724.0332030999998</ele>
        <time>2011-07-10T05:15:09Z</time>
      </trkpt>
      <trkpt lat="45.892655923962593" lon="7.38941727206111">
        <ele>2727.3974609000002</ele>
        <time>2011-07-10T05:15:35Z</time>
      </trkpt>
      <trkpt lat="45.892700934782624" lon="7.389387264847755">
        <ele>2728.8393554999998</ele>
        <time>2011-07-10T05:16:02Z</time>
      </trkpt>
      <trkpt lat="45.892705963924527" lon="7.389317862689495">
        <ele>2732.2041015999998</ele>
        <time>2011-07-10T05:16:18Z</time>
      </trkpt>
      <trkpt lat="45.892722140997648" lon="7.389253741130233">
        <ele>2734.6074219000002</ele>
        <time>2011-07-10T05:16:41Z</time>
      </trkpt>
      <trkpt lat="45.892710406333208" lon="7.389208897948265">
        <ele>2737.0107422000001</ele>
        <time>2011-07-10T05:17:03Z</time>
      </trkpt>
      <trkpt lat="45.892723482102156" lon="7.389150392264128">
        <ele>2739.4140625</ele>
        <time>2011-07-10T05:17:25Z</time>
      </trkpt>
      <trkpt lat="45.892713088542223" lon="7.389088785275817">
        <ele>2740.8564452999999</ele>
        <time>2011-07-10T05:17:46Z</time>
      </trkpt>
      <trkpt lat="45.892741587013006" lon="7.389034135267139">
        <ele>2743.7402344000002</ele>
        <time>2011-07-10T05:18:01Z</time>
      </trkpt>
      <trkpt lat="45.892761284485459" lon="7.388978227972984">
        <ele>2747.1049804999998</ele>
        <time>2011-07-10T05:18:18Z</time>
      </trkpt>
      <trkpt lat="45.892794812098145" lon="7.388935983181">
        <ele>2749.0273437999999</ele>
        <time>2011-07-10T05:18:37Z</time>
      </trkpt>
      <trkpt lat="45.892784334719181" lon="7.388920225203037">
        <ele>2745.6625976999999</ele>
        <time>2011-07-10T05:19:21Z</time>
      </trkpt>
      <trkpt lat="45.892784334719181" lon="7.388920141384006">
        <ele>2749.0273437999999</ele>
        <time>2011-07-10T05:19:22Z</time>
      </trkpt>
      <trkpt lat="45.892782909795642" lon="7.388912430033088">
        <ele>2747.5854491999999</ele>
        <time>2011-07-10T05:20:59Z</time>
      </trkpt>
      <trkpt lat="45.892782490700483" lon="7.388910334557295">
        <ele>2748.0659179999998</ele>
        <time>2011-07-10T05:21:27Z</time>
      </trkpt>
      <trkpt lat="45.892779137939215" lon="7.388898432254791">
        <ele>2751.9111327999999</ele>
        <time>2011-07-10T05:26:54Z</time>
      </trkpt>
      <trkpt lat="45.892835212871432" lon="7.388796675950289">
        <ele>2754.7954101999999</ele>
        <time>2011-07-10T05:27:11Z</time>
      </trkpt>
      <trkpt lat="45.892845103517175" lon="7.388709671795368">
        <ele>2758.1596679999998</ele>
        <time>2011-07-10T05:27:26Z</time>
      </trkpt>
      <trkpt lat="45.892882402986288" lon="7.388686034828425">
        <ele>2761.5244140999998</ele>
        <time>2011-07-10T05:27:42Z</time>
      </trkpt>
      <trkpt lat="45.892891539260745" lon="7.388614788651466">
        <ele>2764.4082030999998</ele>
        <time>2011-07-10T05:28:04Z</time>
      </trkpt>
      <trkpt lat="45.892903693020344" lon="7.388574136421084">
        <ele>2766.3305664</ele>
        <time>2011-07-10T05:28:33Z</time>
      </trkpt>
      <trkpt lat="45.892940321937203" lon="7.388575980439782">
        <ele>2769.6953125</ele>
        <time>2011-07-10T05:28:53Z</time>
      </trkpt>
      <trkpt lat="45.892951637506485" lon="7.388476571068168">
        <ele>2773.0605469000002</ele>
        <time>2011-07-10T05:29:18Z</time>
      </trkpt>
      <trkpt lat="45.892987763509154" lon="7.388440780341625">
        <ele>2776.9057616999999</ele>
        <time>2011-07-10T05:29:34Z</time>
      </trkpt>
      <trkpt lat="45.892995223402977" lon="7.3883764911443">
        <ele>2779.7895508000001</ele>
        <time>2011-07-10T05:29:51Z</time>
      </trkpt>
      <trkpt lat="45.892992792651057" lon="7.38831446506083">
        <ele>2782.6733398000001</ele>
        <time>2011-07-10T05:30:11Z</time>
      </trkpt>
      <trkpt lat="45.89301978237927" lon="7.388268196955323">
        <ele>2786.0380859000002</ele>
        <time>2011-07-10T05:30:28Z</time>
      </trkpt>
      <trkpt lat="45.893022799864411" lon="7.388201225548983">
        <ele>2789.4023437999999</ele>
        <time>2011-07-10T05:30:44Z</time>
      </trkpt>
      <trkpt lat="45.893037300556898" lon="7.38814196549356">
        <ele>2791.8056640999998</ele>
        <time>2011-07-10T05:31:08Z</time>
      </trkpt>
      <trkpt lat="45.893088094890118" lon="7.388071808964014">
        <ele>2794.6899414</ele>
        <time>2011-07-10T05:31:32Z</time>
      </trkpt>
      <trkpt lat="45.893050711601973" lon="7.387984804809094">
        <ele>2797.5737304999998</ele>
        <time>2011-07-10T05:31:53Z</time>
      </trkpt>
      <trkpt lat="45.893072672188282" lon="7.387933675199747">
        <ele>2799.9770508000001</ele>
        <time>2011-07-10T05:32:23Z</time>
      </trkpt>
      <trkpt lat="45.893136207014322" lon="7.387809539213777">
        <ele>2803.3413086</ele>
        <time>2011-07-10T05:32:50Z</time>
      </trkpt>
      <trkpt lat="45.893150959163904" lon="7.38770853728056">
        <ele>2806.2260741999999</ele>
        <time>2011-07-10T05:33:08Z</time>
      </trkpt>
      <trkpt lat="45.893196640536189" lon="7.387620862573385">
        <ele>2809.1098633000001</ele>
        <time>2011-07-10T05:33:31Z</time>
      </trkpt>
      <trkpt lat="45.893223294988275" lon="7.387541485950351">
        <ele>2811.9936523000001</ele>
        <time>2011-07-10T05:33:53Z</time>
      </trkpt>
      <trkpt lat="45.893264701589942" lon="7.387530505657196">
        <ele>2813.9165039</ele>
        <time>2011-07-10T05:34:11Z</time>
      </trkpt>
      <trkpt lat="45.893282722681761" lon="7.387489015236497">
        <ele>2815.3583984000002</ele>
        <time>2011-07-10T05:34:32Z</time>
      </trkpt>
      <trkpt lat="45.893277525901794" lon="7.387443836778402">
        <ele>2818.2421875</ele>
        <time>2011-07-10T05:34:53Z</time>
      </trkpt>
      <trkpt lat="45.893277861177921" lon="7.387403687462211">
        <ele>2820.1645508000001</ele>
        <time>2011-07-10T05:35:15Z</time>
      </trkpt>
      <trkpt lat="45.893274089321494" lon="7.387382565066218">
        <ele>2821.1259765999998</ele>
        <time>2011-07-10T05:35:22Z</time>
      </trkpt>
      <trkpt lat="45.893229162320495" lon="7.387320036068559">
        <ele>2823.5292969000002</ele>
        <time>2011-07-10T05:35:46Z</time>
      </trkpt>
      <trkpt lat="45.893216002732515" lon="7.387282988056541">
        <ele>2825.9326172000001</ele>
        <time>2011-07-10T05:36:09Z</time>
      </trkpt>
      <trkpt lat="45.893211560323834" lon="7.387262536212802">
        <ele>2827.3745116999999</ele>
        <time>2011-07-10T05:36:38Z</time>
      </trkpt>
      <trkpt lat="45.893203765153885" lon="7.387205539271236">
        <ele>2830.2583008000001</ele>
        <time>2011-07-10T05:36:52Z</time>
      </trkpt>
      <trkpt lat="45.893201837316155" lon="7.387172095477581">
        <ele>2831.7006836</ele>
        <time>2011-07-10T05:37:11Z</time>
      </trkpt>
      <trkpt lat="45.893168980255723" lon="7.387125911191106">
        <ele>2835.0649414</ele>
        <time>2011-07-10T05:37:34Z</time>
      </trkpt>
      <trkpt lat="45.893178367987275" lon="7.387096239253879">
        <ele>2836.9882812999999</ele>
        <time>2011-07-10T05:38:01Z</time>
      </trkpt>
      <trkpt lat="45.893218768760562" lon="7.387050306424499">
        <ele>2839.8720702999999</ele>
        <time>2011-07-10T05:38:23Z</time>
      </trkpt>
      <trkpt lat="45.893246764317155" lon="7.387010240927339">
        <ele>2841.3139648000001</ele>
        <time>2011-07-10T05:38:51Z</time>
      </trkpt>
      <trkpt lat="45.893259504809976" lon="7.386951064690948">
        <ele>2844.1977539</ele>
        <time>2011-07-10T05:40:15Z</time>
      </trkpt>
      <trkpt lat="45.893235700204968" lon="7.386877806857228">
        <ele>2847.5625</ele>
        <time>2011-07-10T05:40:37Z</time>
      </trkpt>
      <trkpt lat="45.893225474283099" lon="7.386823827400804">
        <ele>2850.4462890999998</ele>
        <time>2011-07-10T05:40:49Z</time>
      </trkpt>
      <trkpt lat="45.893268892541528" lon="7.386765740811825">
        <ele>2854.2915039</ele>
        <time>2011-07-10T05:41:09Z</time>
      </trkpt>
      <trkpt lat="45.893346425145864" lon="7.386729698628187">
        <ele>2855.2529297000001</ele>
        <time>2011-07-10T05:41:33Z</time>
      </trkpt>
      <trkpt lat="45.893403086811304" lon="7.386766076087952">
        <ele>2854.2915039</ele>
        <time>2011-07-10T05:41:53Z</time>
      </trkpt>
      <trkpt lat="45.893448013812304" lon="7.386756185442209">
        <ele>2857.1752929999998</ele>
        <time>2011-07-10T05:42:07Z</time>
      </trkpt>
      <trkpt lat="45.893449019640684" lon="7.386662140488625">
        <ele>2859.0981445000002</ele>
        <time>2011-07-10T05:42:28Z</time>
      </trkpt>
      <trkpt lat="45.893476763740182" lon="7.386639676988125">
        <ele>2861.9819336</ele>
        <time>2011-07-10T05:42:50Z</time>
      </trkpt>
      <trkpt lat="45.893567120656371" lon="7.386655686423183">
        <ele>2865.3466797000001</ele>
        <time>2011-07-10T05:43:11Z</time>
      </trkpt>
      <trkpt lat="45.893623195588589" lon="7.386615034192801">
        <ele>2867.75</ele>
        <time>2011-07-10T05:43:40Z</time>
      </trkpt>
      <trkpt lat="45.893644401803613" lon="7.38652216270566">
        <ele>2871.1147461</ele>
        <time>2011-07-10T05:44:09Z</time>
      </trkpt>
      <trkpt lat="45.893633170053363" lon="7.386483103036881">
        <ele>2874.4794922000001</ele>
        <time>2011-07-10T05:44:41Z</time>
      </trkpt>
      <trkpt lat="45.893635600805283" lon="7.386480588465929">
        <ele>2874.4794922000001</ele>
        <time>2011-07-10T05:44:42Z</time>
      </trkpt>
      <trkpt lat="45.893632164224982" lon="7.386408923193812">
        <ele>2877.3632812999999</ele>
        <time>2011-07-10T05:45:11Z</time>
      </trkpt>
      <trkpt lat="45.89367751032114" lon="7.386323260143399">
        <ele>2880.2470702999999</ele>
        <time>2011-07-10T05:45:34Z</time>
      </trkpt>
      <trkpt lat="45.89367650449276" lon="7.386243380606175">
        <ele>2883.6118164</ele>
        <time>2011-07-10T05:45:55Z</time>
      </trkpt>
      <trkpt lat="45.893684634938836" lon="7.386100720614195">
        <ele>2885.0537109000002</ele>
        <time>2011-07-10T05:46:20Z</time>
      </trkpt>
      <trkpt lat="45.893707182258368" lon="7.385942135006189">
        <ele>2888.4184570000002</ele>
        <time>2011-07-10T05:46:44Z</time>
      </trkpt>
      <trkpt lat="45.893732327967882" lon="7.385897962376475">
        <ele>2887.9375</ele>
        <time>2011-07-10T05:47:10Z</time>
      </trkpt>
      <trkpt lat="45.893748505041003" lon="7.385793859139085">
        <ele>2888.8989258000001</ele>
        <time>2011-07-10T05:47:39Z</time>
      </trkpt>
      <trkpt lat="45.893839113414288" lon="7.385724037885666">
        <ele>2888.8989258000001</ele>
        <time>2011-07-10T05:47:58Z</time>
      </trkpt>
      <trkpt lat="45.89391203597188" lon="7.385637369006872">
        <ele>2891.7827148000001</ele>
        <time>2011-07-10T05:48:22Z</time>
      </trkpt>
      <trkpt lat="45.89393014088273" lon="7.385527398437262">
        <ele>2894.6669922000001</ele>
        <time>2011-07-10T05:48:46Z</time>
      </trkpt>
      <trkpt lat="45.893940785899758" lon="7.385457996279001">
        <ele>2897.0698241999999</ele>
        <time>2011-07-10T05:49:08Z</time>
      </trkpt>
      <trkpt lat="45.893957382068038" lon="7.385355569422245">
        <ele>2898.5122070000002</ele>
        <time>2011-07-10T05:49:30Z</time>
      </trkpt>
      <trkpt lat="45.89396676979959" lon="7.385264625772834">
        <ele>2901.3964844000002</ele>
        <time>2011-07-10T05:49:49Z</time>
      </trkpt>
      <trkpt lat="45.894027203321457" lon="7.38515549339354">
        <ele>2902.8383789</ele>
        <time>2011-07-10T05:50:12Z</time>
      </trkpt>
      <trkpt lat="45.89404933154583" lon="7.385091539472342">
        <ele>2905.2416991999999</ele>
        <time>2011-07-10T05:50:36Z</time>
      </trkpt>
      <trkpt lat="45.894068358466029" lon="7.384994896128774">
        <ele>2908.6064452999999</ele>
        <time>2011-07-10T05:51:04Z</time>
      </trkpt>
      <trkpt lat="45.894082440063357" lon="7.384957009926438">
        <ele>2911.0092773000001</ele>
        <time>2011-07-10T05:51:26Z</time>
      </trkpt>
      <trkpt lat="45.894085541367531" lon="7.384877130389214">
        <ele>2912.9321289</ele>
        <time>2011-07-10T05:51:52Z</time>
      </trkpt>
      <trkpt lat="45.894068107008934" lon="7.384782833978534">
        <ele>2915.8159179999998</ele>
        <time>2011-07-10T05:52:18Z</time>
      </trkpt>
      <trkpt lat="45.89408646337688" lon="7.384700272232294">
        <ele>2919.1806640999998</ele>
        <time>2011-07-10T05:52:43Z</time>
      </trkpt>
      <trkpt lat="45.894109765067697" lon="7.384595079347491">
        <ele>2922.5449219000002</ele>
        <time>2011-07-10T05:53:06Z</time>
      </trkpt>
      <trkpt lat="45.894134240224957" lon="7.384456526488066">
        <ele>2923.5063476999999</ele>
        <time>2011-07-10T05:53:30Z</time>
      </trkpt>
      <trkpt lat="45.894110603258014" lon="7.384397685527802">
        <ele>2926.3901366999999</ele>
        <time>2011-07-10T05:53:49Z</time>
      </trkpt>
      <trkpt lat="45.894125523045659" lon="7.38431260921061">
        <ele>2928.7934570000002</ele>
        <time>2011-07-10T05:54:14Z</time>
      </trkpt>
      <trkpt lat="45.894146477803588" lon="7.384265922009945">
        <ele>2931.1967773000001</ele>
        <time>2011-07-10T05:54:28Z</time>
      </trkpt>
      <trkpt lat="45.894176904112101" lon="7.384214540943503">
        <ele>2933.6005859000002</ele>
        <time>2011-07-10T05:54:55Z</time>
      </trkpt>
      <trkpt lat="45.894178161397576" lon="7.384174894541502">
        <ele>2936.484375</ele>
        <time>2011-07-10T05:55:10Z</time>
      </trkpt>
      <trkpt lat="45.89426533319056" lon="7.384222839027643">
        <ele>2937.4458008000001</ele>
        <time>2011-07-10T05:55:34Z</time>
      </trkpt>
      <trkpt lat="45.89432249777019" lon="7.384189981967211">
        <ele>2940.3295898000001</ele>
        <time>2011-07-10T05:56:16Z</time>
      </trkpt>
      <trkpt lat="45.89439676143229" lon="7.384107336401939">
        <ele>2943.2133789</ele>
        <time>2011-07-10T05:56:36Z</time>
      </trkpt>
      <trkpt lat="45.894456692039967" lon="7.384068863466382">
        <ele>2946.578125</ele>
        <time>2011-07-10T05:57:02Z</time>
      </trkpt>
      <trkpt lat="45.894463481381536" lon="7.384057464078069">
        <ele>2947.5395508000001</ele>
        <time>2011-07-10T05:57:04Z</time>
      </trkpt>
      <trkpt lat="45.894508995115757" lon="7.384034497663379">
        <ele>2948.5009765999998</ele>
        <time>2011-07-10T05:57:24Z</time>
      </trkpt>
      <trkpt lat="45.894553922116756" lon="7.38397590816021">
        <ele>2951.8652344000002</ele>
        <time>2011-07-10T05:57:53Z</time>
      </trkpt>
      <trkpt lat="45.894575882703066" lon="7.383895860984922">
        <ele>2953.3071289</ele>
        <time>2011-07-10T05:58:24Z</time>
      </trkpt>
      <trkpt lat="45.894616702571511" lon="7.383896363899112">
        <ele>2952.8266601999999</ele>
        <time>2011-07-10T05:58:48Z</time>
      </trkpt>
      <trkpt lat="45.894593065604568" lon="7.383931986987591">
        <ele>2952.3461914</ele>
        <time>2011-07-10T06:04:04Z</time>
      </trkpt>
      <trkpt lat="45.894594406709075" lon="7.383934333920479">
        <ele>2953.7880859000002</ele>
        <time>2011-07-10T06:07:18Z</time>
      </trkpt>
      <trkpt lat="45.894591137766838" lon="7.383917905390263">
        <ele>2955.7104491999999</ele>
        <time>2011-07-10T06:14:43Z</time>
      </trkpt>
      <trkpt lat="45.894591305404902" lon="7.383908433839679">
        <ele>2950.9038086</ele>
        <time>2011-07-10T06:23:12Z</time>
      </trkpt>
      <trkpt lat="45.894591305404902" lon="7.383908433839679">
        <ele>2955.7104491999999</ele>
        <time>2011-07-10T06:23:13Z</time>
      </trkpt>
      <trkpt lat="45.89461762458086" lon="7.383813299238682">
        <ele>2959.0751952999999</ele>
        <time>2011-07-10T06:25:04Z</time>
      </trkpt>
      <trkpt lat="45.894683841615915" lon="7.383591933175921">
        <ele>2959.0751952999999</ele>
        <time>2011-07-10T06:25:23Z</time>
      </trkpt>
      <trkpt lat="45.894715273752809" lon="7.383351540192962">
        <ele>2962.4399414</ele>
        <time>2011-07-10T06:25:44Z</time>
      </trkpt>
      <trkpt lat="45.89469482190907" lon="7.383112739771605">
        <ele>2963.4008789</ele>
        <time>2011-07-10T06:26:08Z</time>
      </trkpt>
      <trkpt lat="45.89470898732543" lon="7.38293806090951">
        <ele>2966.2851562999999</ele>
        <time>2011-07-10T06:26:25Z</time>
      </trkpt>
      <trkpt lat="45.89470898732543" lon="7.382849464192987">
        <ele>2966.7661133000001</ele>
        <time>2011-07-10T06:26:32Z</time>
      </trkpt>
      <trkpt lat="45.894816610962152" lon="7.382669001817703">
        <ele>2967.7275390999998</ele>
        <time>2011-07-10T06:26:52Z</time>
      </trkpt>
      <trkpt lat="45.894905040040612" lon="7.382417377084494">
        <ele>2969.1694336</ele>
        <time>2011-07-10T06:27:16Z</time>
      </trkpt>
      <trkpt lat="45.894946865737438" lon="7.382123675197363">
        <ele>2972.0532226999999</ele>
        <time>2011-07-10T06:27:44Z</time>
      </trkpt>
      <trkpt lat="45.894945859909058" lon="7.381763504818082">
        <ele>2973.0146484000002</ele>
        <time>2011-07-10T06:28:16Z</time>
      </trkpt>
      <trkpt lat="45.894906967878342" lon="7.381393276154995">
        <ele>2975.4179687999999</ele>
        <time>2011-07-10T06:28:51Z</time>
      </trkpt>
      <trkpt lat="45.894900178536773" lon="7.381266206502914">
        <ele>2977.3403320000002</ele>
        <time>2011-07-10T06:29:07Z</time>
      </trkpt>
      <trkpt lat="45.894872099161148" lon="7.381087671965361">
        <ele>2978.7822265999998</ele>
        <time>2011-07-10T06:29:35Z</time>
      </trkpt>
      <trkpt lat="45.89487268589437" lon="7.380896899849176">
        <ele>2982.1469726999999</ele>
        <time>2011-07-10T06:30:04Z</time>
      </trkpt>
      <trkpt lat="45.894816191866994" lon="7.380815595388413">
        <ele>2983.5888672000001</ele>
        <time>2011-07-10T06:30:29Z</time>
      </trkpt>
      <trkpt lat="45.894793896004558" lon="7.380682826042175">
        <ele>2986.4726562999999</ele>
        <time>2011-07-10T06:30:59Z</time>
      </trkpt>
      <trkpt lat="45.894865309819579" lon="7.380513679236174">
        <ele>2989.8374023000001</ele>
        <time>2011-07-10T06:31:32Z</time>
      </trkpt>
      <trkpt lat="45.894908560439944" lon="7.380412761121988">
        <ele>2992.7211914</ele>
        <time>2011-07-10T06:31:47Z</time>
      </trkpt>
      <trkpt lat="45.894920714199543" lon="7.380319135263562">
        <ele>2996.0864258000001</ele>
        <time>2011-07-10T06:32:02Z</time>
      </trkpt>
      <trkpt lat="45.894908392801881" lon="7.380219558253884">
        <ele>2998.9702148000001</ele>
        <time>2011-07-10T06:32:18Z</time>
      </trkpt>
      <trkpt lat="45.894953738898039" lon="7.380071030929685">
        <ele>3002.3349609000002</ele>
        <time>2011-07-10T06:32:45Z</time>
      </trkpt>
      <trkpt lat="45.894999923184514" lon="7.379895262420178">
        <ele>3003.7768554999998</ele>
        <time>2011-07-10T06:33:06Z</time>
      </trkpt>
      <trkpt lat="45.895078964531422" lon="7.379771964624524">
        <ele>3006.1801758000001</ele>
        <time>2011-07-10T06:33:24Z</time>
      </trkpt>
      <trkpt lat="45.895158341154456" lon="7.379551939666271">
        <ele>3007.6220702999999</ele>
        <time>2011-07-10T06:33:53Z</time>
      </trkpt>
      <trkpt lat="45.89527728036046" lon="7.379331579431891">
        <ele>3009.5444336</ele>
        <time>2011-07-10T06:34:23Z</time>
      </trkpt>
      <trkpt lat="45.895369732752442" lon="7.379147261381149">
        <ele>3010.9863280999998</ele>
        <time>2011-07-10T06:34:48Z</time>
      </trkpt>
      <trkpt lat="45.895407199859619" lon="7.37888247705996">
        <ele>3012.9091797000001</ele>
        <time>2011-07-10T06:35:18Z</time>
      </trkpt>
      <trkpt lat="45.895434021949768" lon="7.378691034391522">
        <ele>3014.8315429999998</ele>
        <time>2011-07-10T06:35:48Z</time>
      </trkpt>
      <trkpt lat="45.895444164052606" lon="7.378552984446287">
        <ele>3015.3125</ele>
        <time>2011-07-10T06:36:15Z</time>
      </trkpt>
      <trkpt lat="45.895461179316044" lon="7.378371935337782">
        <ele>3018.1962890999998</ele>
        <time>2011-07-10T06:36:34Z</time>
      </trkpt>
      <trkpt lat="45.895477859303355" lon="7.378085860982537">
        <ele>3020.1186523000001</ele>
        <time>2011-07-10T06:37:08Z</time>
      </trkpt>
      <trkpt lat="45.895473500713706" lon="7.378052836284041">
        <ele>3021.5610351999999</ele>
        <time>2011-07-10T06:37:50Z</time>
      </trkpt>
      <trkpt lat="45.895518511533737" lon="7.377950996160507">
        <ele>3024.4448241999999</ele>
        <time>2011-07-10T06:38:11Z</time>
      </trkpt>
      <trkpt lat="45.895535359159112" lon="7.377873128280044">
        <ele>3023.0029297000001</ele>
        <time>2011-07-10T06:38:48Z</time>
      </trkpt>
      <trkpt lat="45.895528569817543" lon="7.377845300361514">
        <ele>3023.9643554999998</ele>
        <time>2011-07-10T06:50:33Z</time>
      </trkpt>
      <trkpt lat="45.895528485998511" lon="7.377846138551831">
        <ele>3020.5996094000002</ele>
        <time>2011-07-10T06:50:49Z</time>
      </trkpt>
      <trkpt lat="45.895528485998511" lon="7.377846222370863">
        <ele>3025.40625</ele>
        <time>2011-07-10T06:50:51Z</time>
      </trkpt>
      <trkpt lat="45.89552840217948" lon="7.377846306189895">
        <ele>3023.9643554999998</ele>
        <time>2011-07-10T06:50:52Z</time>
      </trkpt>
      <trkpt lat="45.895481379702687" lon="7.377789141610265">
        <ele>3026.8481445000002</ele>
        <time>2011-07-10T06:56:12Z</time>
      </trkpt>
      <trkpt lat="45.895466879010201" lon="7.377681098878384">
        <ele>3029.7324219000002</ele>
        <time>2011-07-10T06:56:35Z</time>
      </trkpt>
      <trkpt lat="45.895480625331402" lon="7.377614630386233">
        <ele>3032.6162109000002</ele>
        <time>2011-07-10T06:56:56Z</time>
      </trkpt>
      <trkpt lat="45.895464280620217" lon="7.377532320097089">
        <ele>3035.9809570000002</ele>
        <time>2011-07-10T06:57:21Z</time>
      </trkpt>
      <trkpt lat="45.895352968946099" lon="7.37747616134584">
        <ele>3037.9033202999999</ele>
        <time>2011-07-10T06:57:42Z</time>
      </trkpt>
      <trkpt lat="45.89530267752707" lon="7.377465181052685">
        <ele>3038.3842773000001</ele>
        <time>2011-07-10T06:58:11Z</time>
      </trkpt>
      <trkpt lat="45.895267138257623" lon="7.377465264871717">
        <ele>3041.2680664</ele>
        <time>2011-07-10T06:59:42Z</time>
      </trkpt>
      <trkpt lat="45.895103020593524" lon="7.377481274306774">
        <ele>3043.6713866999999</ele>
        <time>2011-07-10T07:00:03Z</time>
      </trkpt>
      <trkpt lat="45.8950559142977" lon="7.37747423350811">
        <ele>3045.1132812999999</ele>
        <time>2011-07-10T07:00:18Z</time>
      </trkpt>
      <trkpt lat="45.894982488825917" lon="7.377405501902103">
        <ele>3048.4780273000001</ele>
        <time>2011-07-10T07:00:47Z</time>
      </trkpt>
      <trkpt lat="45.894961534067988" lon="7.3773676995188">
        <ele>3049.9199219000002</ele>
        <time>2011-07-10T07:01:04Z</time>
      </trkpt>
      <trkpt lat="45.894948123022914" lon="7.377269882708788">
        <ele>3051.3618164</ele>
        <time>2011-07-10T07:01:26Z</time>
      </trkpt>
      <trkpt lat="45.894956169649959" lon="7.377179274335504">
        <ele>3054.2456054999998</ele>
        <time>2011-07-10T07:01:48Z</time>
      </trkpt>
      <trkpt lat="45.894912332296371" lon="7.377070058137178">
        <ele>3057.6103515999998</ele>
        <time>2011-07-10T07:02:17Z</time>
      </trkpt>
      <trkpt lat="45.894900094717741" lon="7.376888673752546">
        <ele>3060.9750976999999</ele>
        <time>2011-07-10T07:02:46Z</time>
      </trkpt>
      <trkpt lat="45.894899591803551" lon="7.376884901896119">
        <ele>3060.9750976999999</ele>
        <time>2011-07-10T07:02:47Z</time>
      </trkpt>
      <trkpt lat="45.894891628995538" lon="7.37685707397759">
        <ele>3061.9365234000002</ele>
        <time>2011-07-10T07:02:53Z</time>
      </trkpt>
      <trkpt lat="45.894845360890031" lon="7.376742074266076">
        <ele>3063.859375</ele>
        <time>2011-07-10T07:03:23Z</time>
      </trkpt>
      <trkpt lat="45.894783921539783" lon="7.376706283539534">
        <ele>3065.7817383000001</ele>
        <time>2011-07-10T07:03:49Z</time>
      </trkpt>
      <trkpt lat="45.894757434725761" lon="7.376699661836028">
        <ele>3067.7045898000001</ele>
        <time>2011-07-10T07:04:23Z</time>
      </trkpt>
      <trkpt lat="45.894717704504728" lon="7.376652890816331">
        <ele>3068.1850586</ele>
        <time>2011-07-10T07:04:43Z</time>
      </trkpt>
      <trkpt lat="45.894742431119084" lon="7.376564126461744">
        <ele>3070.1079101999999</ele>
        <time>2011-07-10T07:05:06Z</time>
      </trkpt>
      <trkpt lat="45.894768917933106" lon="7.376484414562583">
        <ele>3071.5498047000001</ele>
        <time>2011-07-10T07:05:25Z</time>
      </trkpt>
      <trkpt lat="45.894709993153811" lon="7.376373605802655">
        <ele>3073.4721679999998</ele>
        <time>2011-07-10T07:05:53Z</time>
      </trkpt>
      <trkpt lat="45.894701108336449" lon="7.376338737085462">
        <ele>3075.3950195000002</ele>
        <time>2011-07-10T07:06:23Z</time>
      </trkpt>
      <trkpt lat="45.894715022295713" lon="7.376246871426702">
        <ele>3078.7592773000001</ele>
        <time>2011-07-10T07:06:54Z</time>
      </trkpt>
      <trkpt lat="45.894683422520757" lon="7.376151233911514">
        <ele>3082.1240234000002</ele>
        <time>2011-07-10T07:07:26Z</time>
      </trkpt>
      <trkpt lat="45.894701024517417" lon="7.376032965257764">
        <ele>3084.5273437999999</ele>
        <time>2011-07-10T07:07:54Z</time>
      </trkpt>
      <trkpt lat="45.894711166620255" lon="7.375960294157267">
        <ele>3086.9306640999998</ele>
        <time>2011-07-10T07:08:19Z</time>
      </trkpt>
      <trkpt lat="45.894750813022256" lon="7.375844120979309">
        <ele>3090.7758789</ele>
        <time>2011-07-10T07:08:48Z</time>
      </trkpt>
      <trkpt lat="45.894760536029935" lon="7.375741526484489">
        <ele>3093.6601562999999</ele>
        <time>2011-07-10T07:09:22Z</time>
      </trkpt>
      <trkpt lat="45.894788866862655" lon="7.375697940587997">
        <ele>3097.0244140999998</ele>
        <time>2011-07-10T07:09:44Z</time>
      </trkpt>
      <trkpt lat="45.894827339798212" lon="7.375643206760287">
        <ele>3098.9472655999998</ele>
        <time>2011-07-10T07:10:09Z</time>
      </trkpt>
      <trkpt lat="45.894852904602885" lon="7.375549161806703">
        <ele>3100.3891601999999</ele>
        <time>2011-07-10T07:10:35Z</time>
      </trkpt>
      <trkpt lat="45.894908141344786" lon="7.375467186793685">
        <ele>3103.2729491999999</ele>
        <time>2011-07-10T07:11:15Z</time>
      </trkpt>
      <trkpt lat="45.89493228122592" lon="7.375381691381335">
        <ele>3105.1958008000001</ele>
        <time>2011-07-10T07:11:47Z</time>
      </trkpt>
      <trkpt lat="45.894965473562479" lon="7.375453859567642">
        <ele>3107.5991211</ele>
        <time>2011-07-10T07:12:19Z</time>
      </trkpt>
      <trkpt lat="45.894976621493697" lon="7.37551529891789">
        <ele>3108.5605469000002</ele>
        <time>2011-07-10T07:12:37Z</time>
      </trkpt>
      <trkpt lat="45.895023224875331" lon="7.375434665009379">
        <ele>3110.9633789</ele>
        <time>2011-07-10T07:12:57Z</time>
      </trkpt>
      <trkpt lat="45.895055998116732" lon="7.375401640310884">
        <ele>3113.3666991999999</ele>
        <time>2011-07-10T07:13:26Z</time>
      </trkpt>
      <trkpt lat="45.895091537386179" lon="7.375314887613058">
        <ele>3114.328125</ele>
        <time>2011-07-10T07:13:46Z</time>
      </trkpt>
      <trkpt lat="45.895162113010883" lon="7.375227212905884">
        <ele>3115.2895508000001</ele>
        <time>2011-07-10T07:14:26Z</time>
      </trkpt>
      <trkpt lat="45.895238388329744" lon="7.375202486291528">
        <ele>3117.2119140999998</ele>
        <time>2011-07-10T07:15:01Z</time>
      </trkpt>
      <trkpt lat="45.895293038338423" lon="7.37517423927784">
        <ele>3121.0571289</ele>
        <time>2011-07-10T07:15:33Z</time>
      </trkpt>
      <trkpt lat="45.895363613963127" lon="7.375133419409394">
        <ele>3122.4990234000002</ele>
        <time>2011-07-10T07:16:07Z</time>
      </trkpt>
      <trkpt lat="45.895421700552106" lon="7.375078434124589">
        <ele>3125.8642577999999</ele>
        <time>2011-07-10T07:17:03Z</time>
      </trkpt>
      <trkpt lat="45.895485319197178" lon="7.374967038631439">
        <ele>3128.7480469000002</ele>
        <time>2011-07-10T07:17:33Z</time>
      </trkpt>
      <trkpt lat="45.895508034154773" lon="7.374905096367002">
        <ele>3131.6323241999999</ele>
        <time>2011-07-10T07:18:01Z</time>
      </trkpt>
      <trkpt lat="45.895562600344419" lon="7.374834520742297">
        <ele>3134.9965820000002</ele>
        <time>2011-07-10T07:18:53Z</time>
      </trkpt>
      <trkpt lat="45.895620100200176" lon="7.374808536842465">
        <ele>3138.3613280999998</ele>
        <time>2011-07-10T07:19:27Z</time>
      </trkpt>
      <trkpt lat="45.895653292536736" lon="7.374774673953652">
        <ele>3141.7255859000002</ele>
        <time>2011-07-10T07:19:57Z</time>
      </trkpt>
      <trkpt lat="45.895719090476632" lon="7.374798562377691">
        <ele>3143.6484375</ele>
        <time>2011-07-10T07:20:21Z</time>
      </trkpt>
      <trkpt lat="45.895716659724712" lon="7.374794371426106">
        <ele>3143.6484375</ele>
        <time>2011-07-10T07:21:29Z</time>
      </trkpt>
      <trkpt lat="45.895715989172459" lon="7.374695632606745">
        <ele>3147.4936523000001</ele>
        <time>2011-07-10T07:21:59Z</time>
      </trkpt>
      <trkpt lat="45.895683718845248" lon="7.374609969556332">
        <ele>3149.8969726999999</ele>
        <time>2011-07-10T07:22:42Z</time>
      </trkpt>
      <trkpt lat="45.895644826814532" lon="7.374556576833129">
        <ele>3152.7807616999999</ele>
        <time>2011-07-10T07:23:32Z</time>
      </trkpt>
      <trkpt lat="45.89565840549767" lon="7.374472171068192">
        <ele>3156.1459961</ele>
        <time>2011-07-10T07:24:03Z</time>
      </trkpt>
      <trkpt lat="45.895685059949756" lon="7.374390112236142">
        <ele>3159.0297851999999</ele>
        <time>2011-07-10T07:24:30Z</time>
      </trkpt>
      <trkpt lat="45.895672487094998" lon="7.374287182465196">
        <ele>3162.3945312999999</ele>
        <time>2011-07-10T07:25:10Z</time>
      </trkpt>
      <trkpt lat="45.895631080493331" lon="7.374172182753682">
        <ele>3165.2783202999999</ele>
        <time>2011-07-10T07:25:38Z</time>
      </trkpt>
      <trkpt lat="45.895630493760109" lon="7.374090207740665">
        <ele>3166.7202148000001</ele>
        <time>2011-07-10T07:26:04Z</time>
      </trkpt>
      <trkpt lat="45.895691178739071" lon="7.373945284634829">
        <ele>3168.1621094000002</ele>
        <time>2011-07-10T07:26:31Z</time>
      </trkpt>
      <trkpt lat="45.895692519843578" lon="7.37389650195837">
        <ele>3170.0849609000002</ele>
        <time>2011-07-10T07:26:55Z</time>
      </trkpt>
      <trkpt lat="45.895706936717033" lon="7.373819723725319">
        <ele>3171.0458984000002</ele>
        <time>2011-07-10T07:27:22Z</time>
      </trkpt>
      <trkpt lat="45.895727640017867" lon="7.373782424256206">
        <ele>3171.5268554999998</ele>
        <time>2011-07-10T07:27:52Z</time>
      </trkpt>
      <trkpt lat="45.895709618926048" lon="7.373801534995437">
        <ele>3172.0073241999999</ele>
        <time>2011-07-10T07:28:21Z</time>
      </trkpt>
      <trkpt lat="45.895757563412189" lon="7.373834224417806">
        <ele>3174.8911133000001</ele>
        <time>2011-07-10T07:30:02Z</time>
      </trkpt>
      <trkpt lat="45.895855212584138" lon="7.373930281028152">
        <ele>3176.3330077999999</ele>
        <time>2011-07-10T07:30:28Z</time>
      </trkpt>
      <trkpt lat="45.895992675796151" lon="7.374028181657195">
        <ele>3177.7753905999998</ele>
        <time>2011-07-10T07:30:53Z</time>
      </trkpt>
      <trkpt lat="45.896089402958751" lon="7.374042263254523">
        <ele>3178.2558594000002</ele>
        <time>2011-07-10T07:31:12Z</time>
      </trkpt>
      <trkpt lat="45.896237175911665" lon="7.374086938798428">
        <ele>3180.1782226999999</ele>
        <time>2011-07-10T07:31:36Z</time>
      </trkpt>
      <trkpt lat="45.896296771243215" lon="7.374256001785398">
        <ele>3183.5429687999999</ele>
        <time>2011-07-10T07:31:58Z</time>
      </trkpt>
      <trkpt lat="45.896358797326684" lon="7.374261617660523">
        <ele>3186.9077148000001</ele>
        <time>2011-07-10T07:32:14Z</time>
      </trkpt>
      <trkpt lat="45.896477401256561" lon="7.37418768927455">
        <ele>3187.8686523000001</ele>
        <time>2011-07-10T07:32:30Z</time>
      </trkpt>
      <trkpt lat="45.896596340462565" lon="7.374051734805107">
        <ele>3191.2338866999999</ele>
        <time>2011-07-10T07:32:59Z</time>
      </trkpt>
      <trkpt lat="45.896600866690278" lon="7.374054836109281">
        <ele>3191.7143554999998</ele>
        <time>2011-07-10T07:33:00Z</time>
      </trkpt>
      <trkpt lat="45.896700276061893" lon="7.37401912920177">
        <ele>3194.5986327999999</ele>
        <time>2011-07-10T07:33:22Z</time>
      </trkpt>
      <trkpt lat="45.896741263568401" lon="7.374039832502604">
        <ele>3196.0405273000001</ele>
        <time>2011-07-10T07:33:40Z</time>
      </trkpt>
      <trkpt lat="45.896805888041854" lon="7.374057434499264">
        <ele>3199.8857422000001</ele>
        <time>2011-07-10T07:33:58Z</time>
      </trkpt>
      <trkpt lat="45.896896328777075" lon="7.374108228832483">
        <ele>3200.8471679999998</ele>
        <time>2011-07-10T07:34:18Z</time>
      </trkpt>
      <trkpt lat="45.897020883858204" lon="7.374091884121299">
        <ele>3200.8471679999998</ele>
        <time>2011-07-10T07:34:40Z</time>
      </trkpt>
      <trkpt lat="45.89719413779676" lon="7.374029271304607">
        <ele>3204.2114258000001</ele>
        <time>2011-07-10T07:35:11Z</time>
      </trkpt>
      <trkpt lat="45.897222300991416" lon="7.374042263254523">
        <ele>3205.1728515999998</ele>
        <time>2011-07-10T07:35:51Z</time>
      </trkpt>
      <trkpt lat="45.897318189963698" lon="7.374049806967378">
        <ele>3206.6147461</ele>
        <time>2011-07-10T07:36:49Z</time>
      </trkpt>
      <trkpt lat="45.897373091429472" lon="7.374029019847512">
        <ele>3208.0566405999998</ele>
        <time>2011-07-10T07:37:06Z</time>
      </trkpt>
      <trkpt lat="45.897493539378047" lon="7.37400253303349">
        <ele>3210.4599609000002</ele>
        <time>2011-07-10T07:37:33Z</time>
      </trkpt>
      <trkpt lat="45.897517427802086" lon="7.37404796294868">
        <ele>3211.4213866999999</ele>
        <time>2011-07-10T07:38:02Z</time>
      </trkpt>
      <trkpt lat="45.897563779726624" lon="7.374028516933322">
        <ele>3211.4213866999999</ele>
        <time>2011-07-10T07:38:37Z</time>
      </trkpt>
      <trkpt lat="45.897637959569693" lon="7.374059362336993">
        <ele>3214.7856445000002</ele>
        <time>2011-07-10T07:39:38Z</time>
      </trkpt>
      <trkpt lat="45.897668804973364" lon="7.374051567167044">
        <ele>3216.7084961</ele>
        <time>2011-07-10T07:39:58Z</time>
      </trkpt>
      <trkpt lat="45.897726388648152" lon="7.374083669856191">
        <ele>3219.1118164</ele>
        <time>2011-07-10T07:40:20Z</time>
      </trkpt>
      <trkpt lat="45.89779319241643" lon="7.374131698161364">
        <ele>3219.5922851999999</ele>
        <time>2011-07-10T07:40:42Z</time>
      </trkpt>
      <trkpt lat="45.897791599854827" lon="7.374124573543668">
        <ele>3219.1118164</ele>
        <time>2011-07-10T07:42:03Z</time>
      </trkpt>
      <trkpt lat="45.897789085283875" lon="7.374120717868209">
        <ele>3220.0732422000001</ele>
        <time>2011-07-10T07:44:53Z</time>
      </trkpt>
      <trkpt lat="45.897789085283875" lon="7.374120634049177">
        <ele>3216.2280273000001</ele>
        <time>2011-07-10T07:44:56Z</time>
      </trkpt>
      <trkpt lat="45.897787911817431" lon="7.374119125306606">
        <ele>3219.5922851999999</ele>
        <time>2011-07-10T07:45:34Z</time>
      </trkpt>
      <trkpt lat="45.897784810513258" lon="7.374118790030479">
        <ele>3219.1118164</ele>
        <time>2011-07-10T07:46:28Z</time>
      </trkpt>
      <trkpt lat="45.897799897938967" lon="7.374118287116289">
        <ele>3220.0732422000001</ele>
        <time>2011-07-10T07:56:03Z</time>
      </trkpt>
      <trkpt lat="45.897810459136963" lon="7.374130776152015">
        <ele>3221.515625</ele>
        <time>2011-07-10T08:01:32Z</time>
      </trkpt>
      <trkpt lat="45.897812303155661" lon="7.374130776152015">
        <ele>3221.0346679999998</ele>
        <time>2011-07-10T08:02:10Z</time>
      </trkpt>
      <trkpt lat="45.897874999791384" lon="7.374087190255523">
        <ele>3222.4765625</ele>
        <time>2011-07-10T08:03:27Z</time>
      </trkpt>
      <trkpt lat="45.897886482998729" lon="7.374053662642837">
        <ele>3223.4379883000001</ele>
        <time>2011-07-10T08:05:20Z</time>
      </trkpt>
      <trkpt lat="45.897899307310581" lon="7.37403572537005">
        <ele>3224.8798827999999</ele>
        <time>2011-07-10T08:06:16Z</time>
      </trkpt>
      <trkpt lat="45.897967787459493" lon="7.373990630730987">
        <ele>3228.7250976999999</ele>
        <time>2011-07-10T08:08:14Z</time>
      </trkpt>
      <trkpt lat="45.898104580119252" lon="7.373969592154026">
        <ele>3231.609375</ele>
        <time>2011-07-10T08:08:42Z</time>
      </trkpt>
      <trkpt lat="45.898170713335276" lon="7.373944781720638">
        <ele>3233.5317383000001</ele>
        <time>2011-07-10T08:09:00Z</time>
      </trkpt>
      <trkpt lat="45.89823198504746" lon="7.373944111168385">
        <ele>3235.4541015999998</ele>
        <time>2011-07-10T08:09:26Z</time>
      </trkpt>
      <trkpt lat="45.898313792422414" lon="7.373886862769723">
        <ele>3238.8188476999999</ele>
        <time>2011-07-10T08:09:55Z</time>
      </trkpt>
      <trkpt lat="45.898375986143947" lon="7.373852832242847">
        <ele>3240.7416991999999</ele>
        <time>2011-07-10T08:10:26Z</time>
      </trkpt>
      <trkpt lat="45.898448741063476" lon="7.37379290163517">
        <ele>3243.1445312999999</ele>
        <time>2011-07-10T08:11:00Z</time>
      </trkpt>
      <trkpt lat="45.898488387465477" lon="7.37374160438776">
        <ele>3245.5478515999998</ele>
        <time>2011-07-10T08:11:28Z</time>
      </trkpt>
      <trkpt lat="45.898547396063805" lon="7.373685529455543">
        <ele>3248.4321289</ele>
        <time>2011-07-10T08:11:53Z</time>
      </trkpt>
      <trkpt lat="45.898596262559295" lon="7.373616127297282">
        <ele>3251.3159179999998</ele>
        <time>2011-07-10T08:12:18Z</time>
      </trkpt>
      <trkpt lat="45.898650577291846" lon="7.373538929969072">
        <ele>3253.7197265999998</ele>
        <time>2011-07-10T08:12:53Z</time>
      </trkpt>
      <trkpt lat="45.898709502071142" lon="7.373471707105637">
        <ele>3257.0839844000002</ele>
        <time>2011-07-10T08:13:21Z</time>
      </trkpt>
      <trkpt lat="45.898768678307533" lon="7.373419906944037">
        <ele>3260.4487304999998</ele>
        <time>2011-07-10T08:13:48Z</time>
      </trkpt>
      <trkpt lat="45.898840762674809" lon="7.373349163681269">
        <ele>3263.3325195000002</ele>
        <time>2011-07-10T08:14:19Z</time>
      </trkpt>
      <trkpt lat="45.898938160389662" lon="7.37330331467092">
        <ele>3266.2163086</ele>
        <time>2011-07-10T08:14:51Z</time>
      </trkpt>
      <trkpt lat="45.899006724357605" lon="7.373213293030858">
        <ele>3269.5810547000001</ele>
        <time>2011-07-10T08:15:17Z</time>
      </trkpt>
      <trkpt lat="45.89910663664341" lon="7.373111536726356">
        <ele>3272.4648437999999</ele>
        <time>2011-07-10T08:15:47Z</time>
      </trkpt>
      <trkpt lat="45.899219792336226" lon="7.372963177040219">
        <ele>3274.8681640999998</ele>
        <time>2011-07-10T08:16:27Z</time>
      </trkpt>
      <trkpt lat="45.899292463436723" lon="7.372891260311008">
        <ele>3276.7910155999998</ele>
        <time>2011-07-10T08:16:51Z</time>
      </trkpt>
      <trkpt lat="45.899371085688472" lon="7.372773494571447">
        <ele>3279.6748047000001</ele>
        <time>2011-07-10T08:17:19Z</time>
      </trkpt>
      <trkpt lat="45.899439733475447" lon="7.372693698853254">
        <ele>3281.5971679999998</ele>
        <time>2011-07-10T08:17:46Z</time>
      </trkpt>
      <trkpt lat="45.899528665468097" lon="7.372612562030554">
        <ele>3282.5585937999999</ele>
        <time>2011-07-10T08:18:17Z</time>
      </trkpt>
      <trkpt lat="45.89963486418128" lon="7.37252488732338">
        <ele>3285.9238280999998</ele>
        <time>2011-07-10T08:18:50Z</time>
      </trkpt>
      <trkpt lat="45.89974676258862" lon="7.37243696115911">
        <ele>3289.2880859000002</ele>
        <time>2011-07-10T08:19:22Z</time>
      </trkpt>
      <trkpt lat="45.899883136153221" lon="7.372276280075312">
        <ele>3291.6914062999999</ele>
        <time>2011-07-10T08:20:08Z</time>
      </trkpt>
      <trkpt lat="45.900003500282764" lon="7.372102858498693">
        <ele>3295.0561523000001</ele>
        <time>2011-07-10T08:20:52Z</time>
      </trkpt>
      <trkpt lat="45.900077009573579" lon="7.37200110219419">
        <ele>3296.9785155999998</ele>
        <time>2011-07-10T08:21:22Z</time>
      </trkpt>
      <trkpt lat="45.900153033435345" lon="7.37190144136548">
        <ele>3299.8627929999998</ele>
        <time>2011-07-10T08:21:52Z</time>
      </trkpt>
      <trkpt lat="45.900228638201952" lon="7.371833212673664">
        <ele>3301.7851562999999</ele>
        <time>2011-07-10T08:22:20Z</time>
      </trkpt>
      <trkpt lat="45.900321258231997" lon="7.371710333973169">
        <ele>3305.1499023000001</ele>
        <time>2011-07-10T08:22:52Z</time>
      </trkpt>
      <trkpt lat="45.900415135547519" lon="7.371594496071339">
        <ele>3306.5917969000002</ele>
        <time>2011-07-10T08:23:25Z</time>
      </trkpt>
      <trkpt lat="45.900478838011622" lon="7.371516460552812">
        <ele>3308.5146484000002</ele>
        <time>2011-07-10T08:23:47Z</time>
      </trkpt>
      <trkpt lat="45.900547904893756" lon="7.371415458619595">
        <ele>3311.3984375</ele>
        <time>2011-07-10T08:24:18Z</time>
      </trkpt>
      <trkpt lat="45.900631975382566" lon="7.371286964043975">
        <ele>3315.2436523000001</ele>
        <time>2011-07-10T08:24:55Z</time>
      </trkpt>
      <trkpt lat="45.900633484125137" lon="7.371281515806913">
        <ele>3313.8017577999999</ele>
        <time>2011-07-10T08:24:58Z</time>
      </trkpt>
      <trkpt lat="45.900688469409943" lon="7.371196104213595">
        <ele>3316.6860351999999</ele>
        <time>2011-07-10T08:25:25Z</time>
      </trkpt>
      <trkpt lat="45.900727193802595" lon="7.371114380657673">
        <ele>3318.6083984000002</ele>
        <time>2011-07-10T08:25:52Z</time>
      </trkpt>
      <trkpt lat="45.900774803012609" lon="7.371047241613269">
        <ele>3320.53125</ele>
        <time>2011-07-10T08:26:22Z</time>
      </trkpt>
      <trkpt lat="45.900833895429969" lon="7.370976079255343">
        <ele>3322.9345702999999</ele>
        <time>2011-07-10T08:26:49Z</time>
      </trkpt>
      <trkpt lat="45.900863986462355" lon="7.370915729552507">
        <ele>3324.8569336</ele>
        <time>2011-07-10T08:27:36Z</time>
      </trkpt>
      <trkpt lat="45.900931460782886" lon="7.370822187513113">
        <ele>3328.7021484000002</ele>
        <time>2011-07-10T08:28:27Z</time>
      </trkpt>
      <trkpt lat="45.900973035022616" lon="7.370738284662366">
        <ele>3330.1440429999998</ele>
        <time>2011-07-10T08:28:54Z</time>
      </trkpt>
      <trkpt lat="45.901006311178207" lon="7.370673660188913">
        <ele>3333.5087890999998</ele>
        <time>2011-07-10T08:29:20Z</time>
      </trkpt>
      <trkpt lat="45.901065822690725" lon="7.370587410405278">
        <ele>3336.3925780999998</ele>
        <time>2011-07-10T08:29:59Z</time>
      </trkpt>
      <trkpt lat="45.901098679751158" lon="7.37046972848475">
        <ele>3339.2768554999998</ele>
        <time>2011-07-10T08:30:43Z</time>
      </trkpt>
      <trkpt lat="45.901137571781874" lon="7.370408875867724">
        <ele>3342.6411133000001</ele>
        <time>2011-07-10T08:31:08Z</time>
      </trkpt>
      <trkpt lat="45.901190377771854" lon="7.370338384062052">
        <ele>3345.5249023000001</ele>
        <time>2011-07-10T08:31:41Z</time>
      </trkpt>
      <trkpt lat="45.901251062750816" lon="7.370268981903791">
        <ele>3348.4096679999998</ele>
        <time>2011-07-10T08:32:06Z</time>
      </trkpt>
      <trkpt lat="45.901290038600564" lon="7.370191784575582">
        <ele>3351.7739258000001</ele>
        <time>2011-07-10T08:32:44Z</time>
      </trkpt>
      <trkpt lat="45.901359524577856" lon="7.370094805955887">
        <ele>3355.1386719000002</ele>
        <time>2011-07-10T08:33:26Z</time>
      </trkpt>
      <trkpt lat="45.901408474892378" lon="7.370005622506142">
        <ele>3358.0224609000002</ele>
        <time>2011-07-10T08:33:53Z</time>
      </trkpt>
      <trkpt lat="45.901448037475348" lon="7.369945608079433">
        <ele>3358.9838866999999</ele>
        <time>2011-07-10T08:34:15Z</time>
      </trkpt>
      <trkpt lat="45.901492210105062" lon="7.369888527318835">
        <ele>3361.8676758000001</ele>
        <time>2011-07-10T08:34:35Z</time>
      </trkpt>
      <trkpt lat="45.901559265330434" lon="7.369763217866421">
        <ele>3365.2324219000002</ele>
        <time>2011-07-10T08:35:08Z</time>
      </trkpt>
      <trkpt lat="45.901628835126758" lon="7.369648218154907">
        <ele>3368.5966797000001</ele>
        <time>2011-07-10T08:35:36Z</time>
      </trkpt>
      <trkpt lat="45.901726987212896" lon="7.369483513757587">
        <ele>3371.9614258000001</ele>
        <time>2011-07-10T08:36:13Z</time>
      </trkpt>
      <trkpt lat="45.901801083236933" lon="7.369326772168279">
        <ele>3373.8837890999998</ele>
        <time>2011-07-10T08:36:47Z</time>
      </trkpt>
      <trkpt lat="45.901893703266978" lon="7.369201881811023">
        <ele>3376.2871094000002</ele>
        <time>2011-07-10T08:37:21Z</time>
      </trkpt>
      <trkpt lat="45.901924800127745" lon="7.3691719584167">
        <ele>3374.8452148000001</ele>
        <time>2011-07-10T08:37:32Z</time>
      </trkpt>
      <trkpt lat="45.901952292770147" lon="7.369101969525218">
        <ele>3377.7294922000001</ele>
        <time>2011-07-10T08:37:55Z</time>
      </trkpt>
      <trkpt lat="45.902001075446606" lon="7.369065340608358">
        <ele>3378.6904297000001</ele>
        <time>2011-07-10T08:38:05Z</time>
      </trkpt>
      <trkpt lat="45.902038039639592" lon="7.368990071117878">
        <ele>3380.1328125</ele>
        <time>2011-07-10T08:38:32Z</time>
      </trkpt>
      <trkpt lat="45.902088582515717" lon="7.368902983143926">
        <ele>3381.5747070000002</ele>
        <time>2011-07-10T08:38:56Z</time>
      </trkpt>
      <trkpt lat="45.902154380455613" lon="7.368771973997355">
        <ele>3383.9780273000001</ele>
        <time>2011-07-10T08:39:32Z</time>
      </trkpt>
      <trkpt lat="45.902180699631572" lon="7.368717659264803">
        <ele>3384.4589844000002</ele>
        <time>2011-07-10T08:40:14Z</time>
      </trkpt>
      <trkpt lat="45.902231577783823" lon="7.368726627901197">
        <ele>3387.8232422000001</ele>
        <time>2011-07-10T08:40:38Z</time>
      </trkpt>
      <trkpt lat="45.902284635230899" lon="7.368612801656127">
        <ele>3390.2265625</ele>
        <time>2011-07-10T08:41:02Z</time>
      </trkpt>
      <trkpt lat="45.902324868366122" lon="7.36855136230588">
        <ele>3393.5913086</ele>
        <time>2011-07-10T08:41:23Z</time>
      </trkpt>
      <trkpt lat="45.902328975498676" lon="7.36853426322341">
        <ele>3392.1494140999998</ele>
        <time>2011-07-10T08:41:26Z</time>
      </trkpt>
      <trkpt lat="45.902376584708691" lon="7.368440134450793">
        <ele>3395.0332030999998</ele>
        <time>2011-07-10T08:41:48Z</time>
      </trkpt>
      <trkpt lat="45.902455458417535" lon="7.368287164717913">
        <ele>3398.3979491999999</ele>
        <time>2011-07-10T08:42:25Z</time>
      </trkpt>
      <trkpt lat="45.902483202517033" lon="7.368206363171339">
        <ele>3397.9169922000001</ele>
        <time>2011-07-10T08:42:46Z</time>
      </trkpt>
      <trkpt lat="45.902502732351422" lon="7.36812237650156">
        <ele>3399.8398437999999</ele>
        <time>2011-07-10T08:43:20Z</time>
      </trkpt>
      <trkpt lat="45.902528297156096" lon="7.368050711229444">
        <ele>3400.3203125</ele>
        <time>2011-07-10T08:43:47Z</time>
      </trkpt>
      <trkpt lat="45.902569284662604" lon="7.367967059835792">
        <ele>3403.6850586</ele>
        <time>2011-07-10T08:44:21Z</time>
      </trkpt>
      <trkpt lat="45.902607841417193" lon="7.367900172248483">
        <ele>3404.6459961</ele>
        <time>2011-07-10T08:44:51Z</time>
      </trkpt>
      <trkpt lat="45.902628041803837" lon="7.367862537503243">
        <ele>3407.0493164</ele>
        <time>2011-07-10T08:45:05Z</time>
      </trkpt>
      <trkpt lat="45.902632735669613" lon="7.36785507760942">
        <ele>3406.5688476999999</ele>
        <time>2011-07-10T08:45:11Z</time>
      </trkpt>
      <trkpt lat="45.902682524174452" lon="7.367776874452829">
        <ele>3409.9335937999999</ele>
        <time>2011-07-10T08:45:42Z</time>
      </trkpt>
      <trkpt lat="45.902702137827873" lon="7.367748040705919">
        <ele>3408.4916991999999</ele>
        <time>2011-07-10T08:45:49Z</time>
      </trkpt>
      <trkpt lat="45.902745304629207" lon="7.367660365998745">
        <ele>3412.3369140999998</ele>
        <time>2011-07-10T08:46:15Z</time>
      </trkpt>
      <trkpt lat="45.90274840593338" lon="7.367657013237476">
        <ele>3412.3369140999998</ele>
        <time>2011-07-10T08:46:16Z</time>
      </trkpt>
      <trkpt lat="45.90278553776443" lon="7.367591634392738">
        <ele>3413.7792969000002</ele>
        <time>2011-07-10T08:46:40Z</time>
      </trkpt>
      <trkpt lat="45.902860136702657" lon="7.367452578619123">
        <ele>3415.7016601999999</ele>
        <time>2011-07-10T08:47:15Z</time>
      </trkpt>
      <trkpt lat="45.902895089238882" lon="7.367367334663868">
        <ele>3417.6245116999999</ele>
        <time>2011-07-10T08:47:47Z</time>
      </trkpt>
      <trkpt lat="45.902909003198147" lon="7.367322994396091">
        <ele>3417.1435547000001</ele>
        <time>2011-07-10T08:47:59Z</time>
      </trkpt>
      <trkpt lat="45.902955606579781" lon="7.367242779582739">
        <ele>3420.5083008000001</ele>
        <time>2011-07-10T08:48:26Z</time>
      </trkpt>
      <trkpt lat="45.902989720925689" lon="7.367178071290255">
        <ele>3421.9501952999999</ele>
        <time>2011-07-10T08:48:56Z</time>
      </trkpt>
      <trkpt lat="45.903019811958075" lon="7.367092911154032">
        <ele>3423.3920898000001</ele>
        <time>2011-07-10T08:49:27Z</time>
      </trkpt>
      <trkpt lat="45.903045041486621" lon="7.367009930312634">
        <ele>3424.3535155999998</ele>
        <time>2011-07-10T08:49:57Z</time>
      </trkpt>
      <trkpt lat="45.903059458360076" lon="7.366948407143354">
        <ele>3427.2373047000001</ele>
        <time>2011-07-10T08:50:25Z</time>
      </trkpt>
      <trkpt lat="45.903079658746719" lon="7.366890069097281">
        <ele>3428.1987304999998</ele>
        <time>2011-07-10T08:51:00Z</time>
      </trkpt>
      <trkpt lat="45.903107905760407" lon="7.36680943518877">
        <ele>3429.640625</ele>
        <time>2011-07-10T08:51:30Z</time>
      </trkpt>
      <trkpt lat="45.903123915195465" lon="7.366783367469907">
        <ele>3432.5244140999998</ele>
        <time>2011-07-10T08:53:33Z</time>
      </trkpt>
      <trkpt lat="45.903131039813161" lon="7.366770459339023">
        <ele>3434.9277344000002</ele>
        <time>2011-07-10T08:55:15Z</time>
      </trkpt>
      <trkpt lat="45.90313833206892" lon="7.366759730502963">
        <ele>3438.2924804999998</ele>
        <time>2011-07-10T08:56:02Z</time>
      </trkpt>
      <trkpt lat="45.903171524405479" lon="7.366692926734686">
        <ele>3439.2539062999999</ele>
        <time>2011-07-10T08:56:46Z</time>
      </trkpt>
      <trkpt lat="45.90323212556541" lon="7.366623021662235">
        <ele>3442.6181640999998</ele>
        <time>2011-07-10T08:57:28Z</time>
      </trkpt>
      <trkpt lat="45.90330203063786" lon="7.366539537906647">
        <ele>3445.9833984000002</ele>
        <time>2011-07-10T08:58:32Z</time>
      </trkpt>
      <trkpt lat="45.903330026194453" lon="7.366487318649888">
        <ele>3449.3476562999999</ele>
        <time>2011-07-10T08:59:10Z</time>
      </trkpt>
      <trkpt lat="45.903359027579427" lon="7.36642831005156">
        <ele>3452.7124023000001</ele>
        <time>2011-07-10T09:00:00Z</time>
      </trkpt>
      <trkpt lat="45.903392471373081" lon="7.366409031674266">
        <ele>3456.0771484000002</ele>
        <time>2011-07-10T09:00:34Z</time>
      </trkpt>
      <trkpt lat="45.90341292321682" lon="7.366359578445554">
        <ele>3459.4414062999999</ele>
        <time>2011-07-10T09:01:51Z</time>
      </trkpt>
      <trkpt lat="45.903418036177754" lon="7.366353627294302">
        <ele>3462.3256836</ele>
        <time>2011-07-10T09:03:33Z</time>
      </trkpt>
      <trkpt lat="45.903419628739357" lon="7.366351364180446">
        <ele>3463.2866211</ele>
        <time>2011-07-10T09:03:48Z</time>
      </trkpt>
      <trkpt lat="45.903495736420155" lon="7.366256229579449">
        <ele>3466.1704101999999</ele>
        <time>2011-07-10T09:05:26Z</time>
      </trkpt>
      <trkpt lat="45.903534460812807" lon="7.366151958703995">
        <ele>3469.5351562999999</ele>
        <time>2011-07-10T09:07:08Z</time>
      </trkpt>
      <trkpt lat="45.903534460812807" lon="7.366151288151741">
        <ele>3469.0546875</ele>
        <time>2011-07-10T09:07:09Z</time>
      </trkpt>
      <trkpt lat="45.903533874079585" lon="7.366130333393812">
        <ele>3468.5737304999998</ele>
        <time>2011-07-10T09:07:52Z</time>
      </trkpt>
      <trkpt lat="45.903535131365061" lon="7.36611993983388">
        <ele>3471.4580077999999</ele>
        <time>2011-07-10T09:09:58Z</time>
      </trkpt>
      <trkpt lat="45.903539909049869" lon="7.366100577637553">
        <ele>3474.8222655999998</ele>
        <time>2011-07-10T09:11:08Z</time>
      </trkpt>
      <trkpt lat="45.903547117486596" lon="7.366087166592479">
        <ele>3477.7070312999999</ele>
        <time>2011-07-10T09:12:09Z</time>
      </trkpt>
      <trkpt lat="45.903553739190102" lon="7.366081131622195">
        <ele>3481.0712890999998</ele>
        <time>2011-07-10T09:12:46Z</time>
      </trkpt>
      <trkpt lat="45.903563881292939" lon="7.366075599566102">
        <ele>3484.4360351999999</ele>
        <time>2011-07-10T09:13:33Z</time>
      </trkpt>
      <trkpt lat="45.903564216569066" lon="7.366075431928039">
        <ele>3484.4360351999999</ele>
        <time>2011-07-10T09:13:34Z</time>
      </trkpt>
      <trkpt lat="45.903574526309967" lon="7.366072498261929">
        <ele>3487.8002929999998</ele>
        <time>2011-07-10T09:14:18Z</time>
      </trkpt>
      <trkpt lat="45.903584165498614" lon="7.366070821881294">
        <ele>3490.6845702999999</ele>
        <time>2011-07-10T09:15:03Z</time>
      </trkpt>
      <trkpt lat="45.903597073629498" lon="7.366070235148072">
        <ele>3494.0488280999998</ele>
        <time>2011-07-10T09:16:15Z</time>
      </trkpt>
      <trkpt lat="45.903609730303288" lon="7.366071911528707">
        <ele>3496.9326172000001</ele>
        <time>2011-07-10T09:17:16Z</time>
      </trkpt>
      <trkpt lat="45.903622973710299" lon="7.36607450991869">
        <ele>3500.2973633000001</ele>
        <time>2011-07-10T09:18:02Z</time>
      </trkpt>
      <trkpt lat="45.903664464130998" lon="7.366077359765768">
        <ele>3503.6621094000002</ele>
        <time>2011-07-10T09:19:09Z</time>
      </trkpt>
      <trkpt lat="45.903906030580401" lon="7.365947104990482">
        <ele>3507.0263672000001</ele>
        <time>2011-07-10T09:20:21Z</time>
      </trkpt>
      <trkpt lat="45.903948191553354" lon="7.365896478295326">
        <ele>3509.9111327999999</ele>
        <time>2011-07-10T09:21:05Z</time>
      </trkpt>
      <trkpt lat="45.90395238250494" lon="7.365894131362438">
        <ele>3509.4301758000001</ele>
        <time>2011-07-10T09:21:06Z</time>
      </trkpt>
      <trkpt lat="45.903980880975723" lon="7.365874936804175">
        <ele>3511.8334961</ele>
        <time>2011-07-10T09:21:38Z</time>
      </trkpt>
      <trkpt lat="45.904039721935987" lon="7.365886503830552">
        <ele>3512.7949219000002</ele>
        <time>2011-07-10T09:22:51Z</time>
      </trkpt>
      <trkpt lat="45.904057491570711" lon="7.365884324535728">
        <ele>3513.7563476999999</ele>
        <time>2011-07-10T09:23:52Z</time>
      </trkpt>
      <trkpt lat="45.904057491570711" lon="7.365935789421201">
        <ele>3517.6015625</ele>
        <time>2011-07-10T09:26:24Z</time>
      </trkpt>
      <trkpt lat="45.904086912050843" lon="7.365996725857258">
        <ele>3519.5239258000001</ele>
        <time>2011-07-10T09:27:23Z</time>
      </trkpt>
      <trkpt lat="45.904090432450175" lon="7.365995468571782">
        <ele>3523.3691405999998</ele>
        <time>2011-07-10T09:31:08Z</time>
      </trkpt>
      <trkpt lat="45.904090432450175" lon="7.36599538475275">
        <ele>3522.4077148000001</ele>
        <time>2011-07-10T09:31:09Z</time>
      </trkpt>
      <trkpt lat="45.904090432450175" lon="7.365995217114687">
        <ele>3523.8500976999999</ele>
        <time>2011-07-10T09:31:31Z</time>
      </trkpt>
      <trkpt lat="45.904091019183397" lon="7.365995300933719">
        <ele>3520.9658202999999</ele>
        <time>2011-07-10T09:31:54Z</time>
      </trkpt>
      <trkpt lat="45.904090935364366" lon="7.365995300933719">
        <ele>3521.9272461</ele>
        <time>2011-07-10T09:31:55Z</time>
      </trkpt>
      <trkpt lat="45.904091689735651" lon="7.36599488183856">
        <ele>3515.6787109000002</ele>
        <time>2011-07-10T09:32:28Z</time>
      </trkpt>
      <trkpt lat="45.904091773554683" lon="7.365994965657592">
        <ele>3523.8500976999999</ele>
        <time>2011-07-10T09:32:29Z</time>
      </trkpt>
      <trkpt lat="45.904091773554683" lon="7.365994965657592">
        <ele>3519.0434570000002</ele>
        <time>2011-07-10T09:32:30Z</time>
      </trkpt>
      <trkpt lat="45.904092025011778" lon="7.365995217114687">
        <ele>3513.2753905999998</ele>
        <time>2011-07-10T09:32:36Z</time>
      </trkpt>
      <trkpt lat="45.904092025011778" lon="7.365995300933719">
        <ele>3522.8886719000002</ele>
        <time>2011-07-10T09:32:37Z</time>
      </trkpt>
      <trkpt lat="45.90409210883081" lon="7.365995300933719">
        <ele>3519.5239258000001</ele>
        <time>2011-07-10T09:32:38Z</time>
      </trkpt>
      <trkpt lat="45.904092863202095" lon="7.365996558219194">
        <ele>3520.0043945000002</ele>
        <time>2011-07-10T09:32:58Z</time>
      </trkpt>
      <trkpt lat="45.904094036668539" lon="7.365996222943068">
        <ele>3520.4853515999998</ele>
        <time>2011-07-10T09:33:11Z</time>
      </trkpt>
      <trkpt lat="45.904095964506269" lon="7.366005862131715">
        <ele>3522.4077148000001</ele>
        <time>2011-07-10T09:33:59Z</time>
      </trkpt>
      <trkpt lat="45.904098311439157" lon="7.365997731685638">
        <ele>3520.9658202999999</ele>
        <time>2011-07-10T09:34:06Z</time>
      </trkpt>
    </trkseg>
  </trk>

</gpx>